GFSMW_sfc_thetae_000.txt.gz
Theta_e
337 339 341 344 344 346 348 350 350 352 351 349 348 347 347 348 348 349 350 350 348 350 348 347 345 344 342 342 341 339 338 337 337 336 335 334 334 336 335 339 341 337 340
332 334 337 341 340 342 347 349 350 351 352 351 349 349 348 348 349 349 350 350 350 349 347 345 344 344 342 340 338 338 336 337 339 333 328 325 329 332 334 336 337 334 335
330 332 334 338 340 340 344 347 348 350 352 350 348 349 349 350 348 348 349 350 348 348 347 346 344 341 339 338 337 336 335 334 336 336 332 323 321 327 331 333 333 333 334
332 333 333 335 338 340 344 346 347 349 350 350 348 347 345 344 345 343 347 347 346 345 343 342 340 338 337 336 336 339 337 336 332 334 336 333 332 324 322 328 328 329 329
331 332 333 335 338 341 343 345 345 346 349 350 350 348 345 345 338 337 340 341 338 337 339 338 337 338 336 335 336 337 336 336 334 332 332 330 328 328 323 319 322 325 330
331 333 335 336 338 341 342 344 344 345 348 349 349 347 346 339 334 333 336 334 331 332 335 337 339 337 334 335 335 336 335 335 335 334 332 329 325 325 324 322 321 321 324
332 332 332 335 337 339 341 344 344 344 348 349 349 350 347 339 334 332 333 329 327 331 333 336 334 333 332 333 334 335 334 334 334 334 332 331 330 329 327 324 322 321 322
333 333 334 335 337 340 342 344 344 344 348 350 350 351 347 338 334 332 329 329 329 331 333 332 333 329 330 333 335 333 333 333 334 333 331 331 331 329 328 325 321 314 315
332 334 335 336 337 340 341 343 345 346 347 349 350 345 341 333 331 330 330 329 330 330 331 331 331 330 330 334 334 332 333 334 334 334 333 331 331 329 328 326 324 318 312
331 333 336 337 339 340 342 345 346 346 347 347 345 342 337 332 329 329 329 327 328 330 330 331 330 330 331 333 333 332 332 332 332 332 332 332 332 329 327 324 324 321 318
329 332 336 339 340 341 342 344 345 346 346 344 341 337 332 330 329 329 330 329 328 329 330 330 330 330 330 332 331 331 332 332 332 332 332 332 332 329 326 325 324 321 319
328 331 335 338 339 339 341 343 345 346 347 344 339 335 332 331 330 331 331 330 329 329 330 330 331 332 332 332 331 331 333 332 331 332 331 331 330 329 328 324 324 323 322
325 329 332 335 337 338 340 342 344 345 347 344 335 333 331 332 331 331 331 330 329 328 329 331 330 330 330 328 329 331 331 331 331 331 330 330 328 327 326 325 324 324 324
324 327 329 332 334 335 338 341 343 345 345 340 335 333 332 331 333 332 331 331 330 329 329 329 329 329 328 328 329 330 330 330 330 331 331 329 327 327 327 326 325 325 323
319 324 327 329 331 331 334 338 341 343 343 339 336 335 334 335 333 332 332 331 330 330 330 329 329 329 328 328 330 331 330 330 331 332 330 329 328 328 328 327 327 323 322
319 321 325 327 328 330 331 337 340 342 342 339 337 338 336 334 333 334 334 331 330 329 330 328 329 329 329 326 327 332 331 332 330 329 328 325 325 325 325 326 328 327 324
320 319 321 324 325 327 331 335 339 342 341 340 340 338 333 332 332 333 333 331 328 329 328 329 329 329 331 323 324 328 332 329 326 326 325 323 325 326 323 322 323 325 325
321 320 320 324 326 327 331 334 338 340 341 340 340 335 333 331 331 330 328 330 329 328 328 329 329 329 330 322 321 325 331 329 326 324 323 322 322 321 322 322 322 321 320
322 325 325 325 327 329 332 334 337 339 339 339 337 335 334 333 334 331 330 330 330 329 329 330 330 328 329 320 320 323 328 327 325 323 321 319 321 318 316 319 318 316 317
321 323 326 328 330 332 334 334 334 337 337 337 337 337 335 331 330 332 332 331 331 330 331 330 328 324 327 320 319 320 326 324 320 319 320 316 315 312 311 316 314 313 314
326 329 331 332 332 333 334 332 332 334 337 337 337 338 337 335 334 331 329 328 330 330 329 327 324 327 328 328 317 313 322 320 319 318 317 316 311 308 307 307 313 312 312
325 329 330 333 334 333 334 330 332 333 335 335 335 333 333 334 329 326 326 327 326 324 324 326 322 321 326 315 315 311 314 316 318 316 313 313 305 305 306 309 307 307 309
327 332 334 332 331 331 332 329 328 332 332 330 329 331 330 330 328 326 326 325 325 324 324 325 325 326 319 314 308 309 308 311 311 311 309 306 303 302 307 307 307 307 308
327 330 330 327 325 327 329 329 331 332 329 327 328 329 328 327 326 327 328 326 324 322 324 326 324 321 316 313 312 310 310 309 309 305 306 308 308 307 307 306 305 306 306
327 328 326 326 326 328 327 329 331 328 326 326 325 325 325 327 327 326 322 324 321 317 325 323 322 317 313 311 306 306 308 308 305 303 309 310 308 304 303 302 302 302 303
326 326 325 326 326 326 327 327 329 329 328 326 324 323 325 324 323 313 310 301 300 300 299 301 310 309 304 299 297 295 295 294 296 305 307 304 301 301 299 298 298 299 298

GFSMW_sfc_thetae_003.txt.gz
Theta_e
345 349 352 354 355 357 358 359 360 362 362 359 357 358 354 359 359 361 362 362 362 361 361 361 357 356 352 353 352 351 348 346 349 342 338 343 344 340 342 341 336 334 338
343 347 349 350 352 355 357 359 360 363 363 361 362 360 360 359 359 361 363 362 360 361 360 358 354 354 350 351 350 349 345 346 349 340 339 330 335 341 338 335 329 333 333
339 342 345 348 351 352 356 358 361 364 364 364 362 361 361 361 358 359 359 360 361 360 359 357 354 353 350 344 348 347 345 340 346 345 338 329 326 330 338 337 331 332 331
339 341 343 345 348 351 354 359 361 363 364 366 361 360 355 352 356 359 360 360 361 358 357 356 352 352 348 349 348 347 348 347 340 343 344 342 338 327 325 333 332 330 328
337 339 341 344 347 351 351 355 361 363 366 365 365 359 358 357 359 357 357 360 359 357 353 352 350 350 347 349 346 348 347 345 341 339 340 339 338 338 329 321 324 330 332
337 339 342 344 346 349 350 353 359 362 362 363 363 361 361 359 356 355 350 351 353 350 350 348 350 351 349 346 344 346 345 344 343 342 340 334 329 329 327 324 326 325 328
336 338 340 341 344 347 349 351 357 358 358 359 361 361 361 362 360 358 352 350 348 346 345 347 348 348 349 345 345 345 344 343 341 343 338 338 334 335 333 329 326 325 327
336 337 340 343 345 346 349 351 354 356 357 357 361 363 362 359 359 359 353 349 349 347 346 346 347 348 345 343 344 340 340 343 341 343 343 338 337 337 336 332 329 324 325
336 338 340 343 345 347 350 352 355 357 357 356 360 360 363 362 360 359 354 349 351 345 345 345 346 345 340 342 344 337 339 342 342 342 343 340 338 338 338 337 334 328 321
337 338 341 343 346 347 350 352 355 356 357 356 358 358 360 361 361 359 351 347 348 345 344 344 343 342 340 340 343 339 340 341 338 338 342 342 339 339 342 339 335 332 327
337 340 342 343 346 348 348 351 352 355 354 356 359 360 359 359 360 353 352 342 344 345 344 344 342 341 341 342 342 342 340 339 340 342 341 342 343 338 337 338 337 332 330
339 340 341 343 344 346 347 348 350 350 354 357 358 357 358 350 349 352 340 342 340 344 344 343 342 342 341 342 342 340 336 338 338 339 340 339 338 340 340 336 337 333 334
336 339 340 342 344 345 349 348 350 350 352 356 354 354 353 350 352 336 341 338 338 338 340 341 341 341 342 342 343 341 339 339 339 339 339 339 339 338 335 336 333 332 335
336 338 339 345 347 349 350 351 350 351 352 352 353 354 350 349 341 340 335 337 336 337 337 339 342 341 342 342 340 338 339 340 339 340 340 340 339 338 337 334 335 334 332
332 336 338 344 347 349 349 350 350 352 354 355 352 351 351 348 343 335 334 333 334 334 334 336 340 341 339 337 338 339 339 341 340 340 342 341 340 334 332 331 334 334 330
330 335 338 340 342 344 345 346 348 350 353 353 351 351 348 343 341 341 335 333 333 333 336 336 336 337 336 329 328 335 339 341 341 340 340 341 334 332 328 327 328 330 330
331 333 336 339 341 341 344 343 346 349 350 350 350 348 345 341 342 341 340 335 330 332 334 337 335 339 338 326 325 330 338 339 340 339 338 337 333 330 332 327 325 325 325
332 333 332 336 339 339 340 344 346 349 349 349 348 347 344 342 341 342 340 337 333 333 338 338 339 338 339 323 322 326 337 335 337 338 338 336 335 333 328 328 327 328 330
333 334 335 337 339 338 341 343 344 347 348 347 348 345 343 342 341 340 340 339 337 337 337 336 338 338 338 321 320 327 334 333 331 336 336 332 330 322 317 322 324 326 326
335 335 338 338 340 341 342 344 344 345 346 347 347 345 343 341 339 341 341 339 339 335 336 337 339 331 337 318 318 326 328 329 328 334 330 318 322 313 313 322 324 322 323
336 340 340 340 342 345 345 345 345 345 348 349 346 345 344 343 343 343 341 339 338 337 337 336 338 337 336 332 315 314 330 330 329 329 328 326 311 309 308 308 323 319 315
337 341 342 344 344 346 347 346 345 347 345 347 342 342 342 341 340 340 338 338 338 337 336 336 335 332 336 317 316 313 314 323 330 329 328 322 307 304 307 311 308 308 309
340 341 341 342 343 345 346 343 342 341 342 342 339 340 341 339 338 336 336 334 335 334 333 331 329 330 331 329 311 309 309 313 324 324 310 305 303 303 306 310 308 307 315
339 342 343 342 340 341 340 341 341 343 341 338 339 340 341 338 337 336 335 333 331 329 327 328 329 331 329 327 324 320 317 310 316 311 317 311 309 308 312 311 311 313 312
339 341 342 342 341 341 341 342 343 343 341 340 340 339 339 336 335 330 328 331 332 323 329 329 331 331 329 326 316 315 321 321 311 312 318 318 317 316 315 314 313 311 310
340 341 341 339 338 339 340 341 343 343 341 338 337 335 333 332 331 326 321 300 300 300 300 300 319 321 306 300 298 298 297 295 297 312 314 314 313 313 312 311 309 309 305

GFSMW_sfc_thetae_006.txt.gz
Theta_e
344 348 351 353 354 357 360 362 361 365 367 361 355 355 353 356 358 360 365 365 363 363 363 357 359 359 356 354 352 347 345 338 347 337 339 341 344 344 346 343 336 337 340
343 347 350 352 353 356 360 363 363 365 366 360 360 358 358 356 358 360 363 364 363 364 361 361 358 359 350 353 347 347 340 341 345 337 335 329 335 338 339 338 332 334 334
341 345 347 350 352 354 359 362 365 366 368 367 362 362 362 362 358 359 361 364 364 364 364 362 358 356 347 340 347 346 343 336 345 344 335 328 327 329 336 337 334 334 332
343 345 346 348 350 353 358 363 365 367 367 369 365 366 356 351 351 355 355 360 364 363 363 360 356 350 344 348 346 346 344 343 337 341 341 342 339 327 326 332 333 337 334
341 343 345 347 351 353 356 360 366 368 369 368 371 363 361 354 353 354 361 363 363 363 357 360 352 348 345 349 349 347 346 343 338 336 338 341 336 339 328 322 329 334 335
338 342 345 347 349 352 355 357 364 369 369 368 368 367 364 360 352 356 353 350 351 355 359 358 353 349 347 348 346 346 345 343 342 339 340 333 330 330 328 324 327 327 331
337 339 342 344 348 350 353 355 362 365 367 367 366 366 365 364 362 360 353 352 346 348 354 358 353 347 350 348 347 345 343 343 341 343 337 337 335 334 331 328 326 325 330
337 338 341 344 347 349 352 355 359 363 365 365 367 370 368 363 361 361 353 349 346 346 352 357 352 349 348 348 345 340 340 342 340 342 342 336 336 334 333 330 329 326 327
338 338 341 344 347 349 353 358 362 362 363 363 365 367 369 366 362 364 362 353 356 347 353 354 350 346 347 345 344 338 340 340 341 339 341 339 334 334 334 334 334 330 322
338 338 340 343 346 349 352 355 358 361 362 362 363 363 364 366 365 364 363 361 357 356 352 351 346 346 345 343 344 340 341 340 335 333 338 340 336 336 336 336 334 333 329
338 340 340 343 346 348 350 353 356 358 359 361 364 363 362 363 365 364 364 363 361 355 352 350 346 344 343 343 343 343 339 338 338 338 339 341 344 337 334 334 333 331 330
339 342 343 344 345 347 348 350 353 355 358 362 365 361 362 362 362 365 362 360 360 353 351 348 345 346 343 343 343 340 338 337 336 337 340 340 338 341 342 336 338 335 335
339 342 343 345 346 347 350 350 352 353 355 359 359 360 360 361 362 363 361 361 354 347 344 343 344 345 343 343 344 343 341 339 338 339 339 339 340 340 336 337 333 331 331
339 342 343 346 348 351 356 356 352 354 355 356 358 361 360 360 361 361 353 348 348 344 340 341 342 341 344 344 343 342 342 339 337 339 340 340 340 339 339 336 337 337 333
338 341 343 349 354 355 357 356 355 356 357 357 357 359 362 362 360 358 352 346 345 343 335 339 337 341 343 338 342 341 339 339 339 340 340 342 341 337 336 334 338 337 331
338 342 345 348 351 352 354 355 356 356 359 359 358 361 362 361 359 355 350 347 344 341 339 336 336 337 338 330 330 337 339 340 340 340 342 344 340 337 332 330 329 330 331
338 340 344 347 351 352 355 354 356 358 357 358 359 360 361 358 355 352 349 345 343 341 340 340 338 338 341 327 327 331 338 339 340 343 342 340 335 336 339 331 327 327 325
339 341 343 347 350 350 351 353 354 356 357 358 358 359 358 355 353 351 347 345 340 340 342 342 341 340 341 327 325 330 340 342 343 342 340 339 335 336 336 336 333 332 333
342 343 344 347 349 348 350 351 351 353 354 354 355 356 355 352 348 347 347 347 342 341 343 344 343 342 342 321 321 329 340 340 341 337 337 336 336 327 321 329 329 330 330
340 341 342 345 345 346 348 348 348 351 352 354 355 355 354 352 349 348 348 347 345 343 341 342 343 336 344 319 318 326 337 338 335 332 334 323 327 316 315 326 327 326 327
342 343 343 342 345 346 347 347 348 349 353 355 356 354 353 352 352 350 347 346 344 342 344 341 343 343 336 339 315 316 336 332 332 332 337 336 315 312 310 310 325 323 321
339 340 343 345 348 350 351 350 351 355 356 356 354 350 351 348 349 348 344 341 342 342 341 343 343 344 345 323 315 313 317 326 334 337 333 323 308 307 308 311 311 310 310
338 341 343 347 350 353 353 352 356 356 355 350 346 348 349 346 345 342 338 338 341 339 338 339 338 343 340 328 313 311 311 316 332 335 313 307 305 304 305 310 311 308 319
340 342 343 345 348 351 352 354 352 353 353 349 349 345 343 344 343 341 341 340 338 337 341 340 334 333 334 332 330 322 324 312 321 312 320 316 311 308 311 315 313 319 320
342 342 343 346 347 350 350 351 350 349 346 345 345 342 341 340 342 334 326 337 331 325 335 333 331 328 334 331 320 320 329 328 316 322 324 322 322 320 321 321 320 319 316
344 345 346 347 348 349 349 350 348 349 346 342 341 341 342 342 340 336 330 299 302 301 301 300 317 324 309 301 298 297 297 300 301 316 320 319 319 318 318 318 316 315 311

GFSMW_sfc_thetae_009.txt.gz
Theta_e
343 346 349 350 351 353 356 361 363 371 364 358 362 356 353 357 355 355 367 366 364 366 363 359 360 359 358 357 351 346 346 339 344 337 338 339 342 342 342 338 336 338 338
339 344 348 349 350 353 357 365 366 372 369 361 363 361 356 354 354 357 367 364 364 365 363 364 358 359 351 352 348 347 340 339 342 336 334 330 336 344 337 336 334 335 335
335 341 345 348 350 352 358 364 370 372 372 370 367 365 367 360 359 356 359 361 363 363 365 362 362 358 351 337 348 346 343 336 342 345 335 328 327 333 338 338 334 335 333
338 340 345 348 349 353 357 366 371 373 372 374 365 368 356 350 349 352 353 358 365 362 363 363 357 355 345 353 347 344 345 344 338 338 338 340 338 328 326 335 335 335 333
338 339 343 347 350 352 354 362 372 374 375 373 370 361 360 352 352 350 365 368 369 360 357 357 355 351 342 350 350 346 347 345 338 336 335 342 334 337 327 324 328 333 334
338 341 343 347 348 351 354 360 371 374 375 375 369 370 369 362 352 353 352 353 353 355 358 355 356 352 348 349 347 348 347 345 344 340 340 334 330 330 329 325 329 327 331
337 339 342 344 349 353 356 360 369 373 374 371 371 371 371 372 368 363 354 358 347 349 361 360 357 350 351 350 349 349 347 344 341 344 338 342 336 334 331 328 326 326 330
339 337 341 345 351 352 358 360 365 371 374 372 373 374 374 360 358 363 356 350 348 350 364 357 355 352 349 349 349 342 340 346 341 342 346 337 338 337 333 330 331 328 327
338 338 339 342 348 351 357 361 365 369 371 366 374 374 373 371 361 366 368 356 360 350 353 355 354 352 347 349 348 340 345 343 343 344 346 340 336 334 333 334 340 333 323
337 339 339 341 346 348 354 360 364 368 367 369 370 368 370 373 372 374 370 365 362 362 358 357 354 350 350 350 350 345 346 344 339 336 345 345 336 337 335 337 334 332 327
336 339 340 341 344 346 351 354 359 364 366 368 368 369 367 369 372 370 370 370 366 365 360 359 356 350 348 348 350 347 344 344 345 345 341 343 347 337 334 333 333 330 331
335 339 341 342 343 346 346 349 352 354 361 365 369 369 370 369 368 370 371 371 367 366 361 358 354 350 345 341 348 344 343 339 339 340 343 341 338 347 348 336 345 340 339
333 338 340 342 343 345 348 346 351 349 353 362 362 366 366 368 368 370 370 371 369 365 358 358 355 348 348 348 349 348 342 342 342 342 343 342 345 346 339 343 337 335 337
337 338 341 345 347 350 352 351 350 348 351 355 356 363 366 367 367 370 370 370 368 366 359 356 352 350 348 348 347 347 346 346 345 344 344 344 343 344 345 342 345 341 336
337 340 342 351 355 355 356 356 353 355 354 359 358 362 369 369 369 369 370 369 368 364 358 355 350 348 344 342 347 344 343 344 343 343 342 344 343 339 339 339 338 341 334
330 340 344 347 355 357 359 359 358 359 359 363 362 366 371 371 370 370 371 367 363 360 356 349 344 341 338 331 333 341 339 346 344 341 345 346 341 338 333 333 332 331 334
330 339 343 347 352 352 360 360 362 362 363 366 368 370 374 371 371 369 365 361 356 357 352 347 339 339 344 328 328 332 340 342 344 346 344 341 339 337 338 333 329 328 327
332 337 342 348 355 353 354 359 359 366 367 369 369 371 373 370 369 365 361 356 354 353 349 344 343 344 345 328 325 331 341 342 342 346 347 347 344 341 339 338 333 334 338
332 339 345 349 359 357 361 362 358 362 362 362 365 367 366 365 363 359 357 354 351 350 345 342 341 344 346 323 322 330 341 339 344 346 346 344 342 333 324 333 329 329 331
333 343 346 351 354 358 356 356 355 356 357 360 360 365 366 362 358 358 356 354 354 349 345 342 344 339 346 321 319 328 336 337 339 342 346 327 332 318 318 330 328 329 331
343 348 350 354 357 359 354 356 355 353 355 357 358 361 360 360 359 356 357 354 352 348 345 342 346 349 345 343 316 316 336 338 337 338 337 336 316 314 312 313 328 326 323
344 345 349 351 353 356 356 357 357 361 363 362 359 359 359 355 353 352 353 351 348 345 345 346 346 345 350 326 316 314 315 326 336 339 337 335 314 314 311 312 315 313 312
344 345 345 350 351 358 359 358 365 365 363 360 359 357 354 353 353 353 348 343 344 341 342 339 342 346 349 342 316 313 314 316 328 331 313 312 309 308 307 308 313 311 318
343 344 345 348 351 357 356 360 360 360 359 354 350 350 349 347 347 346 343 340 339 340 342 341 342 342 341 339 334 325 327 316 320 317 322 318 316 311 315 316 315 319 321
344 346 346 347 349 353 355 354 356 357 353 353 350 348 346 345 341 336 334 339 333 330 338 339 340 335 331 333 322 321 327 331 322 327 328 325 324 323 323 322 322 321 322
343 346 346 348 350 351 352 353 354 354 350 347 346 344 343 342 340 334 325 300 303 300 299 302 317 327 308 301 299 298 300 302 305 322 322 321 321 320 320 321 321 320 317

GFSMW_sfc_thetae_012.txt.gz
Theta_e
340 344 346 347 349 354 358 359 360 368 367 364 357 358 359 358 359 361 367 364 368 369 370 365 363 359 360 346 351 352 347 346 347 342 339 342 344 344 344 337 337 338 340
337 342 345 346 348 352 356 361 361 368 367 365 363 361 360 360 356 361 364 367 367 369 363 363 363 359 358 355 351 349 345 344 348 339 338 330 335 338 335 337 334 335 337
333 340 344 345 349 351 357 360 363 366 365 367 364 364 363 366 360 361 364 365 367 365 358 364 364 362 356 351 352 350 348 340 346 345 339 331 327 334 339 338 335 335 335
335 339 343 346 348 351 358 362 364 365 367 366 363 360 354 355 357 356 359 363 366 366 367 366 363 360 355 355 352 350 346 348 339 343 342 341 338 330 328 337 336 337 335
335 336 342 346 349 353 356 360 366 366 366 366 364 361 360 356 358 358 367 363 365 365 362 365 362 357 351 357 351 349 347 348 344 340 342 342 340 338 328 325 331 335 336
337 338 343 347 348 352 356 357 365 366 367 368 364 366 358 356 356 357 359 359 361 361 365 360 359 357 351 354 352 352 351 347 348 344 344 340 336 331 333 330 329 328 333
337 338 340 344 348 350 354 358 364 364 367 367 365 364 365 361 362 369 360 357 354 355 360 360 357 354 354 356 353 352 351 348 345 347 342 339 338 339 337 331 329 328 333
337 339 341 344 348 349 354 357 361 363 367 365 367 367 366 364 362 363 362 359 356 354 357 356 355 356 352 352 352 349 344 347 345 343 345 342 341 340 335 334 331 326 328
338 338 342 344 349 350 353 356 362 364 367 367 368 367 367 365 363 363 363 363 360 362 355 355 357 353 352 352 353 344 344 348 348 346 344 342 339 339 339 339 336 331 323
338 339 340 345 348 351 353 357 361 364 368 368 367 367 367 366 363 364 364 359 362 360 358 356 355 353 350 347 349 343 348 344 344 343 343 342 341 341 340 336 335 335 329
333 338 340 342 348 351 352 355 357 363 366 367 367 367 367 367 364 366 363 364 361 359 358 356 354 352 349 349 348 345 342 343 342 342 343 341 344 340 338 341 338 334 332
333 337 341 341 344 347 350 353 357 360 364 366 366 366 367 367 366 363 366 364 365 362 358 357 354 352 346 348 344 341 340 343 341 341 341 340 339 342 342 341 338 337 338
343 337 339 341 342 344 347 351 355 357 362 364 363 364 364 365 365 366 364 368 364 361 356 357 354 351 345 346 344 342 342 342 339 340 340 338 341 342 341 340 338 336 336
340 340 340 343 343 345 347 349 353 355 358 361 361 362 362 364 363 366 366 365 365 361 360 356 354 352 346 345 343 344 344 343 340 343 342 341 338 341 341 339 340 339 337
338 343 346 347 346 347 348 349 350 352 353 357 358 360 364 364 365 364 366 366 365 364 362 359 354 353 347 343 345 345 344 343 340 345 342 343 344 341 340 341 338 339 335
333 340 344 354 354 349 348 348 349 349 352 353 355 359 362 364 363 365 364 366 366 366 363 359 353 351 346 333 335 343 343 344 340 341 343 343 340 337 334 331 332 336 334
332 342 345 347 353 353 352 349 349 352 351 355 356 357 361 363 364 364 364 365 365 365 361 359 353 348 346 329 329 335 342 338 339 344 342 341 338 340 341 332 330 330 329
331 334 338 347 353 354 353 355 353 354 354 360 358 360 363 364 365 365 364 366 365 362 359 355 347 344 342 329 327 330 337 337 340 342 343 341 338 341 340 339 337 334 332
337 335 332 347 353 354 356 358 355 354 360 357 366 363 371 367 367 366 365 365 361 355 352 348 341 340 343 327 323 326 336 335 338 342 340 340 341 333 325 336 333 331 333
331 337 334 350 356 357 357 357 358 357 355 362 364 371 371 369 367 367 363 357 353 351 350 343 341 336 342 326 321 324 337 335 338 342 340 328 335 323 320 332 331 328 329
333 352 354 352 357 359 359 357 359 359 361 366 366 369 370 369 368 366 358 352 352 354 347 342 342 343 340 342 316 317 339 339 339 338 337 340 321 316 316 317 331 326 320
342 353 355 358 361 361 361 360 361 365 367 366 365 366 367 361 361 358 353 353 350 346 344 342 341 344 348 325 315 315 318 328 337 340 338 336 313 311 315 313 315 313 314
351 350 356 359 361 365 361 359 363 363 362 361 362 362 361 358 356 352 351 349 349 344 341 342 341 345 347 343 314 314 314 317 325 336 323 313 312 316 311 311 313 314 317
350 351 352 353 355 359 361 363 363 364 362 360 357 355 351 349 351 350 349 345 343 342 342 342 345 344 343 338 334 330 322 317 320 317 317 317 316 316 318 317 311 316 319
349 351 351 353 356 361 359 361 363 361 354 352 350 347 345 345 340 326 332 342 325 325 344 344 342 338 336 336 326 325 329 328 322 322 324 321 321 321 320 319 320 320 320
345 346 350 352 353 355 356 358 360 356 353 348 346 343 343 340 337 330 323 301 302 300 300 303 327 320 308 303 301 301 301 303 311 325 329 326 325 323 324 320 321 319 319

GFSMW_sfc_thetae_015.txt.gz
Theta_e
335 340 341 342 345 350 349 349 349 352 352 353 350 349 350 351 347 351 352 355 355 356 354 352 350 353 348 343 345 339 331 333 334 328 330 332 336 331 327 328 327 329 335
332 337 339 341 343 347 348 348 348 357 354 354 352 351 350 352 350 351 356 354 356 356 352 351 350 350 346 341 336 333 331 333 335 325 326 324 330 333 329 326 325 327 332
330 334 336 339 341 345 348 349 349 357 357 356 353 352 353 352 351 350 357 357 358 357 352 353 351 346 340 338 335 334 333 328 335 331 327 320 319 329 329 329 324 327 324
332 334 337 338 340 345 350 351 352 357 355 356 352 348 345 343 347 352 353 357 358 355 353 352 352 346 342 339 336 337 332 334 327 334 332 328 325 320 322 330 326 329 325
330 333 337 339 342 346 348 354 353 354 356 356 352 351 347 347 350 349 350 354 355 355 356 354 350 341 336 340 338 334 332 335 333 330 332 332 328 326 318 316 324 330 330
329 334 338 340 340 346 350 354 354 354 357 354 354 353 350 348 345 344 351 353 352 352 355 353 345 340 337 339 337 336 335 333 333 330 331 330 323 323 321 319 317 320 326
329 329 335 339 340 344 348 353 354 353 357 355 353 354 351 350 346 348 350 351 351 348 351 349 343 340 337 342 340 339 335 333 331 332 329 331 328 326 324 319 319 318 323
330 330 335 338 340 343 348 352 354 353 357 358 356 353 356 352 350 350 351 351 351 350 350 348 344 341 338 344 341 338 335 336 333 330 330 330 329 329 325 326 321 316 318
329 331 334 337 340 342 348 349 355 355 357 357 359 356 355 356 354 352 351 350 348 349 349 349 345 343 340 338 340 337 334 335 334 329 330 329 328 329 329 326 324 319 314
329 332 333 337 341 343 347 350 356 356 358 356 360 359 357 356 355 355 351 353 348 350 348 349 346 346 341 340 341 335 337 334 335 334 332 330 329 330 329 328 325 325 320
328 332 334 338 342 344 347 349 353 356 357 359 358 360 359 358 356 356 353 351 351 348 348 348 348 344 342 342 340 334 334 336 331 333 330 333 331 329 327 330 327 324 323
329 333 335 336 341 343 344 348 355 356 358 360 359 359 360 360 357 355 354 354 350 351 350 348 347 345 342 340 340 335 335 332 334 332 331 329 334 329 329 333 329 329 328
324 333 333 337 341 343 343 347 352 357 359 361 360 359 358 359 359 356 356 356 356 352 350 350 346 345 343 340 340 336 332 334 334 334 333 331 331 328 331 333 332 328 329
323 328 333 337 339 343 344 345 350 356 359 361 360 358 358 358 359 359 356 357 357 355 348 348 348 346 344 340 340 336 334 335 335 334 335 334 332 331 332 332 331 331 328
324 327 332 334 338 341 343 345 348 351 357 358 358 357 358 359 359 359 359 357 356 355 353 347 348 346 343 340 337 337 336 335 334 334 337 336 337 336 334 333 330 331 329
329 331 333 334 335 338 341 344 346 349 353 355 355 356 357 357 357 358 358 359 356 356 353 351 348 346 346 335 335 338 337 337 335 334 338 336 338 337 335 335 334 334 329
326 330 331 336 336 338 340 342 346 348 350 352 354 354 354 355 356 357 357 357 357 358 356 354 350 346 347 332 330 336 338 336 336 337 337 337 337 335 332 331 330 329 329
325 331 335 338 340 341 341 344 345 346 347 347 351 353 354 354 356 356 357 356 358 357 357 354 348 347 342 329 328 331 334 333 334 338 338 335 334 333 335 332 329 328 329
322 321 331 337 344 343 343 342 342 344 344 344 346 350 352 354 355 356 356 357 357 357 354 349 343 339 338 325 324 327 331 331 331 335 336 335 334 329 323 330 329 329 328
320 321 325 336 342 345 345 342 341 343 341 343 348 350 351 354 356 357 356 355 356 348 348 342 340 333 336 324 321 322 330 330 328 329 335 329 331 322 322 329 327 323 323
320 322 329 338 341 345 347 344 343 341 347 345 358 354 358 360 359 358 354 349 348 348 343 339 338 336 336 332 318 317 331 332 331 329 329 330 322 320 317 318 325 325 315
334 327 338 340 346 346 349 347 346 350 353 359 361 361 362 362 356 351 347 345 347 344 340 338 337 339 335 328 316 315 317 328 330 328 330 328 318 312 315 318 316 311 313
346 348 350 351 353 351 352 352 355 357 357 358 357 356 354 351 349 346 345 344 342 341 338 337 335 333 337 330 316 313 313 317 324 327 321 313 312 313 314 314 313 313 310
344 348 348 348 350 353 354 354 354 356 356 353 350 350 349 346 347 345 344 343 340 339 338 337 333 333 332 327 321 320 318 318 318 317 315 316 315 314 313 311 310 308 308
342 347 348 349 350 352 353 354 355 354 350 347 344 344 344 337 321 312 317 331 315 325 334 335 334 332 331 330 322 320 321 319 315 316 314 311 310 309 309 311 312 312 312
342 347 348 348 349 351 351 350 350 348 345 341 340 340 334 329 325 321 314 301 301 300 301 308 321 312 314 308 306 307 309 308 308 316 315 312 313 313 314 313 312 314 316

GFSMW_sfc_thetae_018.txt.gz
Theta_e
336 338 340 342 344 346 347 349 347 348 349 350 346 344 343 346 347 350 348 352 353 355 350 348 349 349 345 341 340 336 329 329 331 323 326 330 331 326 326 325 330 336 339
334 335 337 340 341 345 347 348 347 347 347 350 349 346 346 348 348 346 348 352 352 352 351 349 347 347 341 338 333 330 328 330 330 323 323 321 328 328 326 322 330 331 336
332 334 335 339 341 344 346 346 348 348 347 349 349 347 349 350 347 346 349 352 352 353 352 349 348 346 343 337 332 331 329 325 330 327 324 318 318 327 328 323 323 324 325
332 334 336 336 340 343 346 347 350 350 350 351 349 346 345 344 345 345 350 352 353 353 350 350 348 339 340 334 333 335 332 328 325 330 329 325 323 319 318 325 322 323 322
331 331 335 337 339 344 345 346 347 352 353 352 350 348 344 345 344 346 347 350 353 353 352 350 348 339 338 336 334 332 330 332 328 327 328 326 325 319 316 316 320 325 325
331 332 336 338 338 342 345 346 345 351 353 352 350 347 345 343 342 343 344 349 352 352 351 351 347 338 336 337 334 331 330 332 332 329 329 327 320 320 318 316 315 317 323
329 331 332 335 337 338 343 346 346 345 352 351 350 349 347 346 343 342 345 347 349 347 350 348 341 337 333 335 334 333 332 330 329 325 326 328 325 324 320 315 316 315 320
329 330 332 335 336 338 343 347 346 346 350 352 350 350 349 348 348 345 347 349 350 350 351 348 343 337 336 337 335 334 333 331 329 331 328 327 326 326 322 319 318 313 315
327 329 332 335 337 338 343 346 348 348 351 351 351 352 351 349 348 346 349 349 350 350 349 348 342 338 335 339 337 334 332 334 330 328 326 327 325 326 326 325 321 316 311
328 329 330 334 338 339 344 347 350 349 351 353 351 351 352 353 351 348 348 349 348 349 348 346 342 339 336 337 337 334 332 330 332 330 326 326 326 326 327 325 322 320 316
327 329 330 333 337 340 344 347 349 349 351 353 353 352 351 350 353 352 351 350 348 347 347 346 343 340 338 335 338 333 333 330 330 332 330 329 327 326 325 327 324 321 324
328 328 330 331 335 339 342 346 350 350 351 354 354 354 354 353 351 351 353 351 349 346 347 346 344 342 340 338 336 334 334 332 329 329 329 328 331 328 326 326 326 324 325
324 325 328 330 334 338 340 345 349 351 353 354 353 355 355 354 353 351 352 352 350 347 346 346 345 342 342 339 338 336 333 331 332 331 329 328 327 327 328 328 326 327 327
322 323 329 331 335 338 340 344 346 353 354 354 354 353 355 355 355 354 353 352 352 347 347 346 345 345 342 340 339 337 334 332 331 332 332 330 330 330 328 330 327 327 328
321 326 327 331 335 338 340 344 347 351 354 354 354 354 356 357 356 356 354 352 353 352 347 346 345 344 343 342 338 337 335 333 332 332 332 332 335 335 331 330 328 327 328
318 323 329 333 334 338 340 342 345 351 354 354 354 356 356 356 355 356 356 353 352 352 348 345 345 343 344 336 334 338 337 335 333 332 331 332 337 335 332 331 331 331 328
319 325 329 332 335 339 341 341 345 350 353 354 355 356 356 355 355 356 355 355 352 352 350 346 345 344 345 332 330 335 336 336 336 332 332 333 338 334 334 331 330 327 327
317 324 330 332 336 340 342 343 344 347 351 353 354 356 355 354 355 355 355 355 356 352 352 350 347 346 346 331 327 333 339 337 337 336 334 334 335 332 331 330 327 326 329
319 320 330 332 335 337 341 342 343 345 347 350 352 354 354 353 354 353 354 355 356 355 354 355 350 347 345 325 323 330 336 335 335 335 336 334 332 326 324 330 326 328 330
314 317 327 336 334 336 339 340 341 343 344 347 350 353 354 352 352 353 354 355 356 356 356 351 349 341 337 320 320 328 332 330 331 331 332 327 331 322 319 329 327 325 325
315 316 316 328 341 338 338 338 340 341 345 347 348 350 352 352 353 354 355 354 355 352 348 342 338 339 337 330 319 317 329 328 329 329 331 332 319 315 315 319 326 324 322
324 319 313 316 327 341 339 337 337 342 344 345 344 346 349 351 353 354 354 353 349 345 339 337 336 336 335 324 317 315 317 326 331 331 330 326 314 311 312 317 317 315 314
339 341 318 319 325 337 342 337 338 339 342 341 345 347 349 353 355 352 349 347 344 341 338 336 335 335 334 328 317 313 313 318 327 327 322 313 309 309 314 315 316 311 309
333 342 344 342 341 341 343 342 343 348 348 348 354 355 353 351 351 349 347 345 340 338 336 334 335 333 330 325 322 318 316 315 321 319 316 315 314 313 313 312 311 309 307
318 321 332 343 345 349 349 352 351 355 353 352 351 349 346 341 328 317 330 338 329 336 337 334 333 331 329 327 319 317 321 319 315 314 313 313 313 314 309 308 308 307 307
321 320 316 317 316 319 349 352 352 351 348 345 342 336 331 329 325 322 315 304 304 304 309 312 324 319 314 307 303 301 301 303 306 313 310 310 309 309 309 308 308 310 312

GFSMW_sfc_thetae_021.txt.gz
Theta_e
336 339 340 341 340 344 344 345 346 348 348 347 346 343 344 344 345 346 348 350 351 352 347 345 347 345 342 341 338 335 328 326 328 321 322 328 326 325 323 327 338 339 341
335 337 338 340 340 342 344 345 345 346 347 347 349 346 343 343 345 347 346 350 352 352 348 346 346 346 343 338 336 329 326 328 327 321 320 319 325 324 323 323 334 336 339
332 335 335 336 340 340 344 345 345 346 346 347 347 344 345 346 344 343 344 347 350 351 352 347 346 345 340 336 331 329 327 324 328 325 323 318 317 321 324 321 327 329 331
333 333 335 335 338 341 344 346 346 346 346 347 346 345 343 341 343 344 346 347 349 351 350 348 346 344 343 336 332 332 328 326 326 328 327 322 322 317 314 322 321 321 322
333 333 333 336 338 341 343 346 346 346 346 346 346 345 342 342 343 344 345 347 348 349 350 348 346 338 338 336 333 331 330 328 324 325 325 323 323 316 316 313 318 323 322
332 334 335 336 338 341 344 345 345 345 346 346 346 345 343 341 340 341 342 344 348 349 349 348 346 339 336 334 333 331 329 331 329 328 328 325 318 319 316 315 315 316 320
330 331 332 334 335 339 342 344 343 345 347 346 346 346 345 343 342 341 344 343 346 346 347 347 345 338 335 336 333 330 328 330 329 326 326 326 324 322 319 314 314 314 317
328 330 331 333 336 337 341 342 342 345 347 348 347 347 347 345 344 342 343 345 348 349 350 349 347 340 334 335 333 331 330 329 328 326 326 326 325 323 320 317 317 313 314
327 329 331 332 335 336 339 342 342 343 349 349 349 348 347 346 345 343 344 345 348 349 348 349 346 340 335 334 333 331 330 330 327 327 328 326 324 326 324 323 318 315 310
326 329 330 332 334 336 338 342 343 342 345 349 349 348 348 348 347 346 345 345 348 348 347 348 345 341 335 336 334 331 330 331 329 328 324 324 324 324 325 322 320 317 314
325 327 329 332 333 336 337 341 343 343 343 347 349 349 348 348 347 346 346 347 348 347 347 347 345 341 336 335 335 333 332 329 329 329 327 325 325 324 325 324 322 320 318
326 327 329 330 331 334 336 340 343 344 344 347 348 348 349 349 349 348 347 348 347 347 347 346 344 341 338 334 336 334 334 331 327 328 328 328 329 325 324 323 324 323 320
324 325 323 325 329 333 336 340 343 345 346 347 348 348 347 348 348 350 349 349 348 346 346 345 344 341 339 336 334 335 334 333 331 328 328 328 327 324 327 325 325 326 325
324 322 321 324 329 333 336 339 343 346 347 348 349 348 349 349 348 349 349 350 350 346 345 345 345 343 342 339 337 335 334 333 333 333 330 328 328 326 327 327 327 325 326
324 321 325 324 328 331 336 339 343 346 347 347 348 349 350 351 351 350 349 349 349 349 345 344 344 344 342 341 338 337 335 334 333 331 332 331 331 333 331 327 325 328 324
323 324 326 327 328 332 335 338 342 345 348 348 348 349 351 352 351 352 351 349 348 349 346 344 343 342 344 335 334 338 337 335 333 330 332 333 335 334 332 330 330 330 326
318 317 323 325 328 331 336 337 341 344 348 348 349 350 350 351 352 352 352 350 348 349 345 345 344 342 343 331 331 335 338 334 333 334 334 333 335 333 334 330 329 329 328
315 316 320 322 326 332 337 339 341 344 347 348 349 350 351 350 352 352 352 352 350 349 348 345 344 344 344 330 327 332 338 336 336 336 334 333 332 332 331 331 328 326 327
316 317 322 325 328 331 336 338 340 342 346 347 349 350 352 351 351 351 352 353 352 349 349 348 346 345 344 325 324 328 338 336 336 336 337 334 331 328 325 330 328 325 326
311 317 323 326 326 332 336 338 338 341 344 348 349 352 353 353 352 352 352 354 354 353 351 350 350 340 345 322 320 329 337 335 335 334 334 328 331 321 319 331 328 324 326
311 311 316 328 329 332 337 337 338 339 344 349 351 352 354 353 353 353 353 354 353 354 353 353 351 345 337 326 317 323 336 335 332 329 326 328 320 315 314 318 327 326 322
338 335 312 311 323 329 334 336 337 341 343 346 348 350 352 353 353 352 352 353 353 353 352 347 343 342 333 320 317 320 322 324 327 326 330 330 317 309 309 314 316 312 316
332 339 338 330 320 322 332 332 337 340 341 342 344 346 350 352 352 351 351 352 353 351 344 342 340 336 336 331 316 314 314 318 327 331 326 315 309 306 310 313 313 312 313
318 326 329 332 327 331 336 334 335 336 338 340 342 344 347 349 350 352 353 352 351 346 342 341 336 334 332 327 324 320 315 315 322 318 315 315 314 314 315 314 312 311 308
318 317 325 325 321 319 322 324 331 335 335 338 340 342 346 347 348 327 340 350 339 338 340 339 337 334 330 327 321 319 321 323 319 316 315 314 313 312 310 308 308 308 307
319 319 318 320 323 324 325 326 324 343 338 339 345 347 346 332 327 325 320 312 312 315 314 314 322 327 315 307 305 303 303 303 306 314 314 312 311 311 309 308 307 307 309

GFSMW_sfc_thetae_024.txt.gz
Theta_e
335 337 338 341 342 343 344 345 346 348 347 345 345 344 344 345 347 348 350 351 352 353 352 350 350 348 348 347 345 340 337 333 333 330 331 334 331 330 330 340 345 347 348
334 336 337 338 339 341 343 345 345 347 348 348 347 347 347 345 348 349 350 351 352 353 351 349 349 348 348 345 342 338 333 332 331 329 327 327 330 331 329 334 339 342 345
333 334 336 337 338 339 342 344 345 347 348 348 348 345 346 346 345 346 348 348 353 353 353 349 350 349 348 344 341 336 334 331 335 331 330 324 324 327 330 330 332 337 339
335 335 336 336 338 338 343 345 345 346 347 348 346 346 344 342 344 345 347 348 351 352 353 352 350 349 347 342 340 336 334 333 333 333 330 329 330 324 323 329 329 329 331
335 335 336 337 339 340 341 344 345 345 346 347 347 346 345 345 344 346 346 347 349 351 352 352 350 348 347 345 340 336 336 333 333 332 330 329 326 324 323 321 325 329 330
333 335 337 339 338 340 341 343 344 344 346 346 346 345 344 342 342 344 344 346 349 350 351 351 350 348 344 344 340 338 337 336 334 333 333 331 327 325 323 322 323 324 329
333 333 334 334 337 337 340 342 343 343 345 344 345 345 345 344 343 343 345 345 347 349 349 350 349 346 342 342 339 337 335 336 335 334 333 332 330 328 325 323 321 323 325
332 333 334 334 335 337 339 342 342 343 345 345 344 346 346 345 344 344 345 347 348 350 352 350 350 347 343 341 339 336 334 336 335 333 333 332 331 329 327 325 325 322 322
329 331 334 335 335 337 338 341 343 343 344 345 345 345 346 346 345 345 346 347 349 351 351 351 350 348 342 341 339 336 335 335 334 334 334 332 331 332 330 327 327 326 320
326 329 331 333 335 336 339 342 343 342 345 346 346 346 346 347 347 346 344 345 347 350 351 351 350 347 343 340 339 336 336 335 333 333 333 332 331 331 331 329 328 325 325
324 327 329 332 334 336 337 340 342 342 343 347 347 347 348 348 347 346 346 346 347 349 349 351 350 347 343 340 338 337 336 335 335 335 332 331 332 330 330 330 328 326 324
324 327 328 330 332 333 335 337 341 342 343 347 348 348 348 348 347 347 347 348 347 349 349 350 349 347 343 341 339 337 337 335 334 334 333 332 330 331 331 329 331 329 329
323 324 326 328 330 331 334 336 339 341 343 344 347 347 348 347 347 347 348 348 348 348 349 349 348 346 344 340 341 340 338 337 336 335 335 333 332 331 331 331 330 330 329
320 323 323 326 329 331 334 335 338 341 343 343 345 346 347 347 348 348 349 348 349 348 349 349 348 346 345 342 340 340 339 338 338 337 335 334 333 332 331 332 333 333 332
320 320 322 324 326 330 333 335 338 341 344 343 343 345 347 348 349 349 350 350 349 349 348 348 348 347 345 344 342 340 339 338 338 337 336 336 335 334 332 332 333 334 331
319 322 323 325 326 329 333 336 338 341 344 344 343 346 347 347 347 348 349 350 350 350 348 347 347 346 346 336 334 340 340 339 337 335 336 338 335 334 330 330 330 333 331
312 319 323 325 326 329 334 335 338 342 343 344 345 347 348 348 348 349 348 347 347 349 347 347 347 346 347 330 331 335 342 340 339 337 335 334 337 335 336 330 329 329 328
313 317 322 325 328 329 331 335 338 342 344 344 345 347 348 348 349 350 349 349 349 347 348 347 347 346 346 329 327 333 343 341 340 339 337 337 337 336 335 335 334 334 334
312 316 320 322 326 326 330 334 337 341 343 344 345 347 349 348 349 349 349 350 350 349 348 349 347 346 346 326 324 330 341 339 338 338 338 338 337 328 325 336 334 333 331
312 314 317 321 322 326 332 335 336 339 341 345 347 349 350 349 349 350 351 352 352 350 350 349 348 342 347 322 322 329 341 339 337 338 338 328 334 321 320 336 336 333 329
319 315 320 323 326 329 333 334 336 337 341 345 348 350 351 351 350 351 352 353 353 352 350 350 349 349 346 341 319 320 341 341 337 337 336 336 321 316 313 321 334 329 329
339 337 320 318 319 330 334 335 335 340 343 346 348 349 351 352 353 351 352 352 352 351 350 349 349 350 350 330 316 317 327 331 338 336 335 333 315 312 310 315 319 314 320
332 338 334 330 329 334 332 331 333 339 342 344 346 349 351 353 353 352 351 351 352 351 349 348 347 346 344 325 315 317 320 321 334 335 328 315 307 306 310 313 312 314 324
318 330 329 326 324 328 331 330 334 343 339 340 343 346 350 350 353 353 353 352 351 349 348 348 347 344 334 331 327 329 324 319 326 320 321 317 317 316 318 317 316 324 321
322 321 321 323 322 325 326 328 329 340 342 336 340 343 347 347 352 333 340 351 353 348 351 347 344 336 334 333 323 322 325 326 321 319 322 321 321 319 319 319 318 318 317
324 324 326 326 325 325 326 326 327 335 345 341 337 340 345 348 329 325 318 305 312 313 310 313 328 327 315 307 306 308 305 304 306 323 324 322 321 320 318 316 315 315 314

GFSMW_sfc_thetae_027.txt.gz
Theta_e
340 342 344 346 347 349 351 353 353 356 354 352 349 349 347 349 352 356 359 359 361 362 363 359 361 360 356 358 358 353 349 345 347 341 341 341 343 341 344 351 349 352 352
339 341 343 345 346 348 351 354 355 357 356 354 354 352 351 350 355 359 361 361 361 363 362 362 360 360 356 358 356 353 346 344 346 339 339 332 336 339 339 349 347 349 348
337 339 341 343 345 347 351 354 357 359 359 359 356 354 355 355 355 356 357 359 362 363 364 363 361 361 359 355 357 352 348 341 345 342 338 330 328 336 339 343 346 348 347
339 340 341 342 344 349 351 355 357 359 358 361 357 357 350 347 351 355 357 358 362 362 363 363 362 362 359 359 357 352 349 344 339 341 342 342 341 331 329 336 342 344 342
339 340 341 344 345 348 348 353 358 359 360 361 360 355 355 352 354 354 360 364 363 362 362 363 362 362 359 360 357 352 349 344 341 341 338 340 339 340 334 328 332 339 340
340 342 344 345 345 347 347 350 356 357 360 360 360 360 359 357 352 353 352 353 356 357 361 362 363 363 361 360 358 355 352 348 344 343 342 337 335 332 333 332 333 332 336
339 341 342 343 346 347 349 349 354 354 357 358 358 359 360 360 358 357 353 355 352 353 359 361 361 360 361 360 358 355 352 349 345 347 342 342 339 339 335 333 333 331 334
338 340 343 346 347 348 349 350 351 353 356 356 357 359 360 356 356 358 354 353 353 355 362 361 362 362 361 359 357 353 350 349 347 348 346 342 342 341 338 335 333 329 330
337 339 343 346 346 348 349 350 351 353 355 355 356 357 358 358 356 359 360 355 361 356 360 362 362 362 361 359 356 351 350 348 348 347 346 343 342 342 340 337 336 331 325
335 338 341 344 346 346 349 350 352 353 355 356 356 355 356 358 358 359 358 359 360 361 360 361 362 362 361 359 357 353 351 348 345 344 346 345 342 342 341 340 338 335 332
330 334 340 344 345 345 347 348 350 352 354 355 356 356 356 357 358 358 358 359 361 361 361 361 360 360 360 358 356 355 352 348 348 346 345 345 346 340 340 340 339 337 335
332 333 335 339 341 345 345 347 349 350 353 355 356 355 357 357 356 357 358 360 360 360 362 362 360 360 359 358 356 354 352 349 347 346 345 344 341 343 343 339 342 339 339
331 334 334 337 340 343 345 345 347 348 350 354 354 355 356 355 355 356 358 360 360 360 359 361 361 359 358 358 356 356 354 351 350 348 346 345 344 341 338 339 337 337 339
331 334 334 339 340 342 344 345 346 348 350 351 353 354 355 356 356 357 358 359 360 359 360 362 362 360 358 358 356 355 355 352 351 350 348 346 345 343 341 340 341 341 338
325 329 333 339 342 343 344 345 347 350 351 352 352 354 357 358 358 358 358 359 360 359 361 361 361 361 358 355 356 355 354 353 351 351 349 347 346 340 340 340 343 344 339
324 330 335 337 339 342 343 345 346 348 351 351 350 354 357 358 358 358 358 359 359 359 361 360 360 359 356 341 338 351 353 353 353 351 350 349 342 338 332 332 335 342 342
325 327 334 337 339 340 344 343 345 348 350 351 352 354 356 356 357 358 359 358 358 359 359 359 359 359 360 333 332 338 355 353 353 353 352 348 345 339 342 332 330 331 331
324 328 325 332 341 339 339 345 347 349 350 351 353 353 353 355 357 357 357 358 358 357 358 358 359 359 358 330 328 335 354 355 355 354 353 351 349 345 343 345 341 340 339
326 327 326 329 342 342 344 346 346 349 350 351 353 354 354 355 356 355 356 357 357 358 358 359 359 358 359 326 326 333 351 354 354 354 353 351 349 336 328 343 342 339 341
323 325 327 331 333 341 341 344 344 347 349 351 353 355 357 356 356 357 357 358 358 357 357 358 359 350 359 325 323 331 352 352 350 353 352 330 342 323 321 343 344 341 342
324 325 327 330 335 337 339 344 346 347 350 352 354 357 359 358 358 356 358 360 359 358 358 357 358 358 354 352 320 320 353 351 349 348 344 348 322 316 315 323 346 342 343
341 325 328 334 340 342 342 346 349 351 353 354 356 359 360 358 356 358 357 360 356 358 358 357 354 355 358 334 318 318 329 337 350 344 346 347 317 313 312 320 323 316 327
344 342 340 342 344 346 348 346 348 351 353 355 357 359 361 360 361 360 359 353 351 351 352 350 350 351 351 353 318 315 318 324 345 346 338 321 311 311 314 314 314 316 337
340 339 338 338 339 345 348 349 353 354 353 354 356 358 359 359 361 359 358 355 351 349 347 348 346 348 350 345 329 326 328 324 331 324 322 321 321 321 325 320 321 337 337
333 335 336 336 336 339 339 339 340 351 355 351 351 353 354 354 358 359 358 355 355 352 352 354 349 349 336 330 319 324 330 330 324 322 325 326 327 326 327 331 331 335 331
334 334 334 335 335 337 338 338 340 339 344 346 348 347 348 351 355 354 343 312 311 314 312 316 339 341 318 307 307 308 308 309 313 327 327 329 328 328 329 328 328 330 327

GFSMW_sfc_thetae_033.txt.gz
Theta_e
342 344 346 347 347 349 352 357 359 366 361 356 354 353 350 352 350 350 359 361 361 365 367 362 365 361 362 359 358 355 353 348 345 338 338 340 342 342 341 342 342 343 343
341 342 344 345 346 349 356 361 363 369 366 359 361 357 357 350 349 350 361 360 362 366 366 369 363 364 357 361 361 357 350 344 341 341 336 331 334 337 340 340 339 342 340
341 342 343 344 346 350 356 360 366 368 367 367 363 362 359 356 349 350 352 359 364 365 371 367 364 366 364 365 362 358 355 343 340 350 342 333 330 332 338 341 341 343 339
343 344 342 343 345 349 353 363 367 369 368 370 362 363 351 346 347 351 351 358 367 365 366 367 364 368 362 364 362 359 358 355 341 340 343 350 347 335 332 339 340 342 340
342 343 344 344 346 348 351 358 368 369 369 369 368 359 358 349 349 350 362 366 373 367 363 370 368 369 364 371 364 364 362 353 347 340 339 343 338 343 337 332 339 339 340
341 345 347 346 345 347 350 357 366 370 372 371 369 370 363 360 350 351 351 353 355 362 370 367 373 373 370 366 365 367 364 360 355 345 344 339 337 336 336 334 339 338 342
340 343 345 345 346 348 352 356 364 367 370 371 369 368 370 369 370 365 352 356 352 352 365 372 372 365 373 368 372 371 366 362 357 357 344 343 341 342 338 335 335 334 337
339 342 345 347 349 351 355 357 362 367 370 369 370 371 373 362 360 364 355 354 353 354 368 371 370 370 370 369 373 365 362 365 359 357 356 345 344 343 342 338 335 332 333
337 341 345 347 351 352 356 358 362 366 368 367 369 371 371 370 364 367 369 362 365 356 368 370 370 370 370 372 374 362 367 366 361 360 358 349 342 344 343 341 339 335 329
336 340 344 346 351 352 356 359 361 364 367 366 368 369 371 373 371 372 372 367 368 371 371 367 368 369 371 372 373 366 369 367 358 352 360 358 344 345 344 341 340 338 334
334 339 343 346 350 352 352 356 360 364 366 367 368 368 369 371 373 370 372 373 373 375 370 372 370 369 369 371 372 370 369 366 365 362 361 358 361 342 341 342 341 339 338
333 339 343 345 346 350 351 353 357 357 365 367 368 368 370 370 370 371 371 374 374 373 374 374 372 370 369 370 371 368 361 366 362 360 361 356 349 358 357 343 356 346 349
333 339 341 343 344 347 352 352 356 355 357 363 365 368 367 369 368 371 372 373 374 374 372 373 373 371 369 370 372 371 368 367 366 365 363 360 358 357 347 348 344 342 344
330 335 336 339 344 348 355 357 355 356 357 358 360 364 367 368 369 371 373 373 374 373 372 373 373 373 371 370 370 370 369 368 367 367 366 364 360 356 357 353 352 350 344
328 331 334 339 346 352 357 359 355 359 358 361 361 363 368 370 371 371 372 373 373 373 374 373 372 374 372 366 369 368 368 368 368 368 367 367 361 349 351 350 352 352 345
325 327 329 336 340 347 355 357 360 358 360 363 361 366 369 371 372 373 372 374 373 373 373 372 371 370 368 347 341 360 367 368 368 367 368 367 353 349 339 338 339 350 353
325 326 328 331 338 341 349 352 360 362 360 362 365 365 368 370 372 373 374 372 372 373 372 371 372 371 372 339 335 341 367 367 367 369 368 365 359 354 357 337 335 335 335
326 327 327 330 336 336 340 349 351 364 363 363 363 366 367 369 372 373 372 373 373 372 371 371 373 372 371 339 331 336 363 366 367 368 368 368 364 363 360 358 350 349 349
327 328 329 330 339 335 339 344 350 357 362 363 364 365 368 368 370 370 371 372 371 371 370 372 372 372 371 335 329 334 359 361 363 366 369 368 368 349 336 359 357 352 350
328 329 330 331 332 338 335 336 339 349 360 361 365 367 370 369 369 371 372 373 372 370 368 369 371 360 371 340 327 333 359 359 360 364 368 340 360 336 328 357 357 352 350
338 338 338 336 338 339 337 348 346 346 355 362 366 369 370 371 371 372 373 373 372 369 370 369 370 371 367 368 324 324 361 359 358 358 360 364 331 325 320 333 356 353 355
340 338 338 343 347 343 345 356 356 360 366 365 365 368 371 366 366 372 373 375 372 369 369 368 367 368 371 343 331 321 330 348 359 358 359 361 324 320 317 325 332 323 336
340 335 337 347 343 347 349 355 364 370 369 369 370 370 372 371 371 371 371 366 370 363 363 362 363 363 367 369 328 318 320 326 352 360 348 335 316 316 317 324 321 322 347
343 347 348 346 344 353 356 356 363 365 367 369 371 371 371 369 369 362 364 361 360 360 359 359 359 361 362 363 367 351 335 323 335 332 344 330 328 329 334 327 328 342 345
348 348 350 352 352 357 359 361 362 361 359 360 360 361 359 363 366 367 359 360 364 354 358 359 359 358 358 358 347 349 361 352 342 345 340 337 337 333 331 333 333 337 342
345 348 348 347 348 349 350 352 353 360 362 359 358 356 356 357 359 359 362 322 324 318 309 304 322 352 321 314 310 311 311 314 313 342 338 335 336 333 331 333 333 337 337

GFSMW_sfc_thetae_036.txt.gz
Theta_e
342 345 346 347 348 352 354 354 356 362 358 356 355 355 352 357 359 362 365 367 367 369 372 366 354 364 363 363 362 359 352 348 348 346 343 344 343 342 340 342 341 345 345
339 343 344 345 346 349 353 355 356 361 360 358 358 357 359 356 356 359 366 366 365 372 370 368 365 368 354 364 362 360 353 350 347 345 338 334 338 337 338 344 340 343 342
338 341 343 344 346 349 352 355 357 362 363 361 362 364 364 364 356 354 358 361 366 367 369 368 366 366 364 359 361 361 361 347 346 354 346 332 327 337 341 341 340 342 340
341 341 343 344 345 348 352 357 359 361 363 364 359 360 352 349 352 353 356 358 362 366 366 366 369 368 365 363 364 365 363 357 342 345 348 351 348 335 328 341 341 343 339
341 342 342 344 345 349 353 357 360 361 364 360 364 358 356 353 353 356 359 361 364 367 367 366 370 370 368 365 363 366 364 362 355 345 344 346 347 346 340 332 337 341 343
341 344 345 346 345 349 354 357 360 361 364 363 360 365 357 357 351 352 355 358 363 363 369 367 367 369 368 367 365 368 367 363 361 354 349 344 340 340 339 337 336 337 342
340 344 344 344 345 347 351 354 360 360 362 363 360 359 365 358 361 362 351 354 354 359 363 368 367 365 367 368 368 366 368 364 361 357 352 351 349 348 345 339 337 336 340
338 343 346 346 346 347 350 352 358 359 362 362 363 361 365 361 356 364 355 353 355 356 365 364 366 366 365 366 370 368 365 364 361 361 356 351 351 349 346 342 341 334 336
336 341 346 347 347 347 349 352 356 360 362 361 364 364 360 365 360 361 364 361 360 360 368 365 365 364 367 368 369 362 364 366 362 359 359 354 351 351 349 348 344 340 332
335 341 345 348 349 348 350 352 357 359 362 363 363 364 362 364 365 362 363 360 365 362 373 365 364 365 365 368 367 364 366 363 361 358 355 354 348 347 350 347 346 344 339
334 339 344 347 350 350 350 351 353 359 361 363 363 363 364 362 363 363 365 368 363 372 364 368 365 365 365 365 366 363 363 364 361 357 356 353 353 351 349 347 347 345 343
336 338 343 347 349 350 351 351 353 356 361 364 364 363 364 365 364 362 364 367 369 366 371 368 365 365 364 365 364 363 359 362 360 357 354 354 351 352 353 353 346 344 347
334 337 342 344 348 350 351 352 353 354 360 364 363 363 362 363 364 365 364 365 366 368 365 369 367 364 364 363 364 363 362 358 362 361 357 355 353 350 346 348 347 346 347
335 337 340 344 347 350 352 353 354 355 357 361 362 361 362 363 364 365 367 365 365 365 367 366 366 367 365 364 363 364 364 362 361 363 361 359 355 350 351 347 345 347 345
336 340 340 344 347 350 353 354 355 356 357 357 359 361 363 365 365 365 366 367 366 365 366 366 366 366 366 364 363 363 364 363 361 361 363 362 359 350 348 348 349 344 343
331 335 339 345 353 351 354 353 355 357 358 357 357 361 363 363 365 365 366 366 367 367 367 366 365 365 365 349 343 357 362 364 362 360 362 363 353 350 341 340 341 346 342
326 330 336 341 345 348 358 357 357 359 360 358 360 361 362 362 364 366 366 365 366 367 366 366 366 364 365 341 338 342 362 361 362 361 361 361 361 352 354 338 337 337 338
330 335 329 334 346 340 340 352 360 361 359 363 361 364 364 363 365 366 365 366 366 367 366 366 367 366 365 340 333 338 358 360 361 362 362 361 361 359 357 352 345 344 344
332 333 331 333 350 343 345 348 351 360 361 359 362 362 365 364 365 365 365 367 367 366 367 367 367 366 366 336 331 334 355 357 359 361 363 362 361 349 335 355 349 345 345
340 343 342 342 338 353 344 352 350 354 358 359 359 364 364 364 364 366 367 368 368 367 367 367 368 357 366 341 328 332 357 355 355 358 361 340 355 338 327 353 353 347 345
342 345 345 344 354 356 352 358 351 350 356 361 363 364 365 363 365 367 369 369 368 368 367 366 367 368 364 364 327 323 359 358 355 354 356 359 331 327 321 331 355 350 351
342 343 345 346 348 362 361 358 362 366 371 366 363 364 368 364 364 367 369 369 368 366 365 365 365 366 367 342 334 321 325 347 359 356 356 356 327 320 319 324 336 328 335
345 344 343 347 350 364 366 358 371 377 375 375 370 366 370 368 366 368 366 366 367 365 364 362 362 362 365 367 329 321 319 323 341 361 350 323 317 317 320 322 327 325 348
346 352 352 353 359 362 361 367 368 371 374 376 375 371 369 367 367 365 366 364 363 363 363 362 361 361 363 365 364 354 332 324 332 340 347 345 329 326 332 332 329 348 352
348 351 353 356 359 363 362 362 367 371 368 369 370 371 367 366 367 367 362 365 366 359 362 363 361 359 360 354 324 331 359 351 341 345 355 353 351 351 342 339 342 348 350
347 350 352 352 351 351 352 355 358 363 369 365 362 360 360 361 363 364 363 329 330 317 306 306 326 357 317 307 308 313 315 310 314 339 350 351 347 343 343 339 342 346 343

GFSMW_sfc_thetae_039.txt.gz
Theta_e
338 341 343 344 344 345 344 343 346 347 346 350 347 347 344 346 346 347 354 355 356 356 355 354 352 352 348 349 348 343 343 338 332 330 332 331 331 335 338 340 343 344 342
336 338 338 341 343 344 346 345 348 349 348 350 347 347 348 347 347 346 354 357 356 357 356 354 351 353 349 350 348 345 342 341 333 334 331 323 326 332 335 336 341 339 340
334 336 337 338 342 344 345 346 347 351 349 350 350 349 349 347 345 344 344 354 354 358 356 355 354 353 348 348 349 346 345 331 335 339 335 324 321 325 333 330 331 334 332
335 337 337 338 339 344 347 346 348 353 351 352 351 348 345 343 344 342 343 349 354 356 358 356 354 353 353 349 349 351 346 336 327 332 338 338 336 321 320 332 330 332 331
334 336 337 339 340 345 347 347 348 352 353 353 351 350 346 345 343 343 343 347 349 353 360 356 356 353 354 351 350 352 346 344 339 329 331 333 334 333 326 322 328 332 331
335 336 339 339 340 345 347 349 348 349 353 352 353 349 347 343 344 340 341 349 351 355 357 358 357 355 355 353 352 353 350 346 347 339 335 328 327 328 327 328 329 326 331
335 335 337 337 339 342 344 348 349 348 353 352 350 353 350 348 344 342 342 345 352 353 355 357 355 356 356 357 354 354 354 350 347 344 337 338 332 336 331 330 327 326 330
335 336 337 338 338 340 345 349 349 349 353 354 351 350 354 352 348 351 345 345 349 353 354 358 357 356 356 355 357 355 355 353 348 349 343 337 339 336 331 328 329 323 324
336 337 337 338 338 340 345 347 351 350 352 354 354 351 351 357 349 347 353 343 347 351 356 357 359 357 356 355 356 358 354 354 351 347 348 342 339 340 335 332 331 327 321
335 338 338 338 339 340 345 348 353 352 353 353 355 355 351 351 356 349 348 352 346 348 354 356 358 357 357 357 357 356 357 353 354 351 347 345 341 338 337 335 333 331 326
334 339 339 340 340 341 344 346 349 353 354 354 354 355 355 352 355 355 350 355 351 353 352 357 357 356 357 359 357 354 354 354 352 350 347 345 342 337 337 336 334 331 329
331 339 341 341 340 340 342 344 347 352 354 356 355 355 357 356 352 355 355 351 356 353 357 359 357 358 357 356 358 355 355 352 352 351 346 346 347 340 339 342 332 332 334
331 338 341 340 341 340 341 343 346 350 353 356 356 355 355 357 353 354 355 357 353 359 354 359 358 357 358 357 357 358 356 353 355 354 349 346 345 341 340 339 338 336 334
329 336 338 341 342 342 342 343 344 348 353 355 356 356 356 356 357 356 355 354 359 357 361 355 359 359 359 358 358 357 357 356 353 355 354 351 348 345 342 339 337 336 334
328 332 337 339 342 343 343 344 345 347 350 353 355 356 357 357 357 357 358 358 355 359 358 359 357 360 358 359 357 358 357 356 356 353 357 355 352 346 343 343 339 336 335
325 327 332 338 341 344 344 345 346 347 349 351 353 357 357 357 356 357 357 359 359 356 357 357 357 358 360 346 342 354 357 357 356 355 353 357 351 348 339 338 339 341 335
319 320 321 327 337 344 346 346 348 349 349 348 352 355 356 355 356 356 358 357 358 360 357 356 358 357 359 338 337 342 358 356 357 357 356 353 357 349 353 338 337 337 336
321 321 320 323 325 337 348 348 349 349 349 349 350 352 355 356 356 357 356 358 358 359 359 359 358 359 359 338 333 338 356 357 356 358 358 356 355 355 354 353 345 344 342
331 332 332 332 331 330 331 349 348 350 351 349 350 352 355 354 356 356 357 358 358 358 359 361 360 359 360 333 331 333 353 356 356 357 358 358 357 346 334 353 349 345 344
333 334 335 334 334 335 335 342 349 349 349 352 354 355 356 356 355 356 357 359 360 359 360 359 362 352 361 336 327 332 354 354 354 355 356 339 350 335 328 350 352 346 345
335 336 334 334 336 337 335 336 337 348 351 351 352 356 358 357 358 357 359 359 360 360 360 360 361 362 359 358 325 323 354 356 355 354 353 354 330 324 322 326 354 350 349
338 339 334 333 335 335 337 334 334 344 348 351 352 353 355 356 358 358 359 361 360 359 359 359 360 362 362 337 328 321 324 344 356 356 356 353 326 320 320 322 333 327 331
330 341 343 345 345 335 338 336 347 350 355 350 351 353 356 357 352 358 357 360 361 360 359 359 358 359 361 361 326 321 320 323 345 360 351 335 322 317 320 321 324 324 345
330 339 343 345 351 352 352 351 354 351 347 352 357 355 356 357 355 359 360 359 360 359 358 357 357 358 358 358 361 352 333 323 329 339 347 342 336 333 334 332 326 338 349
331 336 338 343 345 348 347 349 349 352 355 349 359 357 357 356 357 355 357 358 358 355 358 359 358 355 356 348 322 325 345 342 335 338 348 352 351 349 348 341 342 338 342
330 333 337 341 342 344 343 342 344 348 350 354 356 356 355 356 357 357 350 309 312 312 309 306 333 324 311 303 302 302 303 305 306 329 341 346 349 350 350 350 347 340 339

GFSMW_sfc_thetae_045.txt.gz
Theta_e
336 338 339 341 338 337 335 338 340 342 342 342 339 337 337 339 343 345 347 348 350 352 349 346 346 348 343 344 340 339 333 330 329 328 326 326 329 333 336 338 339 340 340
334 336 338 339 338 337 335 338 339 341 343 343 343 339 338 339 342 343 346 348 349 351 350 348 347 347 345 344 343 339 336 330 329 326 320 318 322 328 331 337 340 338 339
332 334 336 337 338 338 337 337 339 340 344 344 341 342 342 340 340 340 344 346 349 352 351 349 347 347 345 344 343 341 336 325 330 331 325 318 316 321 327 330 336 337 336
334 335 336 337 338 338 340 340 339 340 344 343 342 340 338 336 336 338 340 346 349 351 352 350 347 347 345 342 344 344 340 326 327 328 336 330 324 318 320 324 327 331 334
334 334 335 337 339 339 340 340 340 339 343 343 342 341 337 336 340 339 339 344 347 350 352 350 348 348 347 345 345 343 341 327 326 324 329 328 329 323 318 316 322 328 329
335 336 338 338 338 340 340 341 340 340 341 342 342 340 339 338 339 338 337 339 345 348 350 351 348 347 348 347 345 345 343 338 331 327 328 326 326 325 322 320 320 322 325
335 335 336 337 338 339 339 340 340 340 341 342 343 342 340 340 341 339 337 336 340 342 347 349 348 347 348 349 346 345 345 342 337 333 332 327 325 326 324 323 322 322 324
334 335 336 337 338 339 340 339 340 340 342 343 343 343 342 342 342 342 339 339 342 344 347 350 350 349 350 349 347 346 347 343 343 340 333 334 331 330 328 326 324 319 320
328 332 336 336 337 339 340 340 340 341 342 343 344 344 344 343 343 342 341 340 340 345 345 348 352 351 350 350 348 346 346 348 343 342 341 335 333 335 331 325 326 322 317
329 330 335 336 336 340 341 342 341 342 343 344 344 345 345 345 345 344 341 339 341 345 346 347 349 350 351 350 349 347 346 347 347 343 340 340 338 334 333 332 327 324 321
329 329 334 337 337 339 341 341 341 341 343 345 345 345 346 346 347 346 344 345 340 344 347 347 350 350 350 350 349 350 350 347 347 347 344 341 339 338 334 331 330 326 323
330 331 334 336 337 336 340 341 341 341 342 345 346 346 347 348 349 347 345 344 346 341 345 347 348 351 351 350 349 348 351 350 347 348 347 346 345 338 335 332 330 329 326
329 332 334 334 336 336 338 341 342 342 342 343 346 345 345 344 346 350 350 345 344 344 343 346 348 350 352 351 350 350 349 350 351 350 349 349 345 343 340 335 332 330 329
327 331 333 333 336 336 337 339 342 344 343 344 344 345 346 347 345 346 349 351 348 345 346 346 348 350 351 352 352 352 350 350 351 352 351 351 348 347 346 340 337 333 330
327 331 332 333 335 336 336 340 342 345 345 344 345 345 349 349 349 347 346 349 351 349 348 348 350 351 351 352 352 352 351 350 349 350 351 352 351 346 346 347 343 335 333
329 331 333 333 334 335 336 338 341 345 346 345 345 347 348 349 350 349 348 346 348 352 349 347 348 350 353 342 340 349 351 351 350 349 350 351 348 346 339 338 340 342 339
328 331 333 334 335 336 337 337 341 345 347 347 347 348 348 348 350 351 350 348 347 348 350 350 349 349 351 336 336 340 352 351 350 350 350 350 352 346 351 339 336 336 334
325 331 334 335 336 337 337 338 341 342 345 347 348 349 349 349 349 350 351 351 350 348 348 348 351 351 352 335 332 337 351 353 352 352 352 351 351 351 349 350 348 343 344
324 325 331 334 335 337 338 338 339 341 343 345 347 349 350 350 351 349 350 351 352 351 350 350 348 347 350 330 330 333 348 351 352 353 353 353 352 342 332 348 348 349 350
338 329 327 331 336 337 339 338 338 339 339 343 346 349 350 351 350 352 351 352 352 352 354 353 354 345 349 331 326 331 350 350 351 353 354 337 347 333 327 344 348 347 349
336 344 341 331 328 330 340 338 339 338 341 342 343 347 350 351 352 352 353 352 352 352 351 352 354 355 351 350 323 322 349 351 351 351 352 354 331 324 322 325 353 350 351
331 337 342 342 340 331 335 335 337 340 342 343 343 344 346 351 352 352 352 352 352 350 350 351 352 354 356 334 324 321 324 342 352 352 354 353 328 320 319 322 330 326 329
327 332 334 339 342 342 342 341 341 347 343 343 343 344 345 346 350 350 351 351 351 350 350 350 350 351 354 355 326 321 321 323 344 357 348 331 321 317 319 318 320 320 338
323 328 330 332 335 338 338 337 338 342 344 343 342 344 346 346 348 350 351 351 350 350 349 350 350 351 352 355 353 339 334 325 329 335 344 337 330 326 333 334 331 331 336
318 325 326 328 331 335 334 335 339 340 340 341 342 342 344 341 344 334 333 348 351 346 351 351 353 352 351 353 340 343 350 347 337 338 342 344 345 346 347 348 347 347 341
318 324 326 327 330 333 333 335 339 341 337 337 337 336 344 344 342 331 322 305 303 301 305 312 337 324 314 309 308 306 308 311 311 335 339 338 338 339 339 338 341 343 342

GFSMW_sfc_thetae_048.txt.gz
Theta_e
334 338 339 340 340 340 338 338 340 340 340 340 339 340 341 344 346 347 351 351 352 354 349 350 349 352 350 350 347 344 339 336 337 335 333 333 335 340 343 343 343 344 347
332 335 338 338 337 337 336 337 340 340 342 342 342 342 340 342 346 347 349 351 352 355 352 350 350 352 350 347 347 346 342 335 336 332 330 327 332 334 337 342 343 343 345
331 333 336 337 337 335 335 337 339 340 343 343 342 342 342 342 343 344 346 348 351 354 354 352 351 351 349 347 348 346 343 333 337 338 332 326 325 328 333 337 341 343 343
333 334 335 336 338 337 337 337 339 339 343 344 342 341 339 337 339 342 345 348 351 352 354 353 351 351 349 349 350 348 344 336 336 336 340 335 332 328 330 333 335 339 341
333 334 335 336 339 339 338 337 338 339 342 343 343 342 341 339 340 341 343 346 349 351 354 353 352 351 351 350 350 349 346 336 335 335 337 336 334 329 328 328 331 335 338
333 335 336 338 338 340 339 339 338 338 341 343 343 341 341 338 339 339 340 342 347 349 352 354 352 352 353 351 349 350 347 342 337 335 337 336 336 333 329 327 328 330 335
333 334 335 335 337 338 338 339 338 337 340 342 343 342 342 339 340 340 339 339 343 346 349 352 351 351 352 353 352 350 350 347 342 338 337 336 335 335 333 332 330 329 332
334 334 335 336 337 338 339 339 338 338 339 341 342 343 342 341 342 342 341 341 342 346 350 351 353 352 353 353 352 350 350 350 348 346 340 340 336 336 336 335 333 330 329
332 335 337 338 338 338 338 339 339 339 340 340 341 342 343 342 342 343 344 343 343 346 349 351 352 353 353 353 352 350 350 352 349 349 348 342 340 339 337 334 335 333 328
330 333 337 337 339 340 340 340 340 339 340 341 341 342 343 343 343 344 343 343 343 346 348 348 351 353 353 353 353 352 351 351 352 349 347 347 345 341 340 338 335 332 333
329 332 336 338 339 340 341 340 340 340 341 342 342 343 343 344 345 344 344 344 343 345 347 348 349 350 352 353 353 353 352 350 351 352 349 347 347 346 342 339 338 334 331
330 330 332 335 338 338 339 340 340 340 341 343 343 343 344 345 345 345 345 345 343 345 348 349 349 351 351 353 352 352 354 351 350 351 351 351 349 347 346 342 340 337 335
327 330 331 332 336 336 338 340 341 341 342 344 343 343 344 345 345 346 347 347 347 344 346 348 349 350 352 353 352 353 352 354 354 353 352 352 352 351 348 346 342 339 337
325 329 330 330 334 337 338 340 341 342 342 343 344 343 344 345 346 348 348 346 347 347 346 347 349 350 352 353 354 353 352 352 353 355 354 354 353 352 352 349 348 347 341
312 325 329 331 333 336 337 340 341 342 342 342 343 344 345 346 347 348 350 351 347 346 348 347 348 350 351 352 353 354 353 352 352 353 354 355 353 347 349 352 351 349 345
311 318 329 332 333 336 337 339 341 342 343 342 342 345 346 346 346 346 346 349 351 350 349 348 349 348 349 340 338 349 353 353 352 351 353 354 349 347 339 338 340 348 347
317 315 328 332 334 336 338 337 340 343 343 342 343 344 346 347 347 348 347 346 347 351 350 349 349 349 351 335 335 339 353 353 353 353 353 353 353 348 354 341 336 337 335
327 326 330 333 335 337 338 339 341 343 343 343 344 346 346 347 348 349 348 348 347 347 350 351 350 349 349 333 331 336 351 353 354 354 354 354 354 354 353 353 353 351 350
335 325 332 333 335 337 338 338 341 342 344 344 345 346 347 347 348 348 349 350 350 348 348 349 351 351 351 329 328 333 350 351 353 355 356 355 354 342 331 352 352 352 353
337 333 334 334 334 335 337 338 339 341 344 345 347 349 350 349 348 349 350 352 353 351 351 350 351 344 351 331 325 331 350 349 351 354 355 337 347 332 326 349 352 350 353
333 340 333 333 335 337 337 337 339 339 344 347 349 350 351 351 351 351 352 352 352 353 353 353 354 354 348 349 323 321 350 351 351 351 352 355 330 324 321 324 353 351 352
328 334 340 340 337 337 338 337 338 342 343 345 347 349 350 351 352 352 353 353 352 351 351 352 353 355 357 333 325 321 323 340 351 352 355 355 327 320 319 322 327 324 328
325 330 334 337 339 343 345 344 345 346 344 342 343 345 349 351 353 352 352 351 352 351 350 350 351 352 355 356 325 320 319 322 342 355 347 332 322 318 319 318 319 319 334
323 326 329 331 334 336 338 339 343 348 347 345 344 344 344 346 351 353 353 351 351 350 351 350 350 352 354 355 356 346 336 322 330 333 343 337 332 329 335 336 332 333 337
322 325 326 329 332 335 337 341 344 344 343 344 347 348 348 345 347 344 342 352 354 345 351 352 353 353 352 353 340 343 353 352 341 340 346 345 346 347 348 349 349 350 347
317 322 326 329 332 334 336 338 342 342 341 341 341 340 348 345 348 333 325 305 303 303 305 311 337 337 318 319 312 309 311 312 314 339 345 343 343 342 341 340 339 339 334

GFSMW_sfc_thetae_054.txt.gz
Theta_e
340 342 343 344 345 348 350 352 352 355 353 350 349 351 350 353 355 357 362 364 363 364 363 359 359 357 356 358 360 354 354 347 350 342 343 347 350 349 352 353 351 349 352
338 340 343 344 344 348 350 352 353 355 355 349 351 352 353 353 355 359 363 365 364 366 364 365 360 358 353 358 358 357 348 347 348 342 340 335 337 343 346 350 351 351 353
336 338 341 342 344 347 350 352 355 356 356 356 351 354 356 357 356 358 358 363 365 365 367 366 365 361 359 352 356 359 354 343 348 352 341 332 332 338 344 347 348 352 349
338 339 340 342 343 346 352 354 356 357 357 358 354 360 352 349 350 354 355 359 365 365 366 367 366 363 361 361 356 358 356 353 344 347 346 351 347 334 335 342 345 348 347
337 338 339 344 345 346 348 353 358 360 361 360 360 352 356 349 351 352 362 366 367 366 364 367 367 366 359 361 362 362 360 352 348 343 345 349 343 347 337 335 339 344 346
340 340 341 344 345 347 348 351 357 360 360 359 355 361 360 358 350 355 353 354 356 361 366 365 367 367 362 361 361 362 362 359 355 348 349 343 341 341 340 337 341 339 345
342 341 341 343 345 346 347 349 356 358 359 357 356 357 359 362 359 358 353 357 351 353 361 366 367 363 367 365 370 365 364 364 356 356 345 347 346 348 346 342 339 340 346
343 343 344 344 346 347 348 349 354 357 358 358 361 363 363 353 354 358 354 353 351 353 360 364 365 366 365 365 366 362 360 364 359 360 357 346 346 347 346 343 341 337 341
341 343 345 346 346 348 352 353 357 356 358 355 362 363 363 362 356 365 359 355 361 353 357 360 363 364 365 366 366 360 363 363 363 361 361 357 351 350 348 347 345 340 335
341 343 345 347 348 348 350 352 353 356 358 356 358 358 358 361 362 361 362 362 358 360 358 359 360 360 363 365 367 362 364 364 360 359 362 362 354 353 352 349 348 346 342
340 342 345 347 348 349 349 351 352 353 354 358 359 359 357 358 359 358 360 362 361 361 362 360 359 358 362 364 365 364 362 364 364 363 361 364 366 357 352 352 350 348 347
338 342 344 346 348 348 349 349 350 351 353 358 361 360 360 361 357 359 359 362 362 362 362 362 360 359 360 364 364 362 359 360 361 363 363 362 359 365 364 355 360 355 357
334 340 343 345 346 348 349 349 350 350 352 356 354 355 356 357 359 360 359 363 362 362 361 361 361 360 360 362 364 363 362 360 361 362 363 363 363 362 359 359 356 355 356
334 338 341 343 347 350 354 354 350 351 350 352 352 356 356 358 357 363 364 361 364 362 362 362 362 361 360 359 361 362 362 361 361 363 363 364 365 365 365 364 364 364 360
325 332 337 342 350 351 356 356 352 354 353 357 352 356 362 362 363 364 365 364 364 363 363 363 363 362 359 355 360 360 360 361 361 362 364 365 362 351 356 363 370 372 362
332 333 334 342 345 348 353 356 357 356 356 359 357 361 365 364 364 366 367 367 365 366 365 362 362 361 357 340 338 351 357 360 361 361 363 365 356 354 342 340 341 351 365
335 338 340 340 340 346 351 353 359 358 358 361 361 362 365 364 365 366 367 366 366 365 366 362 362 364 363 334 333 338 356 356 360 365 362 360 357 356 364 345 339 340 337
333 338 341 343 346 341 345 352 354 361 361 362 361 363 364 365 366 366 367 368 365 365 364 363 366 366 365 333 330 335 357 360 363 364 364 366 365 363 359 361 361 362 364
335 338 342 344 348 349 344 349 352 356 358 360 362 364 364 364 363 363 364 364 364 363 363 363 365 365 367 330 329 336 356 356 362 363 366 367 367 349 335 361 362 364 362
338 340 345 348 349 350 342 345 349 352 358 360 362 364 365 366 364 365 367 367 364 364 361 362 365 353 366 334 326 335 356 357 354 364 368 340 353 335 328 361 360 360 358
337 346 350 348 348 348 342 351 352 353 357 358 358 362 365 366 367 369 368 367 364 364 364 362 366 369 362 362 323 321 358 354 353 352 352 355 329 327 324 325 362 358 355
339 348 348 348 347 349 349 355 357 358 360 360 360 364 365 360 360 368 365 365 365 364 365 363 361 361 364 337 325 320 325 343 356 355 353 357 325 318 319 326 331 325 330
331 344 347 349 350 352 353 352 362 362 361 362 363 360 361 361 367 365 363 360 363 360 359 358 358 358 361 363 326 319 319 323 348 359 349 328 322 316 323 318 322 320 354
319 328 343 345 348 354 354 356 359 360 360 359 360 361 361 360 361 361 361 359 358 358 357 357 357 358 359 361 364 356 341 324 335 341 352 347 337 330 338 348 342 356 360
322 322 324 338 340 345 347 351 356 359 357 359 359 360 360 360 361 362 357 360 365 345 358 358 359 358 359 360 347 350 365 362 348 351 359 358 357 357 359 361 361 362 359
321 322 324 326 332 335 341 346 352 354 358 355 355 355 356 358 359 359 354 305 306 305 306 308 330 360 332 321 319 317 313 314 314 352 357 355 356 356 356 357 357 356 348

GFSMW_sfc_thetae_057.txt.gz
Theta_e
342 343 343 344 344 346 347 351 354 363 356 353 351 351 350 355 356 359 363 365 364 362 364 361 359 360 359 350 356 348 351 343 345 340 341 342 344 346 345 345 346 346 347
340 342 342 343 342 345 348 355 356 364 359 354 357 356 357 352 353 355 363 363 362 364 362 361 359 361 358 359 357 357 347 346 347 344 342 336 338 341 344 344 344 346 348
339 340 341 342 343 345 348 355 360 363 361 362 357 358 359 357 352 357 356 361 363 363 365 363 365 362 363 354 358 357 363 347 344 352 347 334 332 338 341 344 345 348 348
341 341 342 342 343 345 349 357 359 363 361 364 356 362 351 348 350 355 355 359 364 363 363 365 363 366 362 366 360 358 360 359 345 343 343 354 346 339 338 342 343 346 346
340 340 342 344 345 346 349 351 361 364 364 362 362 355 357 351 351 351 368 373 371 365 361 366 364 364 359 363 361 361 363 354 353 343 342 349 341 350 343 336 338 343 345
340 342 343 345 345 346 348 353 361 365 366 364 362 364 358 359 348 352 355 352 358 360 365 364 369 366 364 363 362 364 362 365 358 353 349 343 342 341 338 335 341 338 342
340 341 341 342 345 347 349 354 361 363 365 363 360 361 364 364 367 363 352 356 349 351 367 371 368 364 367 365 364 366 364 362 357 361 346 346 345 345 343 340 338 339 343
341 341 342 343 347 348 352 353 359 363 365 363 363 361 365 353 352 359 353 351 349 352 371 366 365 366 366 365 368 361 360 367 359 361 363 348 346 346 345 343 342 339 341
341 343 343 344 346 349 353 354 358 362 364 359 364 364 363 360 352 360 365 356 361 354 357 364 364 364 364 367 370 359 366 365 364 364 363 356 349 349 347 347 345 341 336
341 343 345 345 346 347 350 355 358 361 361 362 364 363 363 365 362 364 368 363 365 367 361 362 361 363 366 366 372 365 366 368 361 357 368 365 354 354 351 349 348 346 342
339 342 345 347 348 349 349 351 354 358 359 361 363 361 362 362 363 366 367 369 368 370 368 367 364 363 363 366 372 370 366 364 367 366 363 367 371 357 353 351 349 347 346
337 341 343 346 348 349 349 350 351 351 357 361 364 362 364 362 360 361 366 370 369 368 370 368 367 363 362 367 369 363 362 363 362 364 367 361 358 369 369 358 368 357 361
334 339 341 343 347 349 351 350 351 351 353 359 358 361 361 362 360 365 364 368 369 370 364 368 369 366 363 367 368 369 366 364 364 364 366 365 367 369 361 366 357 353 357
334 335 340 343 347 351 356 356 351 352 352 353 354 358 361 362 362 365 367 367 369 370 369 370 370 368 365 365 364 366 367 367 364 366 367 366 367 369 371 366 370 366 362
330 334 337 346 354 355 358 358 354 357 355 356 355 358 362 364 365 365 368 368 369 369 371 371 370 370 364 358 364 366 366 368 365 366 367 367 364 352 359 362 368 368 363
328 330 337 341 345 349 357 360 359 358 358 359 356 360 364 365 365 365 367 369 369 370 371 369 370 368 359 343 339 356 362 366 366 366 368 369 356 355 342 341 342 351 365
332 335 337 337 341 345 352 356 361 360 361 361 362 362 365 365 365 366 367 368 368 370 370 370 369 369 370 336 334 339 360 363 365 367 368 364 357 358 368 347 341 342 338
335 337 339 341 343 343 346 351 356 363 362 362 365 363 366 365 366 367 367 369 369 369 370 370 371 371 369 336 329 335 360 360 364 367 368 369 368 368 365 368 366 366 367
339 340 342 343 346 347 347 348 353 362 362 364 363 365 366 367 367 367 368 369 370 369 369 370 371 371 371 333 329 335 358 358 363 365 366 368 370 351 336 364 364 366 367
340 343 345 347 348 350 350 349 346 356 361 363 364 368 368 369 368 369 370 371 370 369 366 368 372 360 373 335 326 335 357 358 356 365 367 340 353 337 329 363 364 362 365
338 342 349 349 351 354 352 353 349 353 361 365 367 370 370 370 372 373 373 372 371 366 370 368 371 372 367 368 324 322 361 355 355 354 353 357 331 327 325 326 364 360 361
326 333 347 352 354 355 355 358 356 357 366 366 367 369 371 366 366 372 372 372 371 370 372 370 369 365 373 341 326 320 326 346 358 355 350 353 325 320 321 327 330 324 330
320 327 339 355 357 356 354 358 358 367 367 368 368 368 370 370 371 370 371 366 370 361 361 360 358 358 360 365 326 319 320 325 350 358 341 327 320 316 320 318 323 322 354
319 323 330 337 348 352 357 361 363 369 369 368 368 369 367 366 368 365 365 362 360 359 358 357 356 356 356 355 360 352 338 325 337 342 353 347 337 328 340 349 338 355 360
320 322 323 325 330 336 340 346 354 366 361 365 364 364 362 361 365 364 362 361 366 351 359 356 355 352 355 356 346 348 362 358 348 351 358 356 356 357 359 362 364 364 364
321 320 320 322 323 326 327 333 339 354 360 357 359 358 358 360 360 360 354 308 315 310 312 312 332 357 323 320 312 313 320 322 318 350 356 357 358 359 359 360 362 363 357

GFSMW_sfc_thetae_060.txt.gz
Theta_e
340 342 342 343 345 347 348 354 357 359 357 357 355 351 353 349 362 358 359 369 368 368 371 367 364 360 346 354 359 356 349 346 348 344 346 346 346 345 350 348 347 347 351
339 340 341 341 343 346 348 354 357 359 357 357 359 361 352 351 348 360 362 366 366 368 368 367 366 356 354 359 359 347 347 354 351 346 342 336 339 345 337 348 346 347 346
338 340 340 341 342 345 348 351 357 358 357 362 359 365 366 359 351 360 361 365 368 366 370 369 369 367 363 361 360 353 358 351 347 352 345 337 329 339 345 344 347 348 343
341 341 340 341 341 346 350 352 357 360 357 363 357 362 356 356 354 358 356 362 368 367 368 369 370 370 356 364 363 362 359 345 349 351 349 349 345 336 333 346 347 347 346
340 341 341 342 343 348 348 352 356 360 357 358 362 357 358 355 359 355 355 364 370 369 365 367 369 365 366 367 366 363 363 361 349 352 348 350 349 350 340 334 341 346 349
340 342 343 344 344 346 348 352 354 357 359 357 358 361 355 360 358 358 354 359 362 365 369 367 369 371 366 363 366 367 366 364 363 354 355 346 343 343 343 339 340 341 344
340 341 342 343 344 344 347 350 353 354 357 356 354 360 358 357 361 365 354 355 357 357 364 369 367 366 371 369 367 368 367 367 364 363 358 349 342 342 350 343 345 340 346
340 341 343 344 344 345 347 349 353 353 356 359 354 356 361 354 355 362 356 362 355 356 364 367 365 367 368 367 367 366 365 365 364 364 364 358 355 351 350 348 346 340 345
334 341 343 344 346 347 347 350 353 355 357 356 358 353 358 358 353 362 365 359 364 362 363 365 368 366 368 367 366 362 363 363 366 363 366 363 357 353 351 352 351 347 338
331 336 344 344 347 348 350 350 355 355 358 358 359 356 352 357 358 354 363 359 365 364 365 366 365 366 369 369 368 364 365 363 361 362 362 363 358 357 358 354 355 353 346
334 337 340 345 346 349 350 350 351 357 359 359 358 358 356 355 354 357 353 362 360 372 367 370 366 365 365 368 367 365 365 363 363 366 365 362 363 362 361 360 355 352 353
335 335 333 336 346 347 348 351 351 353 358 360 359 358 358 355 355 351 359 361 363 364 369 367 370 365 365 365 365 363 358 362 362 364 363 364 363 366 365 361 360 360 362
332 332 334 339 345 346 348 350 351 351 356 360 358 358 358 358 356 354 353 361 361 366 363 367 364 365 363 363 364 365 362 362 364 364 363 362 364 363 364 364 359 356 357
335 335 338 345 347 348 349 350 350 352 353 357 357 357 357 357 357 359 354 360 362 360 363 364 365 365 363 361 361 365 364 363 361 364 362 364 364 363 365 362 362 362 360
333 332 339 343 347 350 351 352 352 352 353 354 355 356 359 359 359 357 358 354 359 362 363 363 365 365 364 360 360 361 363 363 362 362 364 364 362 353 357 362 363 363 361
328 335 339 343 345 352 353 354 353 353 354 353 354 357 359 359 359 358 359 360 359 361 363 363 363 364 363 346 341 354 359 363 362 361 362 366 353 351 343 340 342 352 360
334 337 340 342 338 338 345 355 356 356 356 356 356 356 359 359 358 361 358 361 359 362 362 362 364 363 365 338 335 342 358 358 361 362 362 361 359 353 362 346 339 339 338
337 339 338 341 343 340 341 357 358 359 359 356 358 358 358 358 360 359 361 359 362 361 362 362 363 364 364 339 331 336 354 357 360 360 362 362 361 360 362 362 361 359 359
331 340 340 342 348 349 350 353 357 357 356 359 357 360 358 359 359 359 359 360 360 361 361 363 363 363 364 335 332 333 350 353 355 357 361 364 362 348 338 355 356 358 361
331 337 341 343 346 349 350 349 350 359 356 356 361 360 361 359 360 360 360 362 362 361 362 362 364 355 364 336 329 333 354 352 353 357 359 338 349 336 328 354 358 355 356
327 331 334 340 347 355 353 350 350 350 361 360 359 364 365 361 363 363 363 363 363 362 363 363 364 366 363 362 325 322 356 354 354 353 354 357 332 325 323 326 357 354 356
321 324 328 338 353 360 359 353 353 354 360 365 362 364 364 364 363 365 365 364 364 363 362 362 363 365 368 341 326 320 326 343 356 355 356 354 329 324 324 326 330 326 327
320 322 324 330 334 342 352 358 359 361 360 368 362 364 366 365 364 365 364 364 364 362 361 361 361 362 364 367 329 320 320 325 350 358 344 325 320 315 317 318 323 322 344
320 320 322 321 325 329 337 345 349 363 364 359 364 365 365 363 364 365 365 364 363 362 361 359 360 361 362 363 366 345 333 325 334 340 350 341 340 329 339 342 328 345 354
319 321 321 319 319 324 331 335 339 346 360 364 364 364 364 361 364 363 364 364 365 360 361 361 360 359 358 357 343 349 354 352 342 347 355 355 354 352 355 359 363 357 358
318 321 319 318 319 321 323 328 333 335 346 365 363 361 361 362 362 360 352 312 321 313 318 320 347 348 321 311 309 309 320 322 319 346 354 353 354 354 353 354 357 362 357

GFSMW_sfc_thetae_063.txt.gz
Theta_e
335 335 337 338 342 341 340 342 345 346 349 349 346 346 344 342 350 351 356 357 355 357 351 352 351 349 341 342 349 343 342 338 340 336 338 337 339 341 341 341 343 346 348
334 335 335 336 339 341 339 343 347 347 349 347 348 346 347 345 346 352 350 358 356 356 354 349 351 350 345 344 343 343 336 343 338 335 334 329 329 336 334 339 339 338 347
332 332 333 335 338 339 342 344 349 347 349 347 347 351 348 345 343 350 352 355 358 356 357 353 352 347 350 348 345 345 347 339 340 336 336 330 325 332 336 332 336 335 340
334 333 333 334 338 339 343 347 349 348 348 350 345 345 346 341 344 349 351 355 357 356 357 356 354 351 347 349 347 350 346 339 335 340 338 338 334 329 324 334 337 336 339
334 333 333 335 339 341 341 347 350 349 347 349 346 345 345 349 346 350 352 353 356 356 356 355 356 353 349 350 350 347 350 348 345 340 336 336 333 338 330 325 332 336 337
336 335 335 337 337 342 341 345 350 347 347 348 350 345 346 345 347 347 349 353 355 355 359 356 355 353 353 351 351 353 349 347 349 347 344 333 331 332 332 330 330 330 334
336 335 334 335 336 340 341 343 347 348 347 346 347 351 346 344 347 348 348 350 352 352 354 355 356 355 352 354 354 351 353 350 349 348 345 344 342 334 340 334 332 330 333
329 336 336 336 337 340 342 344 344 346 348 346 345 348 351 346 347 349 349 351 352 352 353 356 355 354 357 354 354 352 353 350 353 348 349 347 346 344 335 334 332 328 332
335 336 337 337 337 339 341 343 344 344 348 348 344 346 351 347 345 347 350 349 350 352 354 359 355 355 356 355 354 351 353 352 352 350 350 350 347 345 343 337 336 333 326
337 337 337 339 339 340 342 343 346 346 348 349 348 344 347 351 346 346 349 348 346 351 354 358 356 357 356 354 354 349 353 351 349 349 350 348 347 345 350 342 340 339 333
332 336 338 336 336 337 341 343 346 346 347 348 351 346 344 349 349 346 344 350 348 353 357 357 357 357 356 356 355 351 353 351 350 350 351 350 350 346 349 353 349 340 339
330 335 335 333 334 331 341 342 345 348 349 350 349 351 347 344 348 346 347 345 348 350 356 358 357 355 354 356 355 352 351 352 351 351 351 352 355 350 349 351 348 348 348
333 332 332 334 334 333 334 343 344 349 350 351 350 351 350 345 344 345 346 344 352 347 356 355 356 355 355 354 355 355 353 351 353 353 353 350 352 351 354 351 349 347 347
330 330 329 328 328 332 334 342 344 346 352 352 352 351 350 350 345 345 343 349 349 356 351 357 355 356 354 353 354 355 355 353 353 356 354 355 353 352 352 353 351 351 350
331 330 329 328 337 335 339 343 345 345 348 352 353 352 352 352 352 348 347 342 351 350 355 353 357 356 356 355 352 354 356 355 353 352 354 355 354 351 352 356 354 353 351
326 332 333 331 337 335 334 343 344 346 346 349 352 353 352 352 352 351 350 346 344 353 350 352 354 356 358 345 342 350 354 356 355 354 353 355 351 349 343 341 344 353 353
324 326 333 334 335 338 343 340 343 346 347 347 351 351 352 352 352 352 351 351 345 348 353 353 354 354 357 339 337 342 352 351 355 355 354 354 357 349 354 343 338 338 336
324 327 330 330 335 337 340 343 342 342 344 346 347 351 352 351 353 352 351 350 351 347 348 352 355 355 357 338 333 338 349 351 352 356 355 354 354 351 350 351 352 350 348
322 325 327 329 331 337 337 340 340 341 341 346 348 350 351 352 353 350 351 351 352 352 351 354 355 355 357 334 332 332 343 348 350 352 353 355 355 344 336 348 350 352 354
321 320 323 327 330 336 342 341 338 341 341 348 350 351 351 352 352 353 351 354 352 352 355 353 356 350 356 335 329 331 348 343 346 349 350 337 349 337 332 347 349 345 346
319 322 323 323 328 336 336 348 343 344 346 353 353 353 353 351 353 353 354 353 354 353 353 354 355 357 354 355 326 324 353 351 346 346 348 350 330 323 321 325 349 349 351
319 320 319 322 326 329 330 333 340 344 348 351 352 354 355 353 355 354 354 354 353 353 352 353 354 356 358 338 329 322 325 343 351 348 349 348 330 322 322 324 327 325 326
318 319 319 320 322 323 324 328 330 334 337 348 353 351 355 356 354 355 354 353 354 353 352 353 353 354 357 359 329 322 320 324 348 353 345 334 326 321 321 321 323 323 333
317 319 317 317 318 321 322 323 326 329 331 340 350 355 355 355 355 358 356 355 354 354 353 353 353 355 355 357 360 342 331 324 331 339 340 333 334 333 336 337 321 329 337
318 318 318 318 318 319 320 321 322 326 327 334 351 355 355 352 356 356 358 357 358 354 355 355 356 354 355 355 347 347 348 348 340 341 349 345 344 347 345 346 344 333 341
316 315 318 317 317 318 317 318 319 321 324 327 343 354 355 356 357 355 341 310 316 319 322 326 346 355 326 331 322 317 320 320 317 340 347 346 348 347 348 345 348 350 344

GFSMW_sfc_thetae_066.txt.gz
Theta_e
335 334 335 339 339 340 338 340 342 340 344 342 342 340 341 345 348 348 351 352 352 352 349 348 347 345 340 342 342 339 341 336 337 334 334 335 338 338 339 342 344 346 347
334 333 334 338 338 337 339 340 342 341 346 343 344 343 343 344 348 349 352 353 352 353 350 348 347 345 339 344 339 336 336 339 335 331 330 324 325 332 336 338 340 340 346
331 332 334 336 337 336 338 341 342 342 346 345 346 347 345 342 343 346 346 353 353 354 351 350 349 345 343 343 341 340 340 335 337 333 334 324 321 327 331 332 334 336 340
333 332 332 335 335 336 339 343 344 342 345 344 343 344 341 337 338 345 348 350 354 353 354 352 349 347 345 345 344 349 341 335 332 336 335 334 330 322 322 329 334 333 338
334 331 332 335 337 338 338 345 344 344 345 344 342 343 341 341 341 345 346 349 352 352 353 353 351 346 345 346 346 344 346 344 341 337 336 332 331 332 326 323 329 333 334
334 333 333 335 336 340 340 346 344 343 345 345 342 342 343 343 342 342 345 347 351 351 352 352 351 349 347 347 348 347 346 345 345 343 341 334 330 328 330 326 327 328 330
333 332 332 333 335 337 339 345 344 342 343 345 346 342 343 343 343 343 346 347 350 349 352 350 351 349 349 349 349 349 349 345 346 345 341 341 338 332 335 330 329 327 331
330 333 332 333 336 336 337 343 344 342 343 344 343 346 344 343 344 346 347 349 351 351 352 352 352 352 350 351 350 347 349 348 348 347 346 344 340 340 334 330 328 325 328
330 334 333 334 337 337 337 339 344 343 343 342 343 343 347 345 342 345 346 349 349 350 351 352 351 351 353 349 350 349 348 349 347 348 345 346 345 341 340 337 332 328 323
334 336 334 334 336 339 339 340 342 344 345 343 342 342 344 347 343 344 344 347 347 348 350 354 352 351 352 351 349 347 348 349 347 347 346 344 345 342 344 346 337 335 329
333 335 336 337 336 339 340 340 340 342 345 346 344 342 342 344 346 343 343 345 345 348 349 354 352 352 351 349 350 346 346 348 347 345 345 346 346 344 343 346 347 342 336
333 335 336 336 336 335 339 340 342 341 342 347 346 343 341 343 345 346 343 343 345 348 351 353 354 352 353 352 351 348 349 349 347 346 346 348 352 347 345 345 346 344 342
328 327 329 334 336 336 337 340 341 343 344 345 346 346 342 340 342 345 345 342 343 345 352 353 354 354 353 353 353 352 349 348 349 349 347 348 348 348 347 347 347 346 346
331 330 332 333 333 333 332 334 341 345 345 345 345 346 347 343 340 342 345 344 341 343 349 353 353 353 353 353 353 353 350 349 349 350 350 350 349 347 348 348 348 348 346
328 330 332 333 333 334 334 334 338 343 346 345 346 345 348 349 345 340 342 343 344 345 345 349 353 353 353 353 351 352 351 350 349 350 351 352 351 347 346 350 349 348 346
325 326 327 329 331 333 337 338 340 341 348 347 346 348 347 349 349 346 341 342 340 345 346 349 351 351 354 342 340 348 351 351 350 348 349 350 348 347 341 340 343 349 349
325 326 325 326 328 334 336 338 338 341 343 348 349 350 350 349 349 349 346 343 342 339 345 346 350 351 353 336 336 341 350 352 352 351 351 351 355 347 351 340 336 336 338
318 320 323 326 329 333 339 340 343 343 342 343 349 351 351 350 350 349 349 347 346 341 340 347 346 350 352 336 333 337 349 348 350 353 354 352 352 351 349 349 349 349 347
319 321 323 325 328 333 336 342 342 336 335 338 342 346 351 351 351 349 349 350 349 347 342 345 350 348 349 331 330 333 348 349 348 349 351 353 353 341 332 349 347 348 349
320 319 321 325 327 330 331 337 339 337 333 339 341 345 348 350 350 350 350 351 351 349 349 346 346 345 352 333 327 331 351 349 348 348 350 335 347 333 328 346 349 346 348
319 320 319 322 323 326 326 330 333 336 337 340 345 348 349 349 351 351 352 351 351 350 350 349 349 348 348 350 325 324 351 351 348 346 346 349 328 324 322 326 350 347 348
317 318 316 317 322 323 322 323 326 327 331 332 335 341 350 351 351 351 352 351 350 349 348 349 350 351 353 335 328 322 326 343 352 350 348 347 326 320 320 321 327 324 327
314 318 316 315 317 320 320 320 321 324 326 328 331 336 346 352 352 350 350 350 349 349 349 347 347 350 353 354 327 322 321 325 346 354 345 330 322 319 320 319 322 320 331
310 316 316 317 317 318 319 319 319 320 321 323 327 331 339 351 352 352 351 350 350 348 348 349 349 349 351 354 356 343 332 325 331 340 347 338 332 328 333 332 327 330 335
309 314 313 314 315 316 318 317 317 318 318 321 324 328 340 350 353 352 352 351 352 349 350 350 351 350 349 351 342 344 351 348 340 341 348 338 336 339 337 338 339 330 330
310 310 315 313 311 312 313 313 312 313 314 319 321 325 328 336 352 353 343 311 314 319 318 321 340 352 334 325 319 316 316 318 317 331 346 346 346 343 345 345 344 343 335

GFSMW_sfc_thetae_069.txt.gz
Theta_e
332 334 334 338 338 340 340 341 342 340 343 340 338 338 340 342 343 344 348 349 349 347 343 341 343 342 340 341 339 336 336 334 334 332 332 333 335 337 340 340 342 344 344
329 332 333 337 337 339 339 341 342 339 342 342 342 341 341 343 345 346 348 348 350 350 347 346 346 339 339 339 337 334 336 335 334 329 327 323 324 329 335 337 339 341 344
329 330 332 335 336 337 337 341 341 339 342 341 343 342 341 341 344 344 346 350 349 351 349 347 347 344 340 339 335 337 336 331 334 332 330 323 319 325 328 330 333 336 337
332 330 331 334 335 336 338 341 341 339 342 342 342 341 339 336 339 344 343 349 352 352 348 349 346 344 343 342 342 345 338 332 330 333 333 331 328 322 320 326 331 332 332
334 330 331 334 336 337 338 339 340 339 342 342 342 342 339 338 338 343 343 346 349 351 353 350 347 345 343 343 343 343 342 340 336 334 335 330 329 329 324 321 326 331 333
334 332 333 335 335 336 338 340 340 339 342 342 340 341 341 340 339 339 341 344 347 349 349 351 349 346 344 344 344 343 344 343 342 340 338 332 327 326 328 324 325 326 330
333 331 330 333 333 334 336 341 340 339 341 342 340 340 341 341 341 339 341 343 345 347 348 348 348 346 345 345 346 346 344 343 343 342 338 338 335 330 331 328 327 326 329
333 333 331 333 334 334 335 340 340 339 341 341 342 340 339 342 342 343 342 345 347 350 349 349 348 348 347 348 347 346 347 346 345 344 344 341 338 338 333 329 326 324 325
332 334 331 332 334 335 335 339 340 340 340 341 342 342 341 340 341 344 343 346 346 350 349 351 348 350 349 348 347 346 344 346 344 345 344 342 343 339 337 335 330 327 322
330 332 333 332 334 335 337 339 341 340 341 341 342 342 344 344 341 342 344 344 346 347 348 351 348 349 350 349 346 345 346 346 346 346 345 342 342 341 339 342 335 332 327
329 332 334 333 334 336 336 337 340 340 341 341 342 341 341 342 343 342 342 345 346 346 346 350 350 349 349 349 347 345 345 345 345 343 343 342 343 342 341 342 343 338 333
330 333 334 334 334 335 336 336 338 341 341 342 341 340 340 341 343 343 341 341 343 344 347 347 350 350 349 348 347 346 347 344 344 345 342 343 347 344 343 342 342 341 339
328 329 332 332 334 334 335 337 337 339 342 343 342 340 340 339 340 342 343 340 341 342 346 348 349 349 350 349 349 348 346 346 346 347 345 344 344 344 344 343 342 344 345
328 330 330 331 331 334 334 334 338 340 340 342 343 342 340 339 340 340 342 344 340 341 343 349 350 351 350 351 350 350 348 347 347 347 347 347 346 345 345 345 345 345 344
323 324 324 327 332 333 333 333 335 341 342 341 342 342 343 342 340 339 340 341 342 342 341 345 350 350 351 352 350 350 350 349 348 347 348 348 348 346 344 347 344 344 343
318 321 324 326 328 330 334 336 337 337 343 342 341 343 344 344 342 339 338 339 341 341 340 341 344 349 352 341 339 348 350 350 348 347 347 349 347 345 340 338 340 346 345
316 318 320 324 327 329 335 336 338 339 340 343 343 343 344 344 345 344 340 337 338 339 338 341 343 344 348 336 335 339 350 348 348 348 347 347 351 345 349 340 336 337 336
315 317 320 321 325 330 333 334 339 339 340 341 344 345 345 343 345 346 344 341 339 339 338 337 339 344 346 334 332 336 348 349 349 349 349 348 348 347 348 348 348 346 346
316 317 319 321 325 327 327 333 340 338 333 337 339 344 347 347 346 346 346 347 344 341 341 339 338 340 342 330 330 332 346 347 347 348 349 350 350 340 332 347 346 346 347
314 318 318 321 322 322 324 329 332 332 331 336 339 342 341 349 349 349 348 348 348 346 345 343 341 337 343 328 326 331 348 347 348 349 348 334 344 332 327 343 347 344 346
309 317 318 318 319 322 323 324 326 324 327 331 332 335 341 343 345 350 350 350 349 348 347 346 345 343 343 345 322 323 349 348 347 347 347 348 327 323 321 323 348 345 346
306 315 316 318 318 321 320 319 320 323 326 328 330 332 335 342 347 347 349 350 349 348 347 346 347 347 346 330 325 321 325 339 347 347 348 347 324 319 319 321 326 324 324
305 311 315 317 318 319 319 316 318 319 320 323 325 327 330 334 343 348 346 348 349 348 347 346 346 347 349 348 324 320 320 324 343 351 343 330 320 317 319 318 322 320 333
305 308 312 313 316 316 317 316 317 316 316 318 322 325 327 327 336 347 349 347 347 347 347 346 345 346 348 350 351 338 329 323 330 338 344 338 332 327 332 329 325 330 335
305 308 310 314 315 313 314 314 314 313 312 313 319 322 323 325 327 333 349 349 350 347 348 348 348 346 345 347 340 342 347 345 338 340 346 348 341 345 340 337 339 335 333
306 309 312 313 311 307 308 309 308 309 309 311 314 317 319 321 324 330 336 318 317 315 316 317 335 349 331 321 315 313 313 315 312 335 345 346 347 346 346 346 343 341 334

GFSMW_sfc_thetae_072.txt.gz
Theta_e
334 333 333 338 339 339 340 341 342 342 343 342 339 341 342 343 345 346 349 352 351 350 345 346 347 347 346 346 346 343 344 341 341 340 339 340 341 342 345 346 345 346 348
330 331 331 334 337 338 340 340 342 341 344 345 342 343 343 345 347 347 350 352 352 349 347 346 350 346 345 345 345 344 342 340 340 337 334 331 333 334 338 342 344 345 347
328 330 330 333 337 338 338 339 342 341 344 343 343 343 343 345 346 347 348 351 352 352 350 351 350 345 346 343 343 343 343 338 339 340 338 331 328 330 336 338 338 341 342
329 330 330 333 335 338 340 341 342 341 343 343 343 342 340 340 344 346 348 351 353 353 354 350 350 348 346 346 345 347 345 342 339 340 338 339 336 332 330 335 337 340 339
331 329 330 334 336 339 339 341 342 341 343 343 344 342 340 342 343 346 347 349 353 353 352 352 351 349 347 349 350 349 347 346 341 341 342 338 336 335 332 331 334 339 341
333 331 332 335 335 338 339 340 340 340 342 342 342 342 341 340 340 342 344 346 349 352 353 354 353 351 349 349 349 350 350 350 349 345 344 341 338 336 336 332 333 333 340
334 333 330 332 334 335 337 338 340 338 340 342 341 342 342 342 341 341 343 345 347 349 351 352 353 349 350 350 351 350 350 349 349 351 346 344 343 338 338 335 335 335 339
333 334 330 332 333 335 336 338 338 338 339 342 341 341 343 343 344 343 343 345 347 350 353 353 352 353 351 350 352 350 351 351 349 350 351 348 345 345 341 338 337 336 334
333 333 330 333 334 334 335 337 338 339 340 341 342 341 341 342 343 345 346 346 349 351 354 354 353 353 352 351 351 350 351 352 351 351 351 349 350 346 344 345 338 338 334
331 333 332 331 334 335 335 338 340 339 340 341 342 342 341 342 343 345 346 346 349 350 353 353 353 353 352 353 352 351 351 351 351 351 351 351 349 348 346 348 343 340 337
331 331 334 331 334 336 335 336 339 340 340 341 342 342 343 343 342 343 346 348 349 349 350 353 353 352 351 352 349 350 351 350 351 351 350 350 350 348 347 347 350 346 341
329 332 334 333 333 334 335 336 338 340 340 341 342 342 342 344 344 342 344 346 348 349 350 351 353 353 353 352 352 351 352 349 349 350 350 349 349 350 351 348 349 349 348
326 329 332 333 335 336 336 336 338 340 341 341 341 341 340 340 343 344 344 345 346 346 348 350 350 352 353 352 353 352 352 351 350 350 350 350 350 350 351 351 350 349 351
322 323 325 328 332 335 337 338 337 339 342 341 341 341 340 341 341 343 345 344 345 345 346 348 350 352 353 353 353 352 352 352 352 352 352 353 351 351 352 351 352 352 351
318 320 322 325 328 332 336 337 338 339 340 341 342 341 342 342 342 342 342 345 345 345 346 346 350 352 353 353 353 353 352 352 351 353 352 353 352 346 348 353 354 353 350
316 318 321 323 325 329 333 337 338 339 341 340 341 344 344 344 342 341 341 342 344 344 344 344 347 350 351 341 339 349 352 353 352 351 352 354 348 347 339 337 339 349 353
312 316 318 320 323 326 330 331 335 340 340 342 342 342 344 344 344 343 341 340 340 343 343 343 344 346 349 335 335 340 353 353 352 353 353 352 352 348 354 341 336 336 335
305 310 317 319 321 326 326 327 337 341 340 340 342 343 343 344 345 345 343 341 341 340 341 342 343 343 345 332 331 336 351 353 353 353 352 352 353 352 353 353 353 353 354
304 307 313 319 321 322 324 325 332 333 335 335 338 343 345 344 345 345 346 345 343 341 340 341 341 342 343 327 328 333 348 349 351 353 353 353 352 340 331 352 351 353 353
303 306 308 316 319 320 323 322 327 328 327 330 332 334 338 345 347 345 346 347 348 345 344 343 343 336 341 327 324 329 346 345 346 350 352 334 347 331 326 349 352 349 351
303 306 308 312 317 320 321 319 322 322 324 328 331 333 335 338 345 348 349 348 348 347 348 346 346 345 340 341 321 321 345 346 345 345 347 352 327 323 319 325 352 349 350
302 306 306 308 315 320 320 318 318 322 322 324 326 331 333 334 338 340 344 349 350 348 348 348 347 348 347 328 323 319 323 338 347 346 348 349 323 319 318 321 326 324 326
302 305 305 307 312 317 319 316 318 319 317 319 322 324 330 331 334 336 339 345 349 349 348 348 347 348 351 349 322 318 318 323 342 350 342 329 319 317 320 319 321 319 336
301 303 303 305 309 315 318 316 317 316 314 315 317 321 324 326 329 333 335 339 347 348 348 348 348 349 350 350 351 337 329 322 329 336 343 338 334 329 336 334 328 334 340
301 303 303 304 308 315 315 313 313 311 309 311 313 317 321 321 322 326 329 333 339 344 349 349 350 349 347 349 339 339 345 342 334 337 346 348 348 347 346 344 346 341 340
302 302 303 305 307 313 313 310 310 308 307 307 310 314 316 317 318 322 325 317 314 311 310 313 335 350 331 320 313 312 310 311 312 335 344 344 346 347 346 346 347 347 341

GFSMW_sfc_thetae_078.txt.gz
Theta_e
342 345 347 347 343 345 348 352 354 356 355 354 351 351 350 354 355 358 361 362 363 362 363 359 361 361 360 358 360 356 356 347 354 344 344 345 347 348 352 354 354 352 355
339 343 346 347 343 343 348 352 355 357 357 354 354 354 354 354 356 358 362 361 362 364 362 362 359 362 356 362 362 359 351 349 352 344 343 337 340 343 346 350 350 352 354
339 343 345 346 344 342 347 352 356 357 357 358 358 360 361 361 356 356 357 360 362 362 364 362 361 362 360 352 360 358 357 344 354 354 346 338 333 341 344 348 348 352 351
342 343 345 345 345 344 346 352 356 357 357 361 359 359 352 348 351 354 355 359 363 362 362 363 363 364 359 360 358 358 359 357 345 350 351 354 350 337 336 343 345 347 346
341 342 344 346 347 347 347 351 356 359 358 361 361 356 356 352 353 353 362 364 365 361 361 363 364 364 359 363 362 361 361 355 349 348 349 354 350 352 343 335 337 343 347
342 343 345 346 346 348 349 351 355 359 361 361 361 360 358 357 352 354 354 355 357 359 363 361 363 364 362 363 361 361 362 360 358 352 350 346 343 343 344 342 343 342 347
341 342 343 344 346 347 349 351 354 356 359 359 360 361 361 360 360 362 350 356 353 355 363 365 362 359 365 365 364 366 361 359 354 358 351 354 353 354 352 346 343 343 347
344 342 344 345 346 347 349 350 352 356 358 358 360 362 363 357 355 357 353 353 353 356 362 365 361 362 362 363 365 357 355 360 354 357 360 353 355 357 356 350 346 343 344
343 344 345 345 347 348 349 351 353 356 357 356 359 360 362 361 356 358 358 355 360 356 361 364 363 362 362 363 365 357 359 360 360 359 358 355 353 355 357 356 353 346 339
341 344 346 346 347 348 350 352 354 355 357 356 357 357 359 361 361 359 358 359 357 362 360 364 364 362 364 365 366 360 361 361 357 356 359 361 354 355 355 354 353 352 347
337 340 343 346 347 348 349 350 352 354 355 356 357 357 357 358 360 358 358 360 360 361 363 365 365 364 362 364 366 364 361 361 360 361 361 361 363 355 352 353 352 351 351
328 331 336 344 347 348 349 349 350 350 353 354 357 356 359 358 356 358 358 361 360 361 364 366 366 361 362 364 366 362 359 360 358 360 361 360 356 362 361 355 360 358 357
322 326 329 332 337 339 348 348 349 349 350 353 351 353 353 355 355 356 359 360 360 360 359 362 365 364 361 363 365 365 364 361 360 359 361 360 360 360 356 359 354 354 355
320 322 323 325 328 334 338 341 348 349 350 350 352 350 353 354 354 356 359 359 360 360 359 360 362 363 363 363 365 365 365 363 361 363 363 362 360 360 362 361 362 361 359
317 319 320 322 324 325 330 334 338 344 352 351 350 352 355 356 356 354 357 359 360 360 361 359 360 362 361 359 365 365 364 364 364 364 365 364 360 349 352 356 365 365 358
314 317 319 322 322 324 326 326 328 336 347 351 351 354 355 357 357 357 351 358 359 360 361 359 358 357 353 340 338 352 362 363 364 362 364 366 354 353 341 341 341 350 361
311 313 315 317 320 322 325 325 326 332 334 345 352 352 354 355 356 358 358 358 357 359 360 359 359 360 360 334 333 339 356 357 361 363 362 359 357 357 363 344 338 339 336
312 313 313 315 318 320 321 327 329 331 330 330 332 335 348 351 355 356 357 358 358 358 358 358 361 360 360 334 331 335 356 358 361 363 363 365 365 361 360 361 360 362 363
313 313 314 316 319 319 321 324 326 332 330 327 328 330 333 340 349 353 354 358 357 357 357 358 359 360 362 330 329 336 354 352 359 362 365 366 367 349 334 361 362 361 362
312 313 314 315 317 318 319 321 323 325 329 330 329 330 332 332 335 346 352 356 359 356 356 357 359 349 360 336 324 333 352 352 351 360 364 339 354 336 329 361 363 360 360
312 312 314 314 316 317 317 318 321 322 327 329 330 329 330 332 334 335 343 352 357 362 360 357 360 362 356 357 323 321 353 351 351 351 352 354 329 326 322 327 364 357 358
310 311 311 312 315 317 316 316 318 323 327 328 328 329 329 327 331 337 339 339 347 349 356 359 361 359 364 338 329 319 322 341 354 354 354 356 325 319 320 326 332 325 329
310 311 311 311 313 315 316 315 318 320 323 326 326 326 328 329 330 331 335 338 342 344 349 352 351 358 359 362 327 320 318 321 342 356 347 328 318 314 320 318 322 322 349
309 311 312 311 312 314 315 316 318 319 320 323 324 324 324 324 327 327 329 332 334 335 340 343 350 354 359 362 359 355 343 323 332 336 345 343 336 328 338 343 335 346 352
307 307 309 308 306 309 311 315 318 320 318 320 321 321 321 323 323 325 326 325 327 327 330 333 340 342 349 358 325 328 360 363 347 344 353 352 352 353 354 355 356 356 354
306 307 306 308 309 309 310 313 313 313 316 318 318 318 318 319 320 320 322 313 308 305 304 304 311 330 320 314 312 308 311 312 315 345 351 353 354 354 355 355 356 357 351

GFSMW_sfc_thetae_081.txt.gz
Theta_e
337 341 342 344 344 347 350 353 354 358 355 354 351 349 348 353 355 358 361 361 362 363 363 359 359 358 355 355 357 355 354 351 348 349 343 342 345 347 346 349 349 349 351
337 341 344 343 342 345 348 353 355 357 357 354 357 352 361 349 358 358 361 361 362 364 361 364 361 362 354 360 358 357 354 342 352 345 344 339 339 341 343 345 345 347 349
336 339 342 343 342 342 346 352 356 358 359 361 355 358 359 358 352 356 356 360 361 361 363 362 364 362 362 354 359 357 350 349 346 358 345 339 335 340 344 346 344 347 346
337 340 342 343 341 342 347 353 356 358 358 361 362 365 352 346 350 355 358 361 362 361 361 362 363 364 358 360 358 353 362 360 348 348 349 354 352 343 338 340 342 344 345
337 339 342 344 344 343 346 352 357 361 363 362 366 357 357 354 354 354 364 362 366 362 359 363 363 363 360 366 362 360 362 355 350 348 346 349 345 348 343 333 336 341 344
340 341 343 346 344 345 345 350 357 362 362 361 361 363 360 359 357 355 354 356 357 358 362 361 363 364 363 363 361 362 361 361 363 356 350 346 340 343 345 339 343 340 346
340 341 341 342 343 345 347 349 355 358 360 359 360 361 361 361 360 360 352 352 351 355 364 364 364 360 364 362 364 365 362 360 355 361 353 353 349 346 349 348 341 342 344
339 340 343 345 343 344 347 350 355 358 360 360 364 366 365 357 354 359 361 356 354 357 367 363 362 362 362 362 364 359 358 365 357 358 365 355 349 348 349 354 345 343 340
341 341 344 342 346 346 347 351 355 358 360 359 363 365 365 363 360 365 362 355 366 356 362 361 361 362 362 363 366 358 363 362 361 360 361 357 352 348 349 349 348 346 342
340 339 341 345 346 346 347 350 354 356 359 360 360 360 361 364 363 361 362 361 362 361 354 361 364 363 362 363 366 365 364 361 357 353 366 364 353 353 350 350 349 349 345
335 338 344 346 344 348 350 350 352 355 357 359 361 361 361 361 363 360 360 361 361 362 362 364 365 363 364 363 369 367 363 361 360 362 361 362 369 355 350 349 349 348 348
329 330 335 338 341 342 344 347 351 352 355 358 363 360 363 363 359 361 361 363 364 362 364 366 364 363 361 365 365 361 358 358 359 359 362 358 355 367 367 355 368 358 363
329 327 325 327 332 338 345 344 342 348 352 356 357 359 358 358 359 361 361 365 364 365 359 363 365 363 360 365 366 365 363 361 361 361 360 359 361 366 358 363 355 353 355
322 324 324 325 328 329 334 340 343 348 346 351 354 356 357 357 358 363 366 362 367 365 363 364 366 364 362 361 362 364 365 364 362 363 364 362 362 365 366 362 367 362 358
321 320 322 323 326 328 328 330 337 344 348 352 351 357 358 358 359 360 362 363 366 366 366 366 364 365 360 358 364 364 364 364 365 364 365 366 361 351 355 356 364 368 360
319 320 323 325 323 325 328 329 332 336 342 342 346 347 357 357 360 360 360 360 362 368 369 366 365 363 355 341 339 354 364 367 369 364 366 368 356 354 342 340 341 351 364
316 317 319 320 323 324 326 326 330 334 332 333 333 336 344 350 354 360 363 361 359 363 367 366 366 366 366 338 333 340 357 362 366 369 368 363 355 357 366 345 340 341 337
317 317 317 319 321 322 323 326 329 333 331 330 330 331 335 341 348 351 356 359 361 361 362 365 367 368 365 337 331 334 359 360 363 365 369 369 367 367 364 366 364 363 364
316 317 318 319 322 321 322 324 327 330 334 332 331 330 331 333 339 343 343 355 361 358 358 359 364 364 367 334 329 335 356 354 358 362 364 364 367 351 338 363 364 366 365
315 315 316 318 319 320 321 321 322 325 327 329 331 335 334 332 333 335 341 345 355 358 363 358 362 351 364 339 328 332 355 356 354 361 363 340 351 337 330 362 363 361 363
314 315 316 316 318 320 320 320 321 321 325 327 330 331 333 334 333 335 340 340 342 349 356 358 363 365 360 362 325 322 358 355 354 354 355 358 331 327 325 325 364 359 361
313 314 315 315 317 318 319 319 320 322 323 324 326 330 331 329 330 335 336 339 341 341 346 353 356 362 365 342 334 321 323 345 355 357 356 357 326 320 321 326 333 327 332
313 314 315 316 317 319 319 318 320 322 323 322 323 326 329 329 330 330 333 332 341 343 342 342 349 351 356 365 331 322 320 323 345 358 349 323 319 314 319 318 320 322 348
311 312 312 312 313 314 315 316 318 319 320 322 322 323 325 325 326 326 326 327 329 331 332 338 337 338 344 358 362 344 337 330 338 338 349 344 336 323 332 342 334 345 352
310 310 309 309 309 311 311 312 316 316 316 317 319 322 322 323 325 327 324 324 329 323 324 325 326 327 330 339 319 319 333 328 326 321 345 356 355 354 356 357 359 360 357
309 309 309 309 309 308 309 312 313 312 311 313 314 316 317 319 320 320 321 314 309 308 305 303 311 323 313 310 306 304 307 310 311 324 345 354 356 355 356 357 358 360 354

GFSMW_sfc_thetae_084.txt.gz
Theta_e
336 337 339 339 342 348 352 357 355 362 360 360 356 352 354 354 355 360 368 360 359 369 370 366 363 351 360 347 365 361 358 355 357 357 350 348 346 347 350 351 347 351 352
334 338 338 339 341 347 352 357 357 359 362 357 362 364 355 358 356 357 366 364 363 369 366 359 361 353 355 364 362 346 357 353 357 350 350 338 343 345 344 348 347 347 350
333 338 338 340 343 347 351 356 358 358 361 364 365 370 362 358 358 356 360 365 365 367 359 366 364 363 363 356 362 364 357 351 355 357 346 341 336 347 346 346 345 346 350
336 340 339 341 341 346 351 356 360 358 359 366 363 368 361 358 355 356 362 365 366 365 366 369 364 358 354 351 359 360 354 360 352 356 354 354 343 343 339 345 342 348 345
337 338 340 344 338 344 347 355 360 359 361 366 364 362 363 350 351 356 362 365 372 369 363 369 369 364 359 355 358 365 366 360 353 351 352 353 354 349 345 337 339 346 348
338 338 342 343 341 345 347 353 358 360 363 362 365 363 363 348 345 352 353 358 365 364 367 367 368 366 352 351 367 367 366 363 366 362 357 352 342 344 345 343 344 342 347
338 339 342 343 342 342 346 353 358 358 361 359 361 364 363 365 361 357 349 355 350 351 362 367 368 366 368 362 366 369 367 367 362 363 358 359 350 344 354 349 348 340 347
341 338 343 344 346 342 346 351 357 358 360 359 362 364 366 361 360 363 365 351 350 354 363 365 367 369 365 364 366 367 364 364 362 361 361 360 357 356 355 348 350 341 345
341 341 343 344 347 342 347 351 356 359 361 360 363 365 366 365 358 364 368 363 359 353 362 354 364 366 367 365 366 362 364 365 365 363 362 362 357 355 355 353 352 348 342
339 339 341 340 347 344 347 353 358 359 360 360 362 363 365 365 366 368 369 372 364 355 351 353 353 366 365 365 365 361 362 362 364 359 362 362 357 357 353 348 355 355 350
332 337 337 335 343 346 344 350 356 358 360 361 362 361 362 364 366 365 368 368 372 358 352 339 348 363 366 364 365 362 360 359 360 362 361 359 364 359 358 356 356 352 354
327 332 335 334 333 337 346 347 345 353 358 360 362 362 364 363 363 363 364 368 367 368 369 362 363 365 363 363 362 362 360 359 359 360 358 358 358 363 363 359 357 358 359
329 330 330 330 331 331 334 340 347 349 352 359 361 361 361 362 362 364 364 366 366 366 364 364 366 365 365 365 364 362 362 362 358 361 360 360 362 362 358 363 359 356 357
326 327 328 328 330 330 331 334 340 343 348 351 347 359 361 361 361 367 366 365 367 365 365 365 366 364 364 364 363 365 364 365 362 364 363 363 363 362 361 360 360 359 358
322 323 323 324 328 329 328 332 336 337 343 346 347 346 350 362 366 366 364 367 366 365 366 365 364 366 364 360 362 363 363 361 360 363 363 364 362 354 357 359 359 358 357
320 322 324 324 324 326 327 330 333 333 336 338 338 344 350 351 356 361 364 364 366 367 366 364 364 362 358 343 339 354 359 363 362 359 363 365 357 352 342 340 342 348 358
317 319 320 322 323 323 328 331 333 333 331 332 334 336 341 344 345 349 357 359 360 362 363 364 364 363 364 342 335 337 358 362 363 362 362 362 356 351 361 343 339 340 337
317 317 318 320 322 321 324 330 333 335 334 333 333 334 334 337 341 345 344 346 352 359 359 360 362 362 363 339 336 336 350 355 358 359 363 362 359 360 362 363 361 356 357
317 317 318 320 324 321 325 328 328 332 331 331 334 334 332 333 334 337 338 341 343 345 353 358 359 360 362 337 329 335 353 354 354 355 359 359 358 348 337 354 357 359 362
316 315 317 318 319 321 321 322 321 326 325 327 331 335 336 337 335 336 338 342 343 344 348 351 358 350 358 340 330 332 356 355 355 357 357 339 346 335 330 350 358 353 353
315 315 316 317 318 320 319 321 322 321 323 325 327 331 335 334 337 339 340 340 342 344 345 348 354 357 354 357 328 324 353 357 355 354 354 356 331 326 325 324 352 351 354
314 315 315 316 318 320 319 319 321 324 325 326 326 327 330 330 330 335 336 336 338 341 343 344 347 357 358 337 333 320 320 329 346 354 357 356 322 316 317 323 329 326 331
314 314 314 316 318 317 316 315 319 322 322 321 323 327 328 328 332 333 330 330 335 337 340 340 341 341 342 347 321 322 320 324 332 341 337 323 322 319 323 318 319 318 339
312 312 312 312 313 314 314 314 316 319 318 318 319 320 320 324 328 327 326 327 325 327 330 330 328 329 331 344 338 329 328 325 329 330 331 329 324 325 332 335 344 334 343
311 311 310 310 310 311 311 312 314 314 311 312 314 316 317 319 320 325 326 325 329 322 323 324 323 322 321 327 312 312 324 328 325 320 329 336 345 352 354 355 354 355 350
310 310 310 310 309 309 309 309 310 310 309 308 308 309 311 314 315 317 318 315 308 306 303 303 311 322 313 307 304 301 299 300 303 320 327 331 336 343 344 349 351 354 351

GFSMW_sfc_thetae_087.txt.gz
Theta_e
332 332 336 339 345 343 344 345 348 350 348 349 342 345 341 345 351 353 354 350 350 356 353 352 346 348 347 343 350 347 346 346 346 342 338 339 334 335 342 343 343 342 347
329 329 334 339 343 342 343 349 349 348 348 348 349 348 347 347 349 354 355 353 354 353 355 351 350 348 346 349 346 340 344 342 341 337 334 328 333 338 336 339 341 340 343
328 329 331 337 340 343 345 348 347 348 348 349 351 354 352 351 349 352 351 356 357 356 353 353 352 345 346 343 345 349 341 338 343 342 335 331 327 335 336 333 335 333 339
330 331 330 335 339 343 348 350 348 346 346 351 345 346 342 343 344 346 351 351 357 357 356 354 353 353 345 342 345 352 346 339 338 339 343 341 335 331 328 334 332 335 338
334 332 333 336 341 344 346 351 349 347 345 350 350 348 346 343 344 350 348 353 353 358 355 354 352 350 349 347 348 349 348 347 347 346 343 341 341 343 333 329 327 334 336
334 336 336 338 340 343 346 351 349 348 347 351 349 348 346 342 343 343 349 347 350 351 351 356 353 353 346 341 342 350 349 350 348 351 345 342 334 332 337 333 333 329 336
334 335 336 339 338 340 344 346 351 347 349 350 348 351 349 348 347 348 344 346 346 345 347 353 353 352 349 346 346 351 349 352 346 347 347 347 346 343 341 336 336 333 337
333 335 334 339 340 338 344 346 349 349 349 348 350 351 350 350 348 351 346 350 342 346 349 353 353 355 352 353 353 352 351 349 349 346 344 346 347 347 343 342 336 332 337
329 330 331 340 343 338 343 346 348 349 349 350 350 353 352 351 349 349 349 348 347 352 353 350 353 353 354 352 353 351 351 351 349 347 348 347 348 345 345 348 337 335 328
336 333 337 339 340 341 345 348 350 350 351 351 353 353 353 354 354 355 353 352 350 349 349 350 348 352 354 354 352 349 351 350 350 352 347 348 349 347 348 347 345 342 336
334 337 338 336 338 338 343 347 349 352 352 352 353 352 355 355 354 354 355 352 349 348 347 345 341 347 352 353 352 350 350 352 349 348 350 346 350 347 348 350 347 345 343
329 333 335 337 338 336 337 340 341 344 347 354 354 354 355 355 356 355 355 354 349 349 345 338 337 343 350 354 352 351 351 350 348 348 349 347 352 348 350 348 346 345 343
326 328 329 330 332 333 336 337 339 340 344 343 349 348 354 355 355 356 355 355 355 352 352 349 348 351 352 352 353 352 351 352 349 350 349 349 348 348 347 345 350 348 348
325 326 326 327 328 331 333 334 336 340 341 342 339 343 344 348 353 356 356 356 356 355 353 354 352 355 354 355 355 354 351 351 354 352 353 351 347 348 349 347 346 348 346
319 321 322 324 327 329 331 333 334 337 338 338 339 337 345 347 350 350 353 353 355 356 356 355 355 357 355 356 354 355 354 352 351 352 354 355 355 352 351 351 348 347 346
319 319 321 321 322 325 326 330 329 332 336 334 336 338 342 343 342 347 350 351 350 351 354 355 355 354 357 346 342 350 351 355 351 349 352 355 354 350 342 341 343 350 348
315 315 316 317 318 322 327 328 328 331 331 332 332 334 337 339 340 342 341 339 342 351 350 351 352 354 354 338 336 337 345 350 352 353 352 352 355 349 352 344 338 337 336
313 313 314 313 314 317 321 328 330 331 331 330 331 331 332 334 336 338 337 339 339 341 346 349 351 352 354 337 331 335 340 343 346 350 353 354 353 351 350 353 353 349 348
310 312 315 315 315 315 317 319 322 320 320 322 326 331 332 331 331 332 334 337 338 340 341 343 347 347 350 337 330 331 342 344 346 348 349 351 351 345 336 347 347 348 354
310 310 313 314 313 313 316 316 317 317 317 319 320 323 329 327 326 329 330 334 336 339 344 344 345 342 349 338 326 330 344 347 349 349 349 335 342 332 329 343 346 345 348
309 311 312 312 313 315 315 315 314 314 317 318 321 322 322 323 324 325 327 328 329 333 336 340 341 344 344 337 323 321 336 346 347 349 350 351 323 317 316 316 339 344 343
310 311 311 311 311 312 311 311 310 314 315 315 315 316 319 322 322 322 325 323 322 325 330 335 337 342 336 321 318 317 318 325 334 336 341 340 319 317 315 321 322 320 324
308 309 309 309 310 310 309 306 308 311 311 310 310 312 314 314 317 321 321 319 321 319 322 326 323 327 330 335 317 318 321 323 330 334 329 320 316 314 324 319 320 318 327
305 307 306 306 305 307 307 307 308 308 306 305 306 308 309 309 310 313 317 316 317 317 315 315 315 316 316 321 331 322 323 322 328 329 330 325 320 319 325 327 334 339 344
305 305 304 305 303 304 305 305 305 305 303 303 304 303 305 305 306 309 309 311 312 309 308 312 314 313 313 316 316 309 314 320 319 313 322 325 327 329 334 343 349 349 344
304 304 304 303 302 304 302 302 303 303 301 300 301 302 301 302 304 306 307 307 305 304 303 301 301 309 308 305 302 300 300 298 299 313 317 321 324 325 328 333 339 344 345

GFSMW_sfc_thetae_090.txt.gz
Theta_e
332 339 341 342 342 342 341 341 339 342 345 344 341 340 340 345 349 350 353 353 352 353 351 350 343 344 340 341 345 344 342 343 342 335 336 335 333 337 339 340 340 341 346
330 334 339 341 341 340 341 343 341 343 344 345 342 344 344 345 348 349 350 349 349 353 351 349 345 345 345 347 344 339 340 339 339 335 329 327 329 334 335 339 340 338 342
327 331 337 338 339 339 343 344 345 343 344 346 346 349 347 347 347 348 350 351 354 353 353 350 348 343 342 341 342 345 338 336 339 340 332 327 324 331 333 331 336 335 336
328 331 336 337 337 340 346 346 346 343 344 347 346 346 344 340 343 346 347 351 355 352 352 352 350 348 343 340 341 349 343 337 339 338 343 337 331 329 325 330 332 330 333
335 330 334 338 339 341 346 346 346 343 343 347 348 344 341 341 344 346 348 347 349 355 354 351 348 347 344 340 344 346 345 346 344 343 341 339 335 334 330 326 326 329 333
336 336 339 337 340 342 346 344 343 340 341 345 348 345 342 340 343 344 344 345 346 347 350 352 349 347 346 343 342 348 347 346 345 346 343 339 335 335 334 330 330 326 330
334 335 336 335 338 340 346 345 342 339 341 346 346 346 344 341 343 342 345 344 345 345 347 351 349 348 344 342 339 347 347 346 344 343 343 343 343 343 339 334 332 332 335
334 335 337 338 340 340 344 347 343 341 342 345 346 347 347 346 345 345 343 346 344 343 347 351 351 350 350 348 349 347 347 346 346 343 342 340 343 343 340 339 331 329 331
332 334 336 339 340 340 342 346 346 344 344 345 345 346 348 347 345 347 344 348 345 346 348 349 351 351 351 348 349 347 347 347 346 344 343 343 344 343 343 342 339 333 326
331 332 334 339 341 340 339 344 349 347 346 347 346 348 348 349 348 346 347 346 345 347 349 348 350 350 351 350 349 347 346 347 347 348 346 343 345 345 346 345 343 340 333
333 337 335 338 339 340 341 343 346 346 346 347 348 348 350 350 350 350 350 348 347 347 346 346 348 347 349 351 349 346 347 346 346 346 346 345 344 343 343 346 343 341 341
331 336 336 337 337 338 340 340 341 342 343 344 344 348 350 350 351 351 351 351 347 346 345 344 341 341 346 349 349 347 350 346 346 345 344 346 348 343 345 346 341 343 342
328 329 332 334 335 336 338 340 341 341 341 342 342 345 345 346 350 351 352 352 347 345 345 341 337 335 342 347 351 349 348 349 348 346 345 346 345 343 343 344 342 344 345
326 327 327 328 331 334 335 337 341 341 341 340 338 336 341 343 345 349 351 349 351 347 347 347 345 346 349 349 350 351 346 348 349 350 349 349 347 344 343 344 343 343 342
323 324 325 326 329 332 332 334 338 339 340 338 337 338 342 342 344 348 348 352 350 352 351 350 351 351 352 353 350 352 351 349 348 350 351 351 351 346 344 349 346 343 342
319 321 323 325 325 328 329 330 332 334 336 335 335 337 340 341 342 341 340 343 346 348 349 351 350 349 355 341 338 346 350 351 350 348 348 350 349 347 341 340 340 343 344
314 315 317 320 324 325 326 327 330 332 330 330 332 334 337 337 338 338 339 338 339 341 344 344 347 349 350 339 334 336 342 345 347 349 348 349 354 347 352 344 337 335 335
312 312 313 312 314 322 328 328 327 328 330 330 330 332 332 332 333 334 334 337 338 338 339 342 343 343 349 336 332 334 341 342 343 346 350 350 351 349 348 348 347 348 347
310 311 312 312 314 315 318 317 316 315 317 318 320 325 328 328 331 331 333 334 336 336 338 341 340 342 345 330 326 330 342 342 344 346 346 347 348 340 333 344 346 346 347
310 310 310 312 313 313 315 314 313 313 312 314 317 320 322 323 326 326 327 332 331 333 336 337 341 336 346 320 319 327 340 341 344 347 348 334 338 326 320 338 345 344 345
309 311 311 309 308 311 311 309 310 309 311 313 313 314 314 316 320 320 321 324 321 323 326 331 336 337 331 325 318 319 331 331 335 338 343 343 320 315 314 315 329 334 337
310 309 308 307 307 308 307 306 306 308 308 308 308 308 310 312 314 315 319 319 318 320 321 324 333 336 334 321 317 315 317 322 326 327 332 335 319 312 311 317 322 319 322
307 308 305 304 304 305 305 303 303 305 305 304 304 304 305 307 308 310 311 312 313 312 311 312 314 315 318 327 314 315 317 319 323 329 325 317 312 312 317 320 319 319 328
304 304 303 302 301 302 302 301 302 303 302 301 301 302 302 302 303 307 309 309 308 306 306 308 308 309 311 313 315 320 315 316 319 322 321 320 317 316 318 321 330 334 336
303 303 302 300 300 300 300 301 302 301 300 299 300 299 300 299 301 302 304 305 304 303 303 305 305 306 307 309 303 302 306 310 308 304 312 315 317 319 321 324 327 330 341
302 301 301 300 300 299 299 300 300 299 298 298 298 298 297 298 299 299 299 302 301 300 298 297 299 304 302 299 298 297 298 297 297 306 308 310 313 316 318 321 324 327 332

GFSMW_sfc_thetae_093.txt.gz
Theta_e
338 340 341 342 342 339 338 340 340 343 342 340 338 338 340 342 345 344 348 348 348 351 348 348 343 342 338 340 344 341 339 340 340 334 334 331 333 336 338 339 339 341 344
335 337 338 340 340 338 339 338 339 341 342 341 340 342 341 345 346 347 349 350 350 351 350 345 341 343 343 343 344 342 336 336 338 334 327 325 326 333 334 336 338 337 338
333 335 336 339 339 337 339 338 339 341 344 343 343 345 345 345 345 345 347 347 348 351 351 348 345 342 342 340 341 344 340 334 337 338 332 325 322 327 330 329 334 336 335
333 336 336 337 338 338 341 339 341 340 343 345 343 342 341 339 340 343 346 348 350 351 349 349 347 344 340 339 340 348 340 337 338 338 341 335 330 329 324 328 331 331 331
332 335 336 337 339 339 341 342 341 339 342 343 344 342 339 340 342 343 345 344 348 352 350 349 347 345 341 338 341 345 343 344 342 340 338 336 332 333 328 325 325 328 330
331 336 337 338 339 341 343 343 341 339 342 344 345 343 341 339 340 342 343 344 344 347 349 350 346 345 344 342 341 346 344 344 343 343 340 337 335 335 333 329 329 328 330
333 335 335 336 335 339 342 343 341 337 340 342 344 344 342 341 341 342 344 342 342 344 346 349 347 345 345 342 339 344 343 344 342 341 340 343 341 341 337 332 329 330 334
334 334 337 336 336 339 343 342 339 337 338 341 343 345 344 341 340 342 343 343 343 344 346 348 349 347 347 345 341 345 345 344 344 342 341 339 341 341 339 337 331 328 328
332 334 337 339 340 338 343 343 340 339 339 340 343 343 345 344 342 343 344 343 346 345 344 347 348 346 346 346 346 345 344 346 344 342 341 341 343 341 342 340 338 331 326
331 334 336 339 340 338 341 344 344 342 342 341 342 344 345 346 345 344 345 343 345 345 343 347 347 349 350 348 345 345 345 343 344 344 344 341 343 344 343 343 341 338 331
331 332 336 339 340 341 342 343 344 344 343 344 342 342 345 346 347 345 346 347 345 344 346 346 346 347 347 348 346 345 345 344 344 343 343 342 342 341 340 344 341 340 338
333 333 335 337 338 339 340 341 343 342 341 341 343 345 346 347 347 344 347 349 347 343 344 345 345 345 345 347 347 347 348 345 344 343 342 342 347 341 341 344 339 341 340
329 334 336 336 337 338 340 340 341 340 340 339 340 342 343 344 346 346 348 349 349 344 344 343 341 340 339 342 347 349 345 346 345 346 344 342 343 342 341 340 340 341 343
327 328 330 333 335 336 338 340 341 341 340 339 339 341 340 340 343 344 346 346 350 347 344 343 341 338 338 340 344 348 346 346 346 347 347 346 346 344 342 341 341 341 340
325 326 327 329 332 333 336 339 340 340 340 338 337 338 341 341 341 340 341 344 347 349 347 345 346 346 347 349 348 348 349 347 346 346 347 349 348 345 343 347 345 343 340
323 325 326 327 329 330 331 333 334 336 338 337 336 338 338 338 337 338 339 339 340 342 344 345 346 344 351 343 338 345 347 348 348 347 347 348 346 345 339 337 339 344 344
319 322 324 326 327 327 329 329 330 332 331 331 333 335 336 333 334 334 335 336 336 338 339 342 344 346 345 334 332 336 344 344 344 346 347 348 351 345 348 342 335 336 334
313 313 315 321 326 328 327 322 321 322 324 326 329 332 331 331 332 332 331 333 333 334 336 338 339 339 343 328 328 333 338 341 341 342 344 346 347 348 347 347 346 346 346
312 311 314 316 317 316 315 315 314 315 316 316 319 321 324 328 329 328 330 331 330 329 331 336 338 338 340 321 322 333 340 341 342 343 344 344 344 334 325 340 343 344 346
311 314 315 314 312 310 312 311 310 311 310 312 313 313 315 319 319 322 324 329 326 327 329 332 337 332 333 320 323 330 336 332 334 338 341 325 327 319 316 331 332 334 339
310 310 310 308 307 308 308 307 306 305 307 309 309 309 310 312 313 316 320 319 319 320 328 334 334 333 329 328 315 317 326 324 324 328 331 334 323 321 318 314 323 331 334
308 308 306 304 304 305 305 302 302 304 305 305 305 304 304 307 309 309 310 312 311 311 311 313 314 319 320 316 315 313 315 319 320 322 325 326 313 310 311 313 318 315 318
306 305 303 302 302 302 302 300 300 302 302 302 301 301 302 303 304 305 305 305 305 306 307 307 307 308 311 310 308 308 310 313 317 321 320 315 312 311 316 317 317 317 325
304 303 302 300 299 300 301 300 300 300 300 299 298 299 299 299 300 302 303 301 301 302 304 303 304 305 307 305 303 303 304 308 309 311 309 312 313 313 316 318 322 326 330
302 301 300 299 298 298 299 299 299 299 298 297 297 296 297 296 297 298 299 300 299 300 299 299 300 301 301 300 299 297 300 301 301 300 307 309 309 311 312 315 318 322 324
300 299 299 298 297 297 298 298 298 298 296 295 295 295 295 295 296 296 296 300 300 299 297 296 297 299 299 297 296 295 296 297 298 304 304 306 307 308 311 314 318 322 325

GFSMW_sfc_thetae_096.txt.gz
Theta_e
334 338 341 343 341 340 340 342 342 342 342 341 340 341 342 345 347 348 351 351 352 353 352 351 350 348 346 348 347 345 347 344 343 343 341 339 340 340 344 344 345 346 347
333 337 339 340 340 338 340 341 342 341 342 342 342 343 343 346 349 348 351 352 353 354 353 349 347 348 349 350 349 345 343 343 344 341 334 334 336 341 342 341 343 345 345
333 336 336 339 339 337 338 340 340 342 341 342 345 345 347 347 347 348 350 350 349 353 351 348 348 348 348 346 348 350 346 342 344 343 340 334 332 333 338 340 340 343 344
334 335 335 337 338 338 340 341 340 342 343 343 344 344 341 340 343 346 350 352 352 354 354 353 349 348 347 348 348 351 345 347 344 345 344 341 339 336 335 339 339 339 340
334 334 336 338 339 340 339 340 340 341 344 344 345 343 343 343 345 346 347 349 350 353 351 353 351 351 347 348 348 352 351 352 350 345 344 344 340 340 336 335 338 343 338
334 336 338 339 339 340 340 340 340 339 343 344 344 344 343 342 343 345 346 348 350 352 354 353 351 351 350 347 349 352 352 350 349 348 347 344 343 342 340 337 337 338 342
331 335 335 336 338 338 339 341 340 338 341 343 345 345 344 344 341 344 345 346 347 349 350 353 350 349 350 349 347 351 352 352 350 349 347 346 346 346 343 339 337 337 342
332 335 335 336 337 339 341 342 340 339 340 343 344 345 344 343 344 345 347 347 347 349 351 352 353 351 350 348 346 349 350 351 350 349 348 347 348 347 346 345 342 340 340
332 335 336 337 338 338 342 342 341 340 340 342 344 345 346 344 343 346 348 347 349 349 350 351 353 351 351 352 352 351 351 352 351 349 349 348 349 348 348 347 345 342 336
331 333 334 336 338 340 343 344 342 340 341 342 343 344 346 347 347 347 347 347 347 350 349 348 349 351 352 353 350 351 351 350 349 350 350 349 349 351 350 349 348 345 341
332 334 337 339 340 342 343 345 343 341 342 342 342 344 345 348 349 347 349 350 350 349 347 348 349 350 351 353 352 350 350 350 350 350 350 350 350 348 348 349 349 347 344
330 333 336 338 338 339 342 343 343 342 344 345 345 343 345 347 348 347 348 351 351 349 346 348 349 350 349 351 352 350 352 347 349 349 349 347 349 350 349 349 350 348 349
332 332 334 335 336 338 340 342 341 340 340 341 342 345 345 347 347 348 350 351 352 351 348 347 347 344 346 348 350 351 351 350 350 348 349 348 349 350 349 349 347 347 348
331 333 333 335 336 337 339 339 340 340 340 341 341 340 341 342 343 345 346 348 351 351 348 347 347 346 346 344 344 349 352 352 351 351 351 350 350 348 350 349 350 348 347
327 329 331 333 334 336 339 340 341 340 340 338 339 339 340 340 341 341 341 343 344 347 350 349 348 347 345 345 347 349 351 352 352 353 353 353 351 345 346 353 354 351 349
325 327 329 330 332 334 336 336 335 339 340 338 338 338 338 337 336 339 339 339 339 341 343 345 347 348 349 336 336 347 352 353 353 353 355 355 348 348 338 337 337 346 352
324 325 326 327 327 329 331 330 331 333 334 334 335 336 334 334 334 335 335 334 335 337 339 341 341 341 344 328 329 335 347 351 351 351 352 351 353 348 353 343 337 336 333
317 320 324 325 320 320 319 320 321 322 322 322 325 329 333 332 332 330 330 330 330 332 334 337 339 341 338 323 324 331 343 346 345 346 347 347 348 339 339 347 350 352 353
315 317 318 318 317 316 316 315 315 315 314 314 315 317 323 324 326 328 329 328 326 326 328 333 339 331 326 318 323 333 341 339 340 343 340 341 335 324 322 338 340 343 346
318 316 315 315 314 315 314 311 310 310 309 311 311 314 315 317 319 323 326 327 325 327 330 334 333 326 325 312 315 323 328 327 330 334 336 327 325 321 321 327 328 331 339
313 314 313 309 309 309 309 307 307 306 308 309 309 309 311 312 314 314 315 316 315 317 324 322 319 316 313 310 309 311 319 321 326 327 328 330 316 314 313 312 325 325 326
308 308 306 305 306 306 306 304 304 305 306 306 306 307 307 309 310 311 308 309 311 312 311 311 313 314 313 308 307 307 309 312 319 320 323 324 310 308 309 316 315 312 315
305 306 304 302 303 304 304 303 303 305 304 303 303 303 304 306 307 306 305 305 306 307 307 307 307 308 306 304 304 304 306 309 312 315 312 310 308 309 315 315 315 317 331
303 303 302 301 301 302 302 302 302 303 302 301 300 301 301 301 303 304 303 303 302 302 302 302 302 303 301 300 300 301 303 306 309 309 312 313 312 312 314 318 321 326 328
304 303 302 301 300 301 301 301 301 301 299 299 299 299 299 299 300 301 301 301 300 300 299 298 300 298 296 296 297 296 297 300 303 303 314 313 312 313 315 317 320 323 325
302 301 301 300 299 300 299 300 301 300 298 297 297 297 298 298 297 297 297 298 298 297 295 295 297 297 295 295 294 293 294 296 298 307 307 307 309 309 310 312 315 317 319

GFSMW_sfc_thetae_099.txt.gz
Theta_e
339 343 346 347 348 350 351 352 353 356 355 353 351 352 350 353 355 357 358 359 361 362 364 359 360 359 358 359 358 357 355 352 355 351 350 350 351 351 354 356 356 354 354
338 340 344 346 347 349 350 352 353 356 355 355 355 356 354 353 357 358 360 360 361 362 363 362 358 359 358 360 360 359 354 353 354 349 348 340 343 349 349 352 352 352 354
336 340 342 344 347 347 349 351 354 356 356 357 355 355 356 355 355 356 357 361 360 360 362 360 360 361 360 356 360 359 356 350 354 356 348 342 337 346 350 349 350 353 353
338 340 341 343 345 347 350 352 355 355 355 356 356 357 351 354 352 356 364 364 361 360 360 362 360 361 359 359 359 361 359 357 351 355 353 354 352 343 339 350 349 352 347
336 339 341 343 346 348 348 351 354 355 355 355 358 356 354 353 355 357 360 364 363 363 360 362 362 361 358 359 359 363 362 358 353 350 354 356 354 354 347 339 344 350 351
336 340 343 344 346 348 347 349 352 353 356 354 356 357 357 355 353 354 353 355 357 360 362 362 362 361 361 358 358 364 361 360 357 354 353 348 347 348 348 346 347 347 351
336 339 340 339 345 345 346 347 350 351 353 354 355 356 358 358 357 358 354 355 364 362 360 364 363 360 361 360 359 362 362 361 359 360 353 354 352 354 354 351 347 345 350
335 339 341 341 344 345 346 348 349 350 351 353 356 358 360 355 356 358 355 355 356 356 361 361 364 362 361 359 359 357 359 362 360 358 360 356 357 356 356 351 349 344 349
335 336 341 343 345 342 345 348 350 350 350 350 354 356 356 356 356 358 358 357 359 358 359 360 361 362 362 362 360 354 359 361 362 361 361 358 358 359 359 358 354 349 339
335 338 338 339 342 343 345 347 350 350 350 350 353 353 356 357 357 358 358 358 360 359 359 359 359 360 361 362 362 359 361 360 359 357 360 361 358 358 359 357 357 354 347
336 339 340 340 340 344 343 347 349 348 349 349 351 355 355 357 358 357 358 359 360 359 359 359 357 357 357 361 363 362 359 359 359 360 359 359 362 356 355 356 357 354 353
336 340 341 342 340 339 343 346 351 348 352 352 351 352 356 356 357 357 359 360 359 360 359 359 359 360 359 360 361 360 359 358 357 357 359 358 356 360 360 355 358 356 357
335 338 340 342 342 340 340 343 345 347 346 349 352 353 355 354 354 356 358 359 359 361 360 359 359 359 357 356 358 359 359 359 359 359 357 357 358 360 358 360 364 355 355
336 338 338 340 342 343 342 341 341 343 343 346 347 347 351 354 354 357 356 359 360 359 360 359 359 359 356 355 355 355 358 360 358 359 360 359 359 359 360 357 361 358 359
332 336 337 339 341 342 344 343 343 340 339 340 340 341 345 346 351 352 353 352 356 357 359 359 359 358 356 353 355 355 355 355 359 361 360 361 357 348 348 360 364 363 358
329 333 336 337 338 340 342 343 342 340 340 339 338 341 340 343 346 348 348 348 349 352 353 353 353 352 354 328 331 345 358 360 360 360 362 362 353 351 337 336 337 345 359
328 329 330 331 333 336 337 336 338 340 340 340 340 339 337 337 338 342 343 342 345 347 348 349 350 345 336 324 326 334 357 359 360 359 359 358 357 349 354 347 339 338 333
324 326 322 321 321 324 325 326 327 327 327 328 330 334 334 334 334 338 338 339 341 341 344 347 338 333 326 320 323 332 354 354 352 347 346 343 334 330 332 349 355 357 359
320 320 319 318 319 318 319 320 320 321 321 320 321 325 333 331 332 332 333 335 337 339 345 336 334 327 322 314 318 333 336 338 337 337 331 331 329 324 324 333 337 343 350
318 316 317 317 315 315 316 314 315 316 319 318 318 321 324 328 326 331 330 333 335 337 332 323 320 314 316 310 311 323 332 332 332 333 333 319 321 314 315 330 331 331 333
315 315 314 313 313 315 317 316 317 315 316 317 318 319 322 323 323 322 323 325 325 321 319 318 316 311 308 307 307 309 319 320 327 326 326 324 313 309 309 311 329 326 325
311 311 310 310 312 314 314 311 310 313 315 316 316 317 318 318 317 319 319 317 320 318 319 318 315 311 308 305 305 305 307 310 318 317 319 319 308 307 309 317 312 312 319
313 313 311 310 313 315 316 313 312 313 314 313 313 314 314 314 315 316 316 315 316 314 311 311 312 309 307 305 304 304 305 308 314 317 313 311 309 311 316 315 315 318 329
314 314 313 312 311 312 312 312 312 312 312 311 311 312 311 311 312 312 312 311 310 311 311 309 306 304 303 301 303 303 305 308 310 311 317 314 314 313 316 320 322 325 325
312 313 312 311 310 310 310 310 311 311 309 309 309 309 309 309 308 307 307 304 303 304 305 305 303 303 300 298 296 296 302 305 305 309 312 311 311 313 314 316 319 321 322
309 310 311 310 309 307 307 309 310 309 308 306 306 306 306 306 306 304 300 297 297 296 294 294 297 299 295 294 294 293 294 296 298 306 306 305 306 306 307 310 310 313 312

GFSMW_sfc_thetae_102.txt.gz
Theta_e
342 346 348 348 348 350 352 354 354 359 357 354 351 351 350 354 355 357 361 362 362 361 363 361 361 361 358 360 362 359 356 349 354 347 345 345 349 349 351 352 353 351 354
340 343 347 348 347 350 352 355 356 360 359 357 358 356 353 353 354 357 361 361 361 360 361 365 361 363 357 363 362 361 352 352 356 345 346 339 341 345 347 351 350 352 354
337 341 345 347 349 349 352 354 358 360 361 361 361 360 360 359 355 356 355 359 361 361 361 362 363 363 360 355 363 360 361 347 355 359 348 338 338 341 345 347 348 352 353
340 341 343 346 348 350 352 355 358 359 361 364 359 362 353 354 353 356 356 357 359 360 360 362 362 365 362 363 362 360 361 360 350 354 355 360 358 341 336 343 346 348 347
339 341 343 346 349 351 352 354 359 360 359 363 362 361 355 352 354 356 359 360 360 361 360 362 365 365 359 362 363 364 361 359 353 351 356 357 356 357 344 339 343 344 352
339 342 345 347 348 351 352 353 358 361 361 361 361 360 357 356 353 354 353 352 357 356 358 359 361 364 364 363 359 363 358 364 360 355 354 349 347 347 346 345 347 345 351
340 340 343 345 348 350 352 352 356 358 360 359 359 359 357 357 358 357 351 357 354 354 357 361 361 359 362 363 362 365 362 361 361 362 354 354 351 353 352 348 346 345 350
339 340 343 346 348 350 352 352 354 356 358 357 360 362 359 352 351 354 357 353 358 355 363 360 360 362 361 362 364 359 356 360 356 357 361 354 357 354 352 350 347 342 345
337 340 344 347 348 349 352 353 354 356 357 356 359 359 357 357 356 358 362 356 359 361 363 362 360 362 361 363 364 357 360 362 361 359 359 356 354 355 355 354 350 346 338
336 338 342 346 346 349 352 352 355 355 355 355 356 355 356 358 356 358 356 360 365 364 363 363 362 360 361 360 362 359 360 362 357 355 360 360 354 355 354 352 351 350 346
338 338 340 346 349 351 350 347 353 355 354 354 355 356 355 355 358 356 356 358 359 363 363 365 364 363 361 362 363 362 360 359 358 359 359 360 364 354 352 351 351 350 349
339 341 340 341 345 347 347 346 349 351 354 355 356 356 353 355 354 356 356 360 358 363 361 363 365 362 358 362 362 359 356 358 355 355 357 357 354 360 361 354 358 356 357
341 342 344 343 345 343 341 343 346 351 352 356 354 359 352 352 354 356 357 361 359 359 359 362 361 358 360 361 361 360 359 359 357 356 356 355 357 357 355 358 355 351 353
339 341 343 344 347 346 346 343 343 348 350 353 355 353 353 353 354 357 359 359 362 357 358 359 361 360 359 360 362 360 359 359 357 359 357 358 357 358 359 356 360 357 357
337 339 340 342 345 346 346 346 342 342 343 347 346 350 354 357 358 358 360 360 361 359 362 360 361 362 360 355 361 362 360 360 359 360 359 359 356 348 349 359 363 360 357
336 340 341 342 344 346 346 346 347 344 347 341 340 341 343 348 352 354 356 358 359 361 362 360 360 361 357 327 330 345 360 362 360 358 360 360 354 352 340 339 338 347 360
335 339 341 342 344 347 348 347 346 346 345 341 341 340 343 343 344 347 351 354 355 356 356 356 356 348 345 322 327 334 359 362 358 358 359 358 352 350 354 347 341 339 336
329 328 329 329 331 337 343 344 344 344 344 342 341 345 341 339 338 338 341 345 348 350 352 349 346 340 329 318 324 336 358 352 350 351 348 346 342 335 335 350 354 357 359
327 324 325 324 322 322 327 329 328 330 332 331 335 339 336 334 334 333 337 340 346 347 347 343 338 332 324 312 315 339 348 345 343 338 338 340 335 317 319 341 343 345 348
322 320 318 319 319 317 321 319 321 323 323 325 325 329 333 339 340 340 336 335 343 335 331 331 326 319 318 308 310 326 341 339 338 338 335 317 319 313 313 335 335 334 333
317 317 315 314 316 318 319 317 316 317 322 325 328 328 329 331 333 334 336 333 325 322 324 321 313 312 311 310 306 308 326 331 330 329 328 326 313 309 310 312 331 327 329
312 312 312 312 314 315 316 316 316 320 323 326 326 327 327 326 329 332 332 328 325 323 323 320 318 315 314 305 305 305 307 312 319 319 319 321 309 308 311 319 314 313 318
311 311 311 312 314 319 318 314 316 321 322 323 323 323 324 325 327 329 324 321 327 325 324 322 320 314 316 312 306 305 307 309 314 314 312 312 309 310 314 315 316 316 327
312 313 313 311 311 314 315 318 317 319 320 320 320 321 321 321 322 321 323 323 323 323 321 320 318 316 309 306 303 307 312 310 313 315 320 315 314 314 317 320 322 325 325
315 315 314 312 312 313 314 314 315 318 317 317 317 317 316 318 316 311 311 311 305 303 318 315 313 314 312 302 297 298 303 305 305 309 315 313 313 313 315 317 317 318 315
316 315 315 313 312 312 312 313 314 317 317 315 315 315 315 314 312 309 304 297 296 295 294 294 300 301 296 294 293 293 295 296 298 310 309 307 308 307 308 306 307 310 311

GFSMW_sfc_thetae_105.txt.gz
Theta_e
339 342 343 344 346 349 349 351 352 357 356 351 350 353 355 359 361 358 361 361 360 361 363 360 359 361 362 361 359 356 355 347 350 348 343 344 348 349 348 349 349 350 351
337 341 343 343 344 347 349 351 355 357 359 353 367 364 354 354 355 357 360 363 360 361 360 367 361 358 357 360 362 362 353 346 348 346 344 336 341 345 345 347 347 349 350
335 341 342 343 345 347 349 352 356 358 360 362 363 359 359 359 351 354 356 358 360 360 362 362 364 361 363 357 363 358 360 345 348 359 353 340 340 339 343 346 346 350 350
336 340 341 343 343 348 350 355 357 359 360 363 365 358 354 348 356 356 358 357 360 360 361 362 362 364 364 366 361 360 365 364 345 348 349 359 356 347 337 341 345 346 347
336 335 340 343 344 349 349 353 358 361 362 364 360 357 358 352 349 355 362 366 363 360 359 362 363 363 359 363 364 361 365 358 356 351 347 354 349 351 343 340 341 343 346
338 340 340 343 345 348 348 352 357 361 360 362 361 362 359 359 352 356 355 355 355 357 360 360 362 363 364 361 359 363 362 364 365 357 354 346 345 347 349 342 345 345 349
336 338 338 343 346 348 350 349 356 357 358 359 358 359 357 357 357 355 355 351 353 352 359 362 362 359 363 363 363 364 364 360 359 367 355 349 347 348 348 346 345 342 346
339 338 341 345 345 346 350 349 354 356 358 358 359 361 361 354 352 357 360 357 353 355 363 361 360 360 363 362 364 359 355 365 357 359 367 356 351 350 349 347 344 340 348
333 336 341 345 348 348 347 352 354 356 357 356 359 360 359 358 357 350 359 359 361 360 363 360 361 361 361 362 364 358 361 363 361 362 361 357 352 349 350 350 348 344 337
337 339 339 342 346 347 350 352 353 355 356 355 355 356 357 358 358 359 359 350 359 360 363 361 361 361 362 363 364 362 363 361 358 352 362 361 354 357 351 349 348 347 344
337 338 342 342 347 350 348 350 350 355 354 355 355 355 354 354 356 354 356 359 359 359 360 362 361 360 361 362 362 366 362 360 360 360 359 358 364 355 353 353 350 347 346
340 338 340 345 349 351 353 353 356 352 354 353 357 356 356 355 352 354 355 359 360 362 361 362 361 359 360 361 361 361 357 357 356 356 358 357 353 361 367 355 369 358 359
340 340 341 344 350 354 354 353 355 352 354 356 356 360 354 353 354 354 355 358 360 360 360 360 359 360 360 359 361 362 359 358 356 356 357 357 357 359 357 359 356 352 356
341 342 343 343 343 344 346 349 350 350 352 352 356 358 356 354 354 362 357 357 361 360 359 361 362 361 360 360 359 359 360 360 358 359 359 360 357 359 360 358 362 360 357
340 341 342 347 349 349 348 349 346 349 346 348 350 350 360 360 359 359 361 358 358 358 359 359 363 359 357 353 357 359 359 360 359 358 359 359 356 350 349 355 363 362 357
339 343 344 346 347 348 349 349 348 350 347 346 348 351 355 355 357 358 358 360 358 359 359 358 359 358 357 328 330 342 359 360 360 359 358 358 359 352 343 342 342 348 359
338 341 342 344 346 348 349 348 348 349 349 344 345 346 348 346 348 350 355 355 356 358 358 357 357 355 350 321 325 335 355 359 360 360 360 359 353 353 356 345 341 340 337
338 339 339 341 343 349 351 352 351 350 347 348 346 346 343 343 346 344 342 345 349 354 355 353 349 344 333 316 318 328 357 360 358 357 356 355 351 328 328 342 352 354 357
332 329 331 332 331 335 344 348 347 347 346 345 347 346 346 343 338 338 340 343 345 347 344 343 341 335 328 311 314 329 355 350 349 345 337 343 334 317 318 342 343 345 346
326 323 322 322 320 321 328 328 328 332 331 334 338 340 342 337 336 336 335 338 338 336 336 331 330 319 324 308 309 319 348 347 341 336 329 317 320 314 314 336 334 333 332
319 318 316 316 318 320 320 318 319 320 325 328 330 331 334 334 337 338 340 336 334 331 330 326 322 318 315 309 307 308 326 328 338 336 332 326 314 311 311 313 330 325 325
314 314 313 314 316 317 317 316 316 321 324 327 329 330 331 329 332 337 331 328 328 327 326 324 323 320 317 307 306 307 308 313 326 324 322 322 309 308 310 317 314 313 317
311 313 313 314 317 318 317 314 317 322 322 324 327 329 329 331 334 333 331 327 327 326 326 326 324 321 318 316 307 307 308 310 320 317 315 312 309 309 313 315 316 316 326
311 312 312 311 312 316 316 317 320 322 321 321 324 325 325 327 330 331 330 329 329 328 328 326 324 320 317 316 312 312 315 312 315 316 319 314 314 313 317 321 323 323 319
315 315 312 311 311 314 315 316 317 321 321 323 322 321 319 323 317 309 303 315 303 300 310 323 321 317 318 305 298 298 306 308 307 308 316 314 315 313 313 313 315 315 315
316 314 313 314 313 313 313 315 316 316 318 319 320 318 318 318 316 314 307 295 296 295 294 294 302 303 296 295 294 294 295 296 297 311 313 311 311 311 309 309 309 310 310

GFSMW_sfc_thetae_108.txt.gz
Theta_e
337 338 341 343 345 348 350 350 353 358 354 357 346 360 346 358 357 356 365 369 368 369 367 366 361 351 349 365 364 363 360 358 358 358 350 348 351 352 352 351 349 351 353
335 338 340 342 343 348 351 356 353 358 360 357 354 359 358 358 358 362 366 361 365 369 365 368 358 356 362 366 367 367 361 355 354 350 347 342 345 346 346 351 348 348 350
333 337 340 339 343 347 351 354 356 360 362 364 357 365 355 365 356 355 361 360 362 365 355 369 358 366 364 362 369 367 362 355 353 361 356 343 340 343 346 347 350 347 353
336 338 339 339 342 347 350 357 359 360 361 359 359 351 358 351 357 362 359 364 365 363 366 369 369 366 352 354 367 364 365 361 355 356 353 359 342 331 336 345 345 348 350
335 337 336 343 344 345 349 355 360 360 363 356 366 361 362 348 350 351 353 370 370 368 361 368 368 369 366 365 367 363 365 363 361 354 356 349 357 344 343 331 334 346 349
336 339 339 342 346 345 349 355 359 359 361 360 360 361 352 348 350 346 348 359 359 362 367 363 368 370 368 359 364 368 365 364 366 361 359 347 339 337 339 334 335 335 346
335 336 339 342 342 344 348 353 357 356 361 360 359 361 362 353 346 349 351 343 353 352 364 370 369 367 368 365 367 368 365 364 361 366 359 359 341 338 339 339 333 333 343
334 339 338 341 344 346 345 353 357 356 358 359 362 365 363 360 355 352 351 343 346 349 363 367 366 367 368 367 368 366 362 364 363 365 363 360 355 351 353 352 345 338 342
332 336 339 340 342 348 347 348 356 358 358 358 361 363 366 364 363 356 353 347 351 352 355 363 366 365 365 368 366 364 360 357 351 361 365 361 358 355 355 348 354 347 339
335 339 339 339 342 346 348 347 351 356 357 357 359 359 361 363 364 355 349 346 344 352 344 350 365 367 361 362 367 361 358 362 362 360 359 364 360 358 355 351 353 352 347
333 340 342 344 342 343 344 349 354 356 355 356 357 359 357 359 361 361 358 345 349 355 346 358 369 367 362 361 366 364 363 360 363 364 359 359 362 360 357 356 354 351 353
340 340 342 346 346 345 349 346 353 354 354 354 358 359 358 358 357 361 358 366 364 367 365 366 365 366 365 367 364 360 360 354 358 361 362 360 356 359 364 359 358 355 358
342 341 342 339 338 335 337 346 351 351 355 353 356 354 358 358 361 355 359 365 366 365 363 365 363 362 361 359 364 364 363 359 357 361 361 359 360 359 357 360 359 356 356
341 341 342 343 341 335 333 342 351 353 352 353 356 348 360 356 359 355 359 363 365 363 364 362 360 362 362 360 362 363 361 361 358 359 359 352 356 360 359 356 358 355 356
341 342 341 344 350 345 346 347 346 351 354 353 353 347 351 357 360 360 363 363 363 360 361 363 362 362 350 338 340 358 361 359 358 363 359 362 355 349 349 356 359 360 357
339 342 346 346 347 349 347 347 348 349 351 347 347 352 352 351 350 352 359 362 361 362 364 360 360 359 337 326 329 337 358 360 360 358 359 357 356 350 344 343 343 347 353
342 343 344 345 349 350 352 349 351 352 350 348 349 351 354 351 349 349 355 351 354 358 359 359 356 344 331 319 322 330 347 356 361 362 362 358 340 332 339 344 342 341 337
337 338 342 344 348 351 351 351 352 350 349 348 348 347 347 346 345 344 350 350 347 346 346 344 344 340 321 314 317 324 344 358 359 352 353 343 331 321 324 337 350 351 354
328 327 327 329 332 335 346 350 350 350 348 348 346 346 346 343 343 341 342 343 342 342 338 337 331 331 317 311 313 324 358 349 337 334 327 333 327 319 318 341 338 341 337
322 323 324 323 322 324 332 331 331 339 339 345 344 346 346 343 341 339 337 341 341 335 331 326 322 321 317 308 310 322 347 344 335 329 323 318 318 315 315 331 331 328 328
317 317 318 318 319 321 323 322 324 322 326 330 335 339 342 341 339 338 343 338 333 329 325 321 319 315 313 310 308 310 324 327 326 331 326 323 314 311 311 313 328 324 319
314 316 314 315 317 318 319 318 318 322 326 328 328 329 332 331 335 332 328 332 330 326 325 323 323 318 316 309 308 308 309 313 325 322 323 322 310 308 309 316 314 312 317
313 314 314 313 315 317 317 315 318 322 323 323 324 326 332 332 334 330 330 326 327 324 325 325 324 322 321 316 308 308 309 312 321 316 313 312 309 310 317 317 316 317 318
311 313 312 311 312 314 315 317 319 321 320 321 323 324 322 320 314 316 324 320 312 320 326 329 326 323 321 318 312 314 318 313 319 318 322 316 314 314 315 315 316 315 313
314 311 310 310 312 314 313 316 316 319 319 320 320 320 320 319 308 301 303 306 298 298 307 306 308 314 316 301 298 298 303 304 304 303 320 318 318 314 313 312 312 311 310
315 312 313 312 312 312 312 314 319 319 317 317 317 318 321 320 315 314 303 296 296 295 294 295 303 298 297 296 295 294 295 296 297 311 319 315 315 314 314 313 314 313 313

GFSMW_sfc_thetae_111.txt.gz
Theta_e
330 333 340 341 341 342 343 345 343 349 344 346 342 343 342 348 349 351 353 352 352 353 353 352 333 335 342 344 352 350 349 348 345 342 341 336 339 342 342 345 345 344 347
329 332 338 340 339 340 339 345 346 347 342 348 346 348 346 349 351 352 352 352 355 353 355 352 344 344 346 350 351 352 351 347 342 337 340 329 334 338 341 342 344 340 343
330 332 336 337 340 341 344 344 348 345 349 351 350 349 346 352 349 348 350 353 355 353 352 354 349 347 347 345 352 353 350 347 347 344 343 335 334 336 335 337 339 340 345
331 333 336 336 339 342 346 346 347 346 350 350 350 344 343 340 345 345 351 351 354 355 353 353 353 350 349 347 351 352 352 351 347 347 348 341 336 326 330 340 335 341 343
331 333 334 336 340 344 344 348 349 348 349 347 350 346 342 344 345 346 345 346 353 355 355 352 351 353 352 350 351 353 351 352 350 347 348 342 340 340 329 326 329 336 342
334 337 338 338 340 343 345 348 348 347 349 345 350 346 343 340 342 342 345 344 347 350 352 354 354 352 352 351 351 351 349 351 350 352 344 337 334 333 332 328 329 328 339
333 335 335 337 339 340 343 350 348 345 349 349 348 348 347 344 342 340 343 340 339 345 345 350 351 351 351 352 351 350 347 350 348 348 352 348 336 336 336 332 330 331 338
334 334 336 337 338 341 345 347 348 346 348 348 348 348 349 347 344 345 346 339 340 344 348 349 352 351 354 353 353 350 352 349 348 347 347 349 346 343 340 338 330 325 333
332 334 335 340 340 341 346 349 348 347 349 350 350 348 348 346 346 346 345 342 338 344 348 350 351 353 354 352 352 351 348 348 345 347 348 348 348 348 347 344 343 339 328
329 333 335 338 341 340 345 351 351 348 348 351 350 350 350 349 347 345 344 338 339 342 347 350 348 353 351 349 351 349 346 349 348 350 347 347 347 347 349 349 346 342 337
329 329 332 338 339 342 345 347 349 350 349 349 350 350 350 349 347 347 344 343 341 344 344 346 347 351 349 352 351 350 349 352 348 349 348 347 348 348 346 350 349 346 347
329 330 336 338 340 341 341 344 344 348 349 349 350 350 350 350 349 349 345 340 342 346 347 345 351 351 351 352 347 349 352 349 348 348 347 346 351 346 348 347 347 345 347
329 336 339 337 339 339 338 338 340 346 349 349 351 350 349 350 347 348 350 348 347 350 352 353 350 351 352 351 352 352 351 350 350 349 348 347 347 345 343 346 346 344 347
329 336 337 337 339 334 334 335 336 341 346 350 348 347 346 348 348 347 348 352 352 350 349 351 351 350 349 344 349 352 350 350 351 354 350 346 347 347 345 347 346 347 346
332 335 335 335 334 333 334 338 338 339 345 343 345 345 348 348 350 351 346 353 352 351 350 350 349 341 339 334 334 340 348 348 348 350 349 351 350 347 344 345 344 345 344
334 336 338 339 332 332 332 335 333 338 347 342 342 344 345 346 347 348 346 346 346 345 347 347 345 332 328 326 330 334 339 348 348 347 347 341 333 338 338 338 340 340 341
332 337 338 341 342 337 333 340 341 345 344 341 342 342 345 345 345 345 347 347 346 346 344 343 331 320 316 317 319 328 336 345 347 345 344 333 324 323 328 335 340 341 337
323 327 329 331 334 344 344 345 344 344 343 341 344 345 344 342 339 339 340 344 344 344 340 337 334 321 313 315 316 322 335 335 330 333 328 322 319 318 323 333 333 335 326
322 323 324 326 328 331 338 343 343 342 342 341 341 341 340 338 338 337 337 340 340 335 332 331 326 316 309 312 315 327 337 331 323 321 324 319 316 317 322 326 322 319 319
317 318 321 322 322 325 331 332 335 336 339 341 340 341 340 338 335 334 335 337 332 328 325 322 320 315 307 310 312 324 337 326 318 316 314 317 314 314 314 322 314 310 313
315 317 318 317 320 322 324 322 326 326 328 334 339 339 338 338 336 334 333 333 328 322 320 316 312 311 310 307 309 312 318 324 324 320 315 312 313 310 310 314 313 312 312
313 315 314 314 316 320 321 320 320 323 327 328 328 330 333 335 332 330 333 326 326 323 321 318 314 311 306 309 308 309 310 319 320 318 317 313 309 308 309 312 312 313 315
312 313 312 313 314 316 317 317 319 321 323 323 324 328 322 326 329 327 326 326 325 324 323 321 318 315 311 306 310 309 310 313 311 312 311 311 310 309 311 312 312 311 309
310 312 311 310 310 312 313 317 318 320 320 320 321 320 311 307 305 309 308 307 306 311 313 321 318 313 311 305 304 305 308 311 308 310 313 312 311 311 310 308 308 306 306
311 309 309 310 310 312 312 314 316 318 317 317 318 319 314 306 299 297 301 299 295 297 302 305 305 312 303 297 296 296 297 296 297 300 309 307 306 305 304 305 305 305 304
311 310 310 309 309 310 310 311 313 316 314 314 315 315 319 315 305 301 298 297 296 295 294 295 297 295 297 296 295 294 294 295 297 301 307 303 305 303 303 304 305 304 304

GFSMW_sfc_thetae_114.txt.gz
Theta_e
332 337 339 340 340 340 339 339 336 339 343 342 342 340 340 344 346 348 350 351 349 351 349 348 331 342 347 347 347 349 350 343 340 336 340 334 338 339 340 343 342 345 346
331 334 335 338 340 339 339 341 339 342 340 342 343 342 344 345 346 349 350 351 351 351 353 348 344 345 347 346 349 349 347 347 343 338 336 328 332 338 339 343 343 342 344
329 332 333 336 338 337 340 340 343 339 342 346 347 344 345 347 344 345 346 350 351 351 351 350 348 346 343 342 348 349 348 344 346 341 339 331 328 330 333 336 341 342 342
332 333 333 334 336 338 342 342 342 342 347 348 345 341 339 338 341 342 345 348 352 350 351 351 351 347 347 345 348 352 349 347 343 344 343 338 335 325 326 333 334 342 342
332 332 334 335 338 341 342 343 342 345 345 345 345 342 340 340 343 343 343 344 346 351 351 349 351 350 348 346 347 347 349 348 346 343 339 337 336 332 326 322 327 335 341
331 334 335 337 337 343 342 344 341 344 344 344 346 344 341 341 341 341 341 342 341 345 348 351 350 349 348 347 348 348 348 348 347 346 341 337 334 332 327 324 325 326 335
331 333 332 335 337 339 344 343 340 342 342 343 346 345 342 340 339 340 340 340 338 343 344 346 348 349 349 349 349 347 344 347 345 346 344 336 337 337 333 327 327 329 335
332 332 333 336 337 339 344 344 342 341 343 344 346 345 345 343 342 340 342 341 339 342 345 348 349 349 351 348 350 346 349 345 344 343 345 342 336 336 336 333 331 327 327
331 332 334 336 337 339 344 344 344 343 343 343 345 344 346 345 343 343 343 341 338 341 344 348 348 349 350 350 349 347 347 347 342 346 345 344 343 338 341 340 335 331 325
331 333 335 337 338 340 344 347 346 345 345 344 346 345 345 345 344 344 343 339 337 339 341 346 347 347 351 349 348 347 344 346 345 348 341 343 343 344 345 348 344 338 333
331 333 335 337 339 341 345 347 347 345 346 347 347 345 345 346 343 342 341 338 335 336 340 344 344 346 348 349 349 347 346 348 346 346 345 343 346 345 346 346 345 342 341
331 331 335 336 338 342 345 347 347 346 346 349 347 346 346 346 342 342 343 342 337 340 342 343 343 345 348 349 347 346 352 347 345 344 345 344 349 343 345 344 343 342 343
328 330 334 335 338 339 343 346 346 346 346 348 346 346 347 345 344 343 343 339 340 339 343 344 342 346 349 346 346 346 345 348 348 347 346 344 343 342 341 343 342 342 344
327 328 332 336 337 338 340 340 340 340 341 344 346 345 345 346 346 346 346 341 338 339 345 347 347 346 342 340 341 346 347 347 347 348 348 346 345 344 342 344 343 344 343
328 332 332 335 336 337 337 338 340 340 341 340 342 344 345 346 346 346 345 347 346 347 347 346 340 337 336 335 335 339 341 345 344 346 348 344 343 340 339 342 341 341 339
325 334 334 335 333 333 333 335 335 339 342 340 342 343 343 344 346 347 348 348 345 342 342 342 336 329 328 321 329 332 337 342 343 342 336 333 336 337 334 334 337 340 339
325 325 333 334 333 334 335 334 334 335 340 341 342 342 342 342 342 345 346 346 344 344 340 333 326 324 319 318 320 326 332 341 342 341 335 325 323 326 332 336 331 329 330
324 323 325 328 330 334 334 337 335 335 341 341 341 341 342 340 340 340 342 344 343 343 340 332 326 320 320 317 318 325 333 331 331 327 322 318 320 322 330 329 327 321 317
322 323 324 325 328 329 335 340 339 340 339 339 340 341 340 338 338 337 337 338 338 336 334 330 323 319 314 314 318 332 329 324 321 320 317 315 315 318 322 315 312 311 316
317 318 321 322 325 323 333 333 336 338 339 338 339 340 339 338 336 335 336 334 332 327 324 320 314 312 311 312 314 331 328 320 316 312 313 316 313 313 314 312 310 312 312
315 316 316 316 320 323 326 325 326 327 331 339 340 339 338 337 335 332 332 327 324 320 316 311 311 310 308 309 310 317 327 321 318 314 312 311 312 310 310 312 313 314 315
313 314 314 315 317 321 322 320 320 324 327 330 330 332 335 336 334 332 327 325 323 320 317 312 309 307 307 308 309 311 315 321 319 317 313 310 309 308 309 311 310 310 311
311 312 312 312 314 317 320 318 320 324 324 321 318 316 315 316 320 328 326 324 323 321 319 316 312 309 309 309 308 309 311 312 311 310 311 309 306 307 308 310 309 308 304
310 311 310 309 310 312 315 316 318 320 321 319 315 313 310 308 309 310 309 307 308 315 322 321 316 312 308 304 303 305 305 306 304 309 310 310 309 309 308 305 305 305 303
309 309 309 308 309 311 312 315 316 317 317 318 316 311 307 306 304 300 303 304 298 297 303 307 315 312 306 300 297 298 298 297 298 301 307 305 303 301 302 302 303 303 302
309 307 306 307 308 306 308 310 313 315 314 314 317 314 309 306 302 299 298 297 297 297 295 296 299 297 299 296 294 293 294 295 297 302 304 302 301 301 301 302 300 300 303

GFSMW_sfc_thetae_117.txt.gz
Theta_e
331 335 338 340 338 338 336 336 334 337 341 342 340 339 339 343 343 347 348 348 348 350 349 339 334 344 345 347 349 348 346 342 339 335 336 333 336 336 340 341 341 342 343
330 335 336 337 337 337 337 336 334 339 340 340 341 339 341 342 344 347 347 348 349 351 350 346 342 343 342 346 347 347 344 344 343 339 331 325 331 333 337 341 341 340 342
329 333 334 335 337 336 336 337 336 340 340 342 345 342 344 344 343 343 343 346 348 350 351 348 345 344 341 344 346 347 345 340 339 338 337 329 325 328 333 334 339 341 341
331 333 333 333 336 337 339 337 339 337 342 344 342 339 338 337 339 340 344 346 349 348 350 349 348 345 345 344 348 349 346 344 339 340 342 335 331 324 325 332 332 338 340
330 330 332 334 337 339 339 340 339 341 344 344 342 339 338 339 339 341 341 343 345 348 351 348 348 346 345 346 346 346 345 346 341 337 335 333 332 328 324 320 326 332 337
330 331 333 335 336 338 340 340 339 340 342 343 342 341 339 339 339 339 340 341 341 344 347 350 348 347 345 346 346 345 346 345 346 342 338 335 331 328 323 321 322 324 332
330 330 331 332 334 337 339 340 339 339 340 344 343 342 340 341 339 339 339 339 339 342 343 346 347 347 346 347 347 345 343 345 344 344 339 335 334 334 329 324 326 328 332
330 331 332 333 334 338 338 340 338 340 339 341 343 343 342 340 339 339 339 339 340 342 343 345 347 348 348 345 347 345 347 344 343 342 343 336 335 334 332 329 329 326 326
330 331 332 334 335 338 339 340 338 339 341 340 342 342 343 342 341 341 339 340 340 341 342 347 347 348 347 348 347 345 345 344 341 343 343 341 338 335 337 338 333 331 324
330 330 332 335 336 338 341 342 341 339 342 341 342 342 343 344 342 342 341 341 338 337 342 345 346 346 346 349 347 346 344 344 342 345 341 342 342 341 342 341 340 337 331
330 331 332 335 337 339 341 342 342 341 341 341 342 341 343 343 342 341 341 341 338 336 337 338 344 343 346 347 345 346 345 343 344 344 342 341 343 343 343 343 342 340 337
330 332 333 335 337 337 339 342 343 343 343 344 343 343 343 344 341 340 340 339 336 334 335 339 342 342 345 343 344 345 347 345 343 343 343 342 346 341 341 342 340 340 340
330 331 333 335 336 337 339 341 344 344 344 345 345 344 343 343 341 340 340 340 339 336 338 342 341 340 344 346 346 345 345 346 345 345 344 343 343 340 340 340 341 340 343
328 328 330 333 337 339 341 343 345 345 345 346 345 343 344 343 344 342 341 341 339 338 337 341 343 344 345 342 343 345 347 347 346 346 346 346 343 341 341 341 341 342 340
329 331 328 334 336 338 341 344 344 345 345 345 345 344 345 345 345 343 343 343 340 339 340 343 341 338 338 337 335 339 343 345 344 345 345 342 342 339 339 343 341 339 337
327 330 332 334 335 337 339 341 341 342 343 343 344 345 343 344 344 345 344 345 343 344 342 341 336 331 329 323 330 331 337 340 343 341 336 336 339 337 335 335 337 340 338
324 327 329 332 332 333 334 335 336 339 339 340 341 343 343 341 343 344 345 343 343 342 338 333 329 325 322 319 321 327 331 337 339 340 333 325 324 329 335 329 325 325 326
321 323 325 330 331 333 334 336 335 335 338 338 340 341 341 340 341 341 341 342 342 342 338 332 327 322 322 317 319 324 330 332 329 330 326 322 324 325 332 325 317 316 317
317 320 322 324 326 330 335 336 336 335 337 337 339 339 341 339 338 338 338 339 340 341 336 331 324 323 320 316 317 330 329 324 322 322 324 325 323 320 322 320 311 316 317
316 316 318 320 321 324 331 337 336 338 336 337 338 339 339 337 337 337 337 336 335 330 326 321 319 317 318 316 317 327 325 320 317 318 318 318 317 317 315 311 313 315 313
314 316 316 316 318 322 327 326 328 328 330 339 339 337 338 337 336 336 334 329 323 319 316 313 310 309 310 310 314 318 321 318 314 313 312 312 312 311 311 312 316 314 313
313 314 314 315 317 321 323 322 321 324 328 330 329 334 335 336 334 331 327 324 319 314 311 307 306 307 308 310 310 314 318 320 315 313 313 312 309 307 308 311 311 312 313
311 312 312 313 314 317 320 319 319 322 319 320 320 317 316 318 323 328 325 324 323 319 314 311 307 307 309 308 309 310 312 313 311 313 313 308 306 306 308 310 309 309 307
309 310 310 309 310 313 315 317 320 321 317 315 315 316 317 315 314 313 313 315 315 321 320 316 312 308 305 305 306 306 306 309 310 312 311 309 308 308 307 306 306 304 303
309 309 308 307 308 309 311 314 316 318 317 314 312 310 310 308 304 302 304 306 300 302 310 310 313 310 307 301 299 300 302 302 301 305 305 302 301 301 301 301 301 302 302
308 306 304 305 306 306 306 307 310 313 315 315 312 310 309 306 304 304 302 298 298 296 295 296 301 300 299 296 295 294 294 295 297 304 303 302 300 300 299 299 300 300 300

GFSMW_sfc_thetae_120.txt.gz
Theta_e
332 335 337 338 338 338 337 338 337 340 342 342 340 341 341 344 345 347 350 351 352 353 348 337 345 351 352 352 354 352 350 348 346 345 339 340 341 343 345 346 345 346 347
327 332 335 337 337 336 337 337 337 339 342 343 342 342 343 345 346 349 351 353 350 353 351 346 348 350 350 352 352 351 348 345 343 346 336 335 339 340 341 344 345 345 344
327 331 334 335 336 335 336 336 335 339 342 344 343 344 346 346 346 348 349 351 353 353 354 350 348 349 349 351 353 352 350 344 343 343 345 336 333 335 341 339 341 344 345
329 332 333 333 335 336 338 337 336 339 341 345 343 343 341 340 343 344 347 350 353 353 353 353 351 352 351 353 355 353 352 349 343 344 342 341 340 336 336 339 341 342 341
329 331 333 335 336 337 338 338 337 338 342 344 344 342 341 342 344 344 346 349 350 353 354 353 352 352 352 353 353 353 353 351 347 345 342 339 337 335 334 330 332 338 342
329 332 334 336 335 338 339 339 338 338 343 344 343 342 341 341 342 343 343 345 347 349 352 353 352 353 351 353 352 352 352 352 351 348 345 343 341 338 332 330 331 331 339
328 330 330 333 334 336 338 339 338 338 342 343 343 343 342 342 343 343 343 343 344 346 348 352 352 351 352 352 353 352 350 351 351 350 344 343 342 341 335 333 334 337 340
328 329 330 332 333 336 338 339 338 338 341 342 343 343 344 343 343 343 343 344 344 346 348 349 351 352 353 351 353 351 351 351 350 349 350 345 343 342 339 339 340 339 336
328 329 331 332 333 336 337 339 338 339 341 341 343 343 344 343 342 343 344 343 344 344 347 348 351 351 352 353 352 350 350 351 349 348 350 349 343 342 345 344 342 342 336
328 330 331 332 334 337 338 340 340 339 341 341 342 343 344 345 345 344 343 342 344 344 345 347 350 350 351 353 352 352 352 350 348 350 349 350 349 349 348 347 346 344 340
328 330 332 333 335 338 339 339 339 339 340 341 342 343 343 345 346 345 345 344 344 341 342 345 347 347 349 352 352 351 351 349 350 350 350 348 349 348 349 350 349 347 343
330 331 332 333 334 337 338 340 340 340 340 342 342 343 343 345 344 343 344 345 343 342 341 341 343 346 347 351 349 350 353 349 348 348 349 349 347 349 350 348 349 347 348
330 332 332 333 334 336 338 340 342 342 342 342 342 343 343 344 344 343 344 344 343 341 339 340 343 346 346 349 348 349 350 350 351 349 349 349 349 350 348 347 348 347 350
330 330 331 333 335 337 337 340 341 344 343 344 343 343 344 345 345 345 344 344 344 343 340 342 346 345 346 349 349 349 350 350 351 351 351 351 350 349 350 348 350 348 347
330 329 330 332 335 337 337 339 342 345 344 343 344 344 346 347 347 346 345 345 344 343 343 342 346 346 344 341 341 344 347 346 347 349 350 348 348 341 344 350 349 348 345
327 332 333 335 335 337 339 342 343 343 346 343 344 345 345 346 346 346 346 346 346 344 343 346 345 340 334 326 331 335 342 345 346 347 346 343 341 339 335 336 337 346 346
323 328 332 333 334 334 336 335 336 341 341 340 341 343 345 344 343 345 345 345 345 343 344 341 336 331 330 321 324 327 336 340 344 346 342 335 331 334 335 328 326 326 327
319 321 323 325 331 335 334 336 336 336 339 339 340 341 341 341 342 343 342 342 344 339 339 336 333 329 327 319 319 324 332 337 337 340 335 331 332 333 334 327 324 325 327
317 318 320 322 324 326 333 335 335 335 336 337 338 340 341 340 340 340 339 341 341 341 338 335 330 328 325 319 320 329 332 326 327 328 329 331 330 321 324 330 324 324 322
316 316 318 320 321 323 327 335 335 335 335 336 338 340 340 339 339 338 338 337 338 336 332 327 326 324 324 316 317 327 329 324 321 321 320 319 321 316 316 321 322 322 320
314 317 318 317 318 322 328 329 330 328 332 336 338 338 338 339 339 337 335 332 329 324 322 319 318 315 315 318 316 321 326 323 319 317 315 315 312 310 311 313 324 321 318
313 313 315 315 317 320 322 321 321 322 328 328 329 333 336 337 335 331 327 324 324 318 317 317 315 312 313 312 316 318 317 319 317 314 314 314 308 307 309 313 310 310 314
311 312 311 313 314 317 319 318 319 320 319 320 319 318 318 319 324 328 325 321 319 316 313 313 308 309 311 311 310 311 313 314 314 315 312 308 305 306 309 310 311 312 310
310 311 310 310 310 312 315 317 319 318 317 315 314 314 315 314 314 313 314 315 320 321 319 316 314 312 310 308 309 309 312 311 314 313 313 310 308 308 308 310 309 307 307
308 309 308 307 307 309 310 313 317 318 315 314 313 312 312 309 307 304 305 306 301 304 313 314 315 310 307 300 298 301 304 304 305 309 308 307 307 306 307 307 308 308 307
307 307 306 307 308 308 308 308 311 316 315 311 310 310 308 307 307 307 303 302 301 302 298 298 304 301 299 296 295 294 294 296 298 309 308 306 306 306 306 306 305 305 303

GFSMW_sfc_thetae_123.txt.gz
Theta_e
338 341 343 345 345 347 348 351 351 353 353 351 350 350 349 352 351 353 357 359 362 363 362 356 360 364 362 363 364 361 359 354 356 350 349 350 354 355 356 357 355 355 354
336 339 342 343 344 346 348 350 351 353 354 352 353 353 353 354 355 356 360 361 359 362 362 358 361 362 362 363 364 363 358 354 357 354 349 343 345 351 352 356 354 355 354
334 337 340 342 344 345 348 349 351 353 354 355 353 354 355 356 354 358 363 359 361 361 362 360 361 361 363 360 363 362 360 351 352 355 353 343 339 347 350 350 350 353 353
336 337 339 341 343 345 348 349 350 352 353 356 354 355 350 349 356 363 362 361 362 361 361 361 361 364 362 364 364 362 361 360 352 353 350 352 350 343 341 349 349 350 347
334 335 338 341 344 345 346 348 350 351 353 355 356 355 353 352 356 355 357 362 362 361 361 363 362 362 361 365 364 364 363 359 356 354 351 350 347 348 342 336 339 348 348
334 336 340 343 343 345 345 346 348 350 352 354 356 356 355 354 351 353 352 354 357 358 362 361 363 365 361 362 362 364 362 363 361 357 355 351 347 346 342 340 344 343 349
333 336 338 340 342 343 344 346 347 348 350 352 355 355 356 356 356 355 352 354 353 354 360 363 362 365 363 362 364 363 362 361 359 361 354 353 353 351 347 345 346 345 350
333 335 338 340 342 343 345 346 346 347 350 351 354 356 358 354 354 356 354 353 353 354 360 359 362 361 363 362 363 360 359 360 358 359 361 356 353 353 352 349 346 342 346
333 334 338 341 342 343 345 346 347 348 349 350 354 355 356 356 354 357 356 353 356 355 356 358 358 360 361 362 362 357 359 361 360 358 359 357 355 353 354 354 352 346 337
331 332 334 339 342 343 345 347 348 347 348 350 353 353 355 356 357 356 355 356 355 356 356 356 357 359 361 361 362 362 361 361 358 356 360 361 357 356 355 354 355 352 350
333 334 333 339 342 343 344 345 347 347 347 349 351 353 353 354 355 355 356 357 356 354 354 355 356 357 358 360 361 362 361 360 360 359 360 359 360 355 356 357 358 354 354
334 334 335 337 341 342 343 343 346 347 348 350 351 351 352 354 353 354 355 357 356 356 355 353 353 354 356 359 359 358 358 358 357 357 358 358 355 359 361 357 360 357 357
333 333 335 336 338 342 341 345 347 347 349 350 350 350 351 351 352 353 355 356 355 355 353 350 351 351 352 355 359 360 359 357 358 359 357 357 358 360 357 359 359 353 357
333 332 336 339 341 343 345 347 347 344 350 349 349 349 350 350 351 354 355 355 355 354 352 351 350 351 354 354 356 358 358 358 358 359 359 358 358 358 360 357 360 358 359
334 335 338 338 340 343 345 346 348 346 346 350 347 348 354 353 354 355 355 356 356 354 355 352 351 353 356 353 355 356 357 358 357 357 358 358 353 345 349 361 360 360 359
326 334 336 336 337 342 345 346 344 344 351 344 349 351 353 353 354 355 356 357 356 357 356 354 353 352 351 329 333 342 351 353 354 351 354 357 345 345 337 338 339 347 358
322 324 326 333 340 341 341 347 349 351 347 350 350 351 349 351 347 350 356 352 357 358 356 354 354 352 348 323 325 328 345 350 352 354 356 354 349 340 351 332 330 329 328
319 321 321 325 329 331 339 342 344 346 344 346 343 344 348 346 346 345 346 344 353 348 355 352 349 343 340 321 321 325 342 345 349 349 352 353 347 345 345 340 338 336 336
319 321 322 323 325 328 330 335 341 343 339 338 340 341 343 341 342 342 343 343 344 344 341 343 347 341 334 321 321 327 340 338 338 338 338 341 343 324 327 340 334 330 325
317 318 320 323 325 326 329 332 337 340 338 341 341 341 341 342 341 342 340 342 343 342 340 337 338 327 329 319 317 325 334 330 327 325 326 318 322 314 317 338 330 326 324
316 318 319 319 321 324 329 330 331 332 334 338 342 343 344 345 343 340 338 336 332 331 327 322 319 319 318 321 317 317 330 329 325 324 323 321 313 311 311 313 326 325 323
315 316 316 316 320 322 323 320 320 325 330 333 330 331 336 339 339 334 331 327 323 319 316 314 314 316 318 311 317 320 320 322 329 322 319 318 308 307 310 316 310 312 317
314 315 315 316 318 323 323 320 319 322 322 321 319 319 320 318 320 326 326 322 322 319 315 314 313 314 314 315 311 311 315 316 319 320 316 310 305 308 311 311 312 314 318
314 315 316 314 314 320 323 321 321 319 318 316 316 316 313 311 312 313 314 314 320 320 317 314 313 314 314 314 313 314 318 315 315 314 314 311 310 310 311 314 315 314 313
314 315 312 311 312 314 316 318 319 319 317 317 315 313 312 312 308 304 308 307 303 306 317 316 315 312 307 301 297 301 304 308 307 311 311 311 311 313 314 315 316 316 317
314 312 313 311 312 312 313 316 318 317 314 311 311 311 312 312 311 309 305 301 303 301 299 304 306 301 299 296 295 295 296 297 299 311 311 310 310 311 313 314 314 313 312

GFSMW_sfc_thetae_126.txt.gz
Theta_e
341 344 344 345 347 348 350 354 355 358 360 354 351 350 349 352 351 354 357 360 363 365 366 361 362 365 360 366 366 360 359 355 362 351 350 353 354 352 353 355 355 358 357
338 342 343 345 346 348 350 353 355 357 360 355 355 354 356 352 353 356 360 360 360 364 364 365 363 363 360 366 368 366 356 358 363 353 348 341 345 348 351 355 356 358 357
335 340 343 344 345 347 350 352 356 358 361 360 357 358 361 361 355 356 355 359 361 360 366 365 364 365 363 358 365 365 362 352 359 361 353 342 339 345 351 353 354 357 355
336 339 342 344 345 347 350 353 356 358 358 359 358 358 350 347 350 354 355 358 361 361 363 363 366 367 361 364 364 364 364 364 354 357 357 358 354 341 338 349 353 353 350
335 337 341 345 346 348 349 352 356 358 359 360 363 353 352 351 352 352 358 361 362 363 362 363 364 364 359 366 364 362 368 362 356 353 355 356 352 353 343 336 342 350 351
335 338 341 345 346 348 349 351 355 357 359 359 357 356 356 354 350 353 353 352 353 356 362 362 365 366 363 363 362 365 363 362 362 358 356 351 346 347 344 341 346 343 349
336 337 339 341 345 347 349 350 354 355 356 357 356 356 357 357 356 356 351 355 352 353 359 362 362 358 360 360 363 366 363 362 359 363 355 355 354 353 350 345 343 341 347
337 336 339 342 346 347 349 350 351 354 355 354 356 358 361 355 354 357 352 355 353 355 360 361 361 362 362 362 363 360 359 360 358 361 362 354 352 354 352 348 344 337 341
337 336 339 343 346 348 349 351 352 354 354 352 354 357 359 359 356 359 362 356 362 358 362 363 362 362 362 363 363 359 359 361 361 358 360 358 352 353 351 351 349 343 334
337 336 339 342 346 348 349 351 352 353 353 352 353 354 357 359 360 363 359 361 360 362 362 361 361 362 363 363 365 360 361 361 358 355 357 360 353 355 354 352 351 350 344
337 338 340 342 346 347 348 349 351 352 352 352 353 354 354 355 359 359 362 361 362 362 361 361 360 361 362 362 365 363 360 359 360 361 359 360 362 354 351 353 352 349 349
336 338 336 343 345 347 348 348 351 351 352 353 354 354 355 356 355 358 358 361 362 363 362 360 360 360 360 362 362 360 358 358 357 358 359 358 355 360 360 353 356 354 356
337 340 339 336 343 346 350 350 351 351 353 354 353 354 353 354 354 355 357 359 360 361 360 360 359 358 358 358 361 362 359 359 358 359 358 358 358 358 355 356 356 354 358
335 339 339 338 341 347 350 352 351 354 353 354 353 354 354 354 354 356 358 358 360 360 360 360 359 357 356 356 357 359 360 359 358 360 359 358 358 359 358 357 362 358 359
336 338 337 340 339 343 348 348 348 353 353 354 354 355 357 358 357 358 359 359 359 359 360 360 360 358 357 356 358 359 360 359 358 358 359 357 355 346 347 359 359 364 359
326 331 338 339 341 343 345 348 347 347 353 346 351 355 356 357 354 358 361 362 362 361 362 360 359 358 353 335 337 346 357 358 359 359 359 359 349 348 340 340 340 347 360
322 324 327 331 335 340 345 345 350 354 347 353 350 353 353 356 353 359 352 356 358 360 359 360 358 357 358 329 329 332 351 354 357 357 359 357 352 349 358 338 335 332 331
321 322 323 326 334 341 344 342 349 351 352 353 349 354 354 352 353 355 355 355 351 348 346 355 356 358 357 324 324 327 347 348 352 356 356 358 358 354 353 352 351 350 345
322 323 324 325 329 334 339 342 344 345 348 348 351 350 351 351 354 347 349 354 353 344 344 345 350 349 349 322 322 330 347 343 344 343 339 350 351 326 328 349 346 345 337
322 324 326 328 327 329 337 341 340 341 343 347 345 345 345 346 343 344 344 348 347 346 345 344 343 329 335 319 317 327 334 339 333 336 327 317 322 315 320 347 344 340 339
321 324 325 325 325 327 335 333 333 331 337 345 347 346 347 348 349 349 344 343 342 338 333 325 323 322 319 320 314 315 328 332 329 327 325 319 313 311 312 314 336 331 327
322 323 323 329 327 326 324 322 326 331 337 341 338 335 336 333 335 333 330 328 327 323 320 318 315 317 318 312 312 316 319 324 329 325 321 316 308 307 310 317 313 314 320
320 319 322 325 329 328 326 321 321 324 326 326 324 324 325 325 325 327 331 329 327 323 319 319 316 314 317 318 313 311 313 315 321 320 311 308 306 308 312 312 313 315 321
318 320 321 321 324 327 326 324 322 323 320 320 323 320 316 315 319 318 320 324 323 320 320 321 319 316 311 306 309 320 319 316 318 316 316 312 312 311 314 317 318 322 322
322 320 318 322 322 323 323 325 324 321 321 320 318 316 314 313 309 303 304 310 305 306 320 320 318 315 309 303 298 303 307 310 310 313 315 314 316 314 317 317 318 323 321
320 320 319 317 318 319 321 323 322 321 320 319 316 315 315 314 313 311 310 299 300 299 300 302 308 305 303 298 296 296 297 301 303 312 313 313 314 313 314 317 316 317 317

GFSMW_sfc_thetae_129.txt.gz
Theta_e
338 340 342 344 344 347 349 353 356 357 355 352 350 351 347 354 352 352 359 360 359 361 364 358 360 360 364 367 363 359 360 353 356 349 345 347 348 348 348 349 350 353 355
336 339 341 342 344 346 349 352 356 359 358 357 358 356 352 350 353 356 358 359 359 361 361 364 360 362 360 365 366 366 360 352 356 351 346 340 344 345 346 349 351 354 355
334 339 340 341 343 345 348 352 355 358 359 360 357 357 359 360 353 356 354 357 359 360 362 361 364 364 364 359 362 364 367 351 353 361 350 343 327 328 347 354 352 355 352
336 338 339 341 342 346 348 352 356 360 358 361 358 364 351 347 347 351 354 358 360 361 360 361 363 364 365 366 361 361 364 365 351 352 352 359 354 340 338 346 348 351 348
335 337 339 341 343 346 348 350 356 362 360 360 362 354 357 353 353 356 363 363 367 362 360 362 362 364 359 367 365 363 366 361 355 355 350 356 348 351 342 335 340 349 347
335 338 340 343 343 346 348 350 356 360 362 360 359 359 358 352 355 356 353 353 353 357 361 362 363 364 364 363 362 367 364 365 364 357 357 347 344 346 342 339 344 339 345
335 336 339 340 343 345 347 350 355 356 357 357 356 357 358 358 357 356 353 355 352 350 364 364 363 360 364 362 364 365 364 363 360 365 354 351 346 347 345 342 340 338 341
337 335 338 340 343 345 347 349 353 356 357 356 360 362 360 355 354 358 356 355 352 353 368 362 363 366 363 362 364 358 358 360 359 362 365 355 350 348 347 343 341 336 337
335 336 338 340 343 345 348 350 353 356 357 354 356 359 361 359 358 367 363 356 362 354 361 361 365 364 366 366 364 358 363 361 361 360 364 358 351 348 349 348 346 342 335
337 337 337 340 343 346 348 351 353 355 356 355 354 354 356 359 360 361 359 362 362 361 361 360 361 361 363 363 365 363 363 361 357 355 366 361 352 353 352 349 348 352 342
339 339 337 340 344 345 347 349 352 353 355 354 353 354 354 356 359 358 361 361 362 364 362 363 363 361 361 363 364 365 363 359 363 362 360 363 364 353 349 354 349 347 346
340 340 340 341 344 346 348 348 350 352 354 355 355 353 354 356 354 357 359 362 362 363 363 365 362 362 361 362 363 361 361 358 359 360 361 357 354 365 367 354 364 353 359
337 339 342 343 344 346 352 350 351 351 353 355 354 354 353 353 354 355 358 360 361 361 359 361 364 362 359 359 361 361 360 359 359 357 360 358 360 366 358 360 357 353 351
337 339 343 345 345 348 351 354 352 355 354 354 354 355 355 354 354 357 359 358 361 360 360 360 362 362 360 358 358 358 358 360 359 362 361 360 362 363 361 358 364 359 360
335 342 340 342 342 347 352 354 355 356 357 357 355 357 361 360 360 361 360 360 361 360 361 360 360 361 359 355 360 358 358 360 359 359 360 360 359 346 349 366 365 365 362
329 332 336 342 341 342 346 352 354 354 357 355 349 359 361 362 361 361 360 360 360 362 362 360 360 359 355 340 344 348 355 358 358 359 360 360 352 351 345 344 344 351 360
324 326 329 330 335 339 343 345 352 355 353 355 355 355 360 360 359 359 356 357 356 362 361 359 360 359 360 334 337 336 352 355 356 358 358 357 354 352 358 341 338 339 338
324 324 327 331 336 340 343 346 346 354 355 354 353 353 356 353 353 358 359 359 358 358 356 359 355 351 350 329 330 330 349 355 356 357 357 358 357 351 349 357 356 355 346
324 327 329 329 333 335 340 345 347 349 352 352 354 355 357 356 357 356 355 356 357 358 357 356 354 351 346 324 324 325 348 349 351 350 338 337 338 326 331 350 352 352 344
328 330 332 331 331 331 337 344 347 346 346 349 350 349 351 349 346 347 348 351 351 351 354 352 353 338 331 320 319 325 336 339 341 338 332 317 315 316 317 342 350 347 348
330 332 333 330 328 327 340 341 341 340 345 349 349 347 348 348 350 348 345 340 336 328 323 323 321 317 317 319 315 316 331 332 331 328 326 319 313 311 313 317 331 329 335
330 331 330 330 332 329 328 330 330 335 339 342 339 339 339 339 340 338 337 333 331 322 320 317 316 318 317 313 313 314 315 321 330 325 321 315 309 308 310 315 312 314 321
328 329 329 329 331 332 331 324 324 328 333 331 329 330 331 333 334 336 334 333 333 327 321 319 320 319 317 317 313 311 313 315 316 315 312 309 307 310 312 313 314 317 324
326 326 327 328 328 331 330 328 326 325 324 324 322 321 319 323 325 328 331 332 329 329 330 326 320 315 314 315 314 315 318 317 317 315 315 313 315 314 316 318 320 325 324
325 326 324 325 326 328 329 328 325 326 323 321 319 317 316 314 313 308 311 317 311 313 324 325 322 319 311 306 299 304 311 313 310 315 317 317 318 317 317 318 318 322 320
324 324 325 325 326 326 326 326 329 328 323 319 319 321 319 319 323 323 316 299 301 300 299 300 312 312 303 298 297 296 297 300 303 314 312 311 314 313 315 317 314 311 313